[[{"header":{"parameterUnit":"m.s-1","parameterCategory":1,"la1":31.0,"la2":29.5877,"lo1":-88.7671,"lo2":-86.6584,"dy":0.0162,"dx":0.0185,"nx":115,"ny":88,"refTime":"2024-08-26T12:00:00:Z","depth":0,"parameterNumber":2,"parameterNumberName":"U-component_of_WINDS"},"data":[0.0,0.0,0.0,0.0,0.0,0.0,0.0,0.0,0.0,0.0,0.0,0.0,0.0,0.0,0.0,0.0,0.0,0.0,0.0,0.0,0.0,0.0,0.0,0.0,0.0,0.0,0.0,0.0,0.0,0.0,0.0,0.0,0.0,0.0,0.0,0.0,0.0,0.0,0.0,0.0,0.0,0.0,0.0,0.0,0.0,0.0,0.0,0.0,0.0,0.0,0.0,0.0,0.0,0.0,0.0,0.0,0.0,0.0,0.0,0.0,0.0,0.0,0.0,0.0,0.0,0.0,0.0,0.0,0.0,0.0,0.0,0.0,0.0,0.0,0.0,0.0,0.0,0.0,0.0,0.0,0.0,0.0,0.0,0.0,0.0,0.0,0.0,0.0,0.0,0.0,0.0,0.0,0.0,0.0,0.0,0.0,0.0,0.0,0.0,0.0,0.0,0.0,0.0,0.0,0.0,0.0,0.0,0.0,0.0,0.0,0.0,0.0,0.0,0.0,0.0,0.0,0.0,0.0,0.0,0.0,0.0,0.0,0.0,0.0,0.0,0.0,0.0,0.0,0.0,0.0,0.0,0.0,0.0,0.0,0.0,0.0,0.0,0.0,0.0,0.0,0.0,0.0,0.0,0.0,0.0,0.0,0.0,0.0,0.0,0.0,0.0,0.0,0.0,0.0,0.0,0.0,0.0,0.0,0.0,0.0,0.0,0.0,0.0,0.0,0.0,0.0,0.0,0.0,0.0,0.0,0.0,0.0,0.0,0.0,0.0,0.0,0.0,0.0,0.0,0.0,0.0,0.0,0.0,0.0,0.0,0.0,0.0,0.0,0.0,0.0,0.0,0.0,0.0,0.0,0.0,0.0,0.0,0.0,0.0,0.0,0.0,0.0,0.0,0.0,0.0,0.0,0.0,0.0,0.0,0.0,0.0,0.0,0.0,0.0,0.0,0.0,0.0,0.0,0.0,0.0,0.0,0.0,0.0,0.0,0.0,0.0,0.0,0.0,0.0,0.0,0.0,0.0,0.0,0.0,0.0,0.0,0.0,0.0,0.0,0.0,0.0,0.0,0.0,0.0,0.0,0.0,0.0,0.0,0.0,0.0,0.0,0.0,0.0,0.0,0.0,0.0,0.0,0.0,0.0,0.0,0.0,0.0,0.0,0.0,0.0,0.0,0.0,0.0,0.0,0.0,0.0,0.0,0.0,0.0,0.0,0.0,0.0,0.0,0.0,0.0,0.0,0.0,0.0,0.0,0.0,0.0,0.0,0.0,0.0,0.0,0.0,0.0,0.0,0.0,0.0,0.0,0.0,0.0,0.0,0.0,0.0,0.0,0.0,0.0,0.0,0.0,0.0,0.0,0.0,0.0,0.0,0.0,0.0,0.0,0.0,0.0,0.0,0.0,0.0,0.0,0.0,0.0,0.0,0.0,0.0,0.0,0.0,0.0,0.0,0.0,0.0,0.0,0.0,0.0,0.0,0.0,0.0,0.0,0.0,0.0,0.0,0.0,0.0,0.0,0.0,0.0,0.0,0.0,0.0,0.0,0.0,0.0,0.0,0.0,0.0,0.0,0.0,0.0,0.0,0.0,0.0,0.0,0.0,0.0,0.0,0.0,0.0,0.0,0.0,0.0,0.0,0.0,0.0,0.0,0.0,0.0,0.0,0.0,0.0,0.0,0.0,0.0,0.0,0.0,0.0,0.0,0.0,0.0,0.0,0.0,0.0,0.0,0.0,0.0,0.0,0.0,0.0,0.0,0.0,0.0,0.0,0.0,0.0,0.0,0.0,0.0,0.0,0.0,0.0,0.0,0.0,0.0,0.0,0.0,0.0,0.0,0.0,0.0,0.0,0.0,0.0,0.0,0.0,0.0,0.0,0.0,0.0,0.0,0.0,0.0,0.0,0.0,0.0,0.0,0.0,0.0,0.0,0.0,0.0,0.0,0.0,0.0,0.0,0.0,0.0,0.0,0.0,0.0,0.0,0.0,0.0,0.0,0.0,0.0,0.0,0.0,0.0,0.0,0.0,0.0,0.0,0.0,0.0,0.0,0.0,0.0,0.0,0.0,0.0,0.0,0.0,0.0,0.0,0.0,0.0,0.0,0.0,0.0,0.0,0.0,0.0,0.0,0.0,0.0,0.0,0.0,0.0,0.0,0.0,0.0,0.0,0.0,0.0,0.0,0.0,0.0,0.0,0.0,0.0,0.0,0.0,0.0,0.0,0.0,0.0,0.0,0.0,0.0,0.0,0.0,0.0,0.0,0.0,0.0,0.0,0.0,0.0,0.0,0.0,0.0,0.0,0.0,0.0,0.0,0.0,0.0,0.0,0.0,0.0,0.0,0.0,0.0,0.0,0.0,0.0,0.0,0.0,0.0,0.0,0.0,0.0,0.0,0.0,0.0,0.0,0.0,0.0,0.0,0.0,0.0,0.0,0.0,0.0,0.0,0.0,0.0,0.0,0.0,0.0,0.0,0.0,0.0,0.0,0.0,0.0,0.0,0.0,0.0,0.0,0.0,0.0,0.0,0.0,0.0,0.0,0.0,0.0,0.0,0.0,0.0,0.0,0.0,0.0,0.0,0.0,0.0,0.0,0.0,0.0,0.0,0.0,0.0,0.0,0.0,0.0,0.0,0.0,0.0,0.0,0.0,0.0,0.0,0.0,0.0,0.0,0.0,0.0,0.0,0.0,0.0,0.0,0.0,0.0,0.0,0.0,0.0,0.0,0.0,0.0,0.0,0.0,0.0,0.0,0.0,0.0,0.0,0.0,0.0,0.0,0.0,0.0,0.0,0.0,0.0,0.0,0.0,0.0,0.0,0.0,0.0,0.0,0.0,0.0,0.0,0.0,0.0,0.0,0.0,0.0,0.0,0.0,0.0,0.0,0.0,0.0,0.0,0.0,0.0,0.0,0.0,0.0,0.0,0.0,0.0,0.0,0.0,0.0,0.0,0.0,0.0,0.0,0.0,0.0,0.0,0.0,0.0,0.0,0.0,0.0,0.0,0.0,0.0,0.0,0.0,0.0,0.0,0.0,0.0,0.0,0.0,0.0,0.0,0.0,0.0,0.0,0.0,0.0,0.0,0.0,0.0,0.0,0.0,0.0,0.0,0.0,0.0,0.0,0.0,0.0,0.0,0.0,0.0,0.0,0.0,0.0,0.0,0.0,0.0,0.0,0.0,0.0,0.0,0.0,0.0,0.0,0.0,0.0,0.0,0.0,0.0,0.0,0.0,0.0,0.0,0.0,0.0,0.0,0.0,0.0,0.0,0.0,0.0,0.0,0.0,0.0,0.0,0.0,0.0,0.0,0.0,0.0,0.0,0.0,0.0,0.0,0.0,0.0,0.0,0.0,0.0,0.0,0.0,0.0,0.0,0.0,0.0,0.0,0.0,0.0,0.0,0.0,0.0,0.0,0.0,0.0,0.0,0.0,0.0,0.0,0.0,0.0,0.0,0.0,0.0,0.0,0.0,0.0,0.0,0.0,0.0,0.0,0.0,0.0,0.0,0.0,0.0,0.0,0.0,0.0,0.0,0.0,0.0,0.0,0.0,0.0,0.0,0.0,0.0,0.0,0.0,0.0,0.0,0.0,0.0,0.0,0.0,0.0,0.0,0.0,0.0,0.0,0.0,0.0,0.0,0.0,0.0,0.0,0.0,0.0,0.0,0.0,0.0,0.0,0.0,0.0,0.0,0.0,0.0,0.0,0.0,0.0,0.0,0.0,0.0,0.0,0.0,0.0,0.0,0.0,0.0,0.0,0.0,0.0,0.0,0.0,0.0,0.0,0.0,0.0,0.0,0.0,0.0,0.0,0.0,0.0,0.0,0.0,0.0,0.0,0.0,0.0,0.0,0.0,0.0,0.0,0.0,0.0,0.0,0.0,0.0,0.0,0.0,0.0,0.0,0.0,0.0,0.0,0.0,0.0,0.0,0.0,0.0,0.0,0.0,0.0,0.0,0.0,0.0,0.0,0.0,0.0,0.0,0.0,0.0,0.0,0.0,0.0,0.0,0.0,0.0,0.0,0.0,0.0,0.0,0.0,0.0,0.0,0.0,0.0,0.0,0.0,0.0,0.0,0.0,0.0,0.0,0.0,0.0,0.0,0.0,0.0,0.0,0.0,0.0,0.0,0.0,0.0,0.0,0.0,0.0,0.0,0.0,0.0,0.0,0.0,0.0,0.0,0.0,0.0,0.0,0.0,0.0,0.0,0.0,0.0,0.0,0.0,0.0,0.0,0.0,0.0,0.0,0.0,0.0,0.0,0.0,-2.8038,0.0,0.0,0.0,0.0,0.0,0.0,0.0,0.0,0.0,0.0,0.0,0.0,0.0,0.0,0.0,0.0,0.0,0.0,0.0,0.0,0.0,0.0,0.0,0.0,0.0,0.0,0.0,0.0,0.0,0.0,0.0,0.0,0.0,0.0,0.0,0.0,0.0,0.0,0.0,0.0,0.0,0.0,0.0,0.0,0.0,0.0,0.0,0.0,0.0,0.0,0.0,0.0,0.0,0.0,0.0,0.0,0.0,0.0,0.0,0.0,0.0,0.0,0.0,0.0,0.0,0.0,0.0,0.0,0.0,0.0,0.0,0.0,0.0,0.0,0.0,0.0,0.0,0.0,0.0,0.0,0.0,0.0,0.0,0.0,0.0,0.0,0.0,0.0,0.0,0.0,0.0,0.0,0.0,0.0,0.0,0.0,0.0,0.0,0.0,0.0,0.0,0.0,0.0,0.0,0.0,0.0,0.0,0.0,0.0,0.0,-3.0697,-3.0688,-2.9902,-2.9073,-2.8234,0.0,0.0,0.0,0.0,0.0,0.0,0.0,0.0,0.0,0.0,0.0,0.0,0.0,0.0,0.0,0.0,0.0,0.0,0.0,0.0,0.0,0.0,0.0,0.0,0.0,0.0,0.0,0.0,0.0,0.0,0.0,0.0,0.0,0.0,0.0,0.0,0.0,0.0,0.0,0.0,0.0,0.0,0.0,0.0,0.0,0.0,0.0,0.0,0.0,0.0,0.0,0.0,0.0,0.0,0.0,0.0,0.0,0.0,0.0,0.0,0.0,0.0,0.0,0.0,0.0,0.0,0.0,0.0,0.0,0.0,0.0,0.0,0.0,0.0,0.0,0.0,0.0,0.0,0.0,0.0,0.0,0.0,0.0,0.0,0.0,0.0,0.0,0.0,0.0,0.0,0.0,0.0,0.0,0.0,0.0,0.0,0.0,0.0,0.0,0.0,0.0,0.0,0.0,0.0,0.0,0.0,0.0,0.0,0.0,0.0,0.0,0.0,-3.0115,-2.9293,-2.8232,0.0,0.0,0.0,0.0,0.0,0.0,0.0,0.0,0.0,0.0,0.0,0.0,0.0,0.0,0.0,0.0,0.0,0.0,0.0,0.0,0.0,0.0,0.0,0.0,0.0,0.0,0.0,0.0,0.0,0.0,0.0,0.0,0.0,0.0,0.0,0.0,0.0,0.0,0.0,0.0,0.0,0.0,0.0,0.0,0.0,0.0,0.0,0.0,0.0,0.0,0.0,0.0,0.0,0.0,0.0,0.0,0.0,0.0,0.0,0.0,0.0,0.0,0.0,0.0,0.0,0.0,0.0,0.0,0.0,0.0,0.0,0.0,0.0,0.0,0.0,0.0,0.0,0.0,0.0,0.0,0.0,0.0,0.0,0.0,0.0,0.0,0.0,0.0,0.0,0.0,0.0,0.0,0.0,0.0,0.0,0.0,0.0,0.0,0.0,0.0,0.0,0.0,0.0,0.0,0.0,0.0,0.0,0.0,0.0,0.0,-3.0796,-3.0777,-3.0706,0.0,-2.8328,0.0,0.0,0.0,0.0,0.0,0.0,0.0,0.0,0.0,0.0,0.0,0.0,0.0,0.0,0.0,0.0,0.0,0.0,0.0,0.0,0.0,0.0,0.0,0.0,0.0,0.0,0.0,0.0,0.0,0.0,0.0,0.0,0.0,0.0,0.0,0.0,0.0,0.0,0.0,0.0,0.0,0.0,0.0,0.0,0.0,0.0,0.0,0.0,0.0,0.0,0.0,0.0,0.0,0.0,0.0,0.0,0.0,0.0,0.0,0.0,0.0,0.0,0.0,0.0,0.0,0.0,0.0,0.0,0.0,0.0,0.0,0.0,0.0,0.0,0.0,0.0,0.0,0.0,0.0,0.0,0.0,0.0,0.0,0.0,0.0,0.0,0.0,0.0,0.0,0.0,0.0,0.0,0.0,0.0,0.0,0.0,0.0,0.0,0.0,0.0,0.0,0.0,0.0,0.0,0.0,0.0,0.0,0.0,0.0,0.0,0.0,-3.0784,-2.9842,-2.8993,0.0,0.0,0.0,0.0,0.0,0.0,0.0,0.0,0.0,0.0,0.0,0.0,0.0,0.0,0.0,0.0,0.0,0.0,0.0,0.0,0.0,0.0,0.0,0.0,0.0,0.0,0.0,0.0,0.0,0.0,0.0,0.0,0.0,0.0,0.0,0.0,0.0,0.0,0.0,0.0,0.0,0.0,0.0,0.0,0.0,0.0,0.0,0.0,0.0,0.0,0.0,0.0,0.0,0.0,0.0,0.0,0.0,0.0,0.0,0.0,0.0,0.0,0.0,0.0,0.0,0.0,0.0,0.0,0.0,0.0,0.0,0.0,0.0,0.0,0.0,0.0,0.0,0.0,0.0,0.0,0.0,0.0,0.0,0.0,0.0,0.0,0.0,0.0,0.0,0.0,0.0,0.0,0.0,0.0,0.0,0.0,0.0,0.0,0.0,0.0,0.0,0.0,0.0,0.0,0.0,0.0,0.0,0.0,0.0,0.0,-3.0784,0.0,-3.0726,-2.917,-2.8297,-2.8282,0.0,0.0,0.0,0.0,0.0,0.0,0.0,0.0,0.0,0.0,0.0,0.0,0.0,0.0,0.0,0.0,0.0,0.0,0.0,0.0,0.0,0.0,0.0,0.0,0.0,0.0,0.0,0.0,0.0,0.0,0.0,0.0,0.0,0.0,0.0,0.0,0.0,0.0,0.0,0.0,0.0,0.0,0.0,0.0,0.0,0.0,0.0,0.0,0.0,0.0,0.0,0.0,0.0,0.0,0.0,0.0,0.0,0.0,0.0,0.0,0.0,0.0,0.0,0.0,0.0,0.0,0.0,0.0,0.0,0.0,0.0,0.0,0.0,0.0,0.0,0.0,0.0,0.0,0.0,0.0,0.0,0.0,0.0,0.0,0.0,0.0,0.0,0.0,0.0,0.0,0.0,0.0,0.0,0.0,0.0,0.0,0.0,0.0,0.0,0.0,0.0,0.0,0.0,0.0,0.0,0.0,0.0,0.0,0.0,-3.0801,-3.0795,-3.078,-2.918,-2.8282,0.0,0.0,0.0,0.0,0.0,0.0,0.0,0.0,0.0,0.0,0.0,0.0,0.0,0.0,0.0,0.0,0.0,0.0,0.0,0.0,0.0,0.0,0.0,0.0,0.0,0.0,0.0,0.0,0.0,0.0,0.0,0.0,0.0,0.0,0.0,0.0,0.0,0.0,0.0,0.0,0.0,0.0,0.0,0.0,0.0,0.0,0.0,0.0,0.0,0.0,0.0,0.0,0.0,0.0,0.0,0.0,0.0,0.0,0.0,0.0,0.0,0.0,0.0,0.0,0.0,0.0,0.0,0.0,0.0,0.0,0.0,0.0,0.0,0.0,0.0,0.0,0.0,0.0,0.0,0.0,0.0,0.0,0.0,0.0,0.0,0.0,0.0,0.0,0.0,0.0,0.0,0.0,0.0,0.0,0.0,0.0,0.0,0.0,0.0,0.0,0.0,0.0,0.0,0.0,0.0,0.0,0.0,0.0,0.0,-3.0734,-3.0791,-3.0799,-3.0761,-2.918,-2.8282,0.0,0.0,0.0,0.0,0.0,0.0,0.0,0.0,0.0,0.0,0.0,0.0,0.0,0.0,0.0,0.0,0.0,0.0,0.0,0.0,0.0,0.0,0.0,0.0,0.0,0.0,0.0,0.0,0.0,0.0,0.0,0.0,0.0,0.0,0.0,0.0,0.0,0.0,0.0,0.0,0.0,0.0,0.0,0.0,0.0,0.0,0.0,0.0,0.0,0.0,0.0,0.0,0.0,0.0,0.0,0.0,0.0,0.0,0.0,0.0,0.0,0.0,0.0,0.0,0.0,0.0,0.0,0.0,0.0,0.0,0.0,0.0,0.0,0.0,0.0,0.0,0.0,0.0,0.0,0.0,0.0,0.0,0.0,0.0,0.0,0.0,0.0,0.0,0.0,0.0,0.0,0.0,0.0,0.0,0.0,0.0,0.0,0.0,0.0,0.0,0.0,0.0,0.0,0.0,0.0,0.0,0.0,0.0,0.0,-3.1193,0.0,-3.1522,0.0,-2.9844,-2.8848,0.0,0.0,0.0,0.0,0.0,0.0,0.0,0.0,0.0,0.0,0.0,0.0,0.0,0.0,0.0,0.0,0.0,0.0,0.0,0.0,0.0,0.0,0.0,0.0,0.0,0.0,0.0,0.0,0.0,0.0,0.0,0.0,0.0,0.0,0.0,0.0,0.0,0.0,0.0,0.0,0.0,0.0,0.0,0.0,0.0,0.0,0.0,0.0,0.0,0.0,0.0,0.0,0.0,0.0,0.0,0.0,0.0,0.0,0.0,0.0,0.0,0.0,0.0,0.0,0.0,0.0,0.0,0.0,0.0,0.0,0.0,0.0,0.0,0.0,0.0,0.0,0.0,0.0,0.0,0.0,0.0,0.0,0.0,0.0,0.0,0.0,0.0,0.0,0.0,0.0,0.0,0.0,0.0,0.0,0.0,0.0,0.0,0.0,0.0,0.0,0.0,0.0,0.0,0.0,0.0,0.0,0.0,0.0,-3.1287,-3.2097,-3.2904,-3.291,-3.2129,-3.1211,-3.0,0.0,0.0,0.0,0.0,0.0,0.0,0.0,0.0,0.0,0.0,0.0,0.0,0.0,0.0,0.0,0.0,0.0,0.0,0.0,0.0,0.0,0.0,0.0,0.0,0.0,0.0,0.0,0.0,0.0,0.0,0.0,0.0,0.0,0.0,0.0,0.0,0.0,0.0,0.0,0.0,0.0,0.0,0.0,0.0,0.0,0.0,0.0,0.0,0.0,0.0,0.0,0.0,0.0,0.0,0.0,0.0,0.0,0.0,0.0,0.0,0.0,0.0,0.0,0.0,0.0,0.0,0.0,0.0,0.0,0.0,0.0,0.0,0.0,0.0,0.0,0.0,0.0,0.0,0.0,0.0,0.0,0.0,0.0,0.0,0.0,0.0,0.0,0.0,0.0,0.0,0.0,0.0,0.0,0.0,0.0,0.0,0.0,0.0,0.0,0.0,0.0,0.0,0.0,0.0,0.0,0.0,0.0,0.0,0.0,-3.3007,-3.3254,-3.3279,-3.2968,-3.1561,-3.0547,0.0,0.0,0.0,0.0,0.0,0.0,0.0,0.0,0.0,0.0,0.0,0.0,0.0,0.0,0.0,0.0,0.0,0.0,0.0,0.0,0.0,0.0,0.0,0.0,0.0,0.0,0.0,0.0,0.0,0.0,0.0,0.0,0.0,0.0,0.0,0.0,0.0,0.0,0.0,0.0,0.0,0.0,0.0,0.0,0.0,0.0,0.0,0.0,0.0,0.0,0.0,0.0,0.0,0.0,0.0,0.0,0.0,0.0,0.0,0.0,0.0,0.0,0.0,0.0,0.0,0.0,0.0,0.0,0.0,0.0,0.0,0.0,0.0,0.0,0.0,0.0,0.0,0.0,0.0,0.0,0.0,0.0,0.0,0.0,0.0,0.0,0.0,0.0,0.0,0.0,0.0,0.0,0.0,0.0,0.0,0.0,0.0,0.0,0.0,0.0,0.0,0.0,0.0,0.0,0.0,0.0,0.0,0.0,0.0,-3.4839,-3.5147,-3.5037,-3.4392,-3.3299,-3.2128,-3.082,0.0,0.0,0.0,0.0,0.0,0.0,0.0,0.0,0.0,0.0,0.0,0.0,0.0,0.0,0.0,0.0,0.0,0.0,0.0,0.0,0.0,0.0,0.0,0.0,0.0,0.0,0.0,0.0,0.0,0.0,0.0,0.0,0.0,0.0,0.0,0.0,0.0,0.0,0.0,0.0,0.0,0.0,0.0,0.0,0.0,0.0,0.0,0.0,0.0,0.0,0.0,0.0,0.0,0.0,0.0,0.0,0.0,0.0,0.0,0.0,0.0,0.0,0.0,0.0,0.0,0.0,0.0,0.0,0.0,0.0,0.0,0.0,0.0,0.0,0.0,0.0,0.0,0.0,0.0,0.0,0.0,0.0,0.0,0.0,0.0,0.0,0.0,0.0,0.0,0.0,0.0,0.0,0.0,0.0,0.0,0.0,0.0,0.0,0.0,0.0,0.0,0.0,0.0,0.0,0.0,0.0,0.0,0.0,-3.7256,-3.8232,-3.7887,-3.6207,-3.6012,-3.4431,0.0,0.0,0.0,0.0,0.0,0.0,0.0,0.0,0.0,0.0,0.0,0.0,0.0,0.0,0.0,0.0,0.0,0.0,0.0,0.0,0.0,0.0,0.0,0.0,0.0,0.0,0.0,0.0,0.0,0.0,0.0,0.0,0.0,0.0,0.0,0.0,0.0,0.0,0.0,0.0,0.0,0.0,0.0,0.0,0.0,0.0,0.0,0.0,0.0,0.0,0.0,0.0,0.0,0.0,0.0,0.0,0.0,0.0,0.0,0.0,0.0,0.0,0.0,0.0,0.0,0.0,0.0,0.0,0.0,0.0,0.0,0.0,0.0,0.0,0.0,0.0,0.0,0.0,0.0,0.0,0.0,0.0,0.0,0.0,0.0,0.0,0.0,0.0,0.0,0.0,0.0,0.0,0.0,0.0,0.0,0.0,0.0,0.0,0.0,0.0,0.0,0.0,0.0,0.0,0.0,0.0,0.0,0.0,0.0,-3.8172,-3.9655,-3.9645,-3.7965,-3.6675,-3.527,0.0,0.0,0.0,0.0,0.0,0.0,0.0,0.0,0.0,0.0,0.0,0.0,0.0,0.0,0.0,0.0,0.0,0.0,0.0,0.0,0.0,0.0,0.0,0.0,0.0,0.0,0.0,0.0,0.0,0.0,0.0,0.0,0.0,0.0,0.0,0.0,0.0,0.0,0.0,0.0,0.0,0.0,0.0,0.0,0.0,0.0,0.0,0.0,0.0,0.0,0.0,0.0,0.0,0.0,0.0,0.0,0.0,0.0,0.0,0.0,0.0,0.0,0.0,0.0,0.0,0.0,0.0,0.0,0.0,0.0,0.0,0.0,0.0,0.0,0.0,0.0,0.0,0.0,0.0,0.0,0.0,0.0,0.0,0.0,0.0,0.0,0.0,0.0,0.0,0.0,0.0,0.0,0.0,0.0,0.0,0.0,0.0,0.0,0.0,0.0,0.0,0.0,0.0,0.0,0.0,0.0,0.0,0.0,-3.7973,-3.8514,-4.02,-4.0621,-3.9665,-3.8004,-3.6325,0.0,0.0,0.0,0.0,0.0,0.0,0.0,0.0,0.0,0.0,0.0,0.0,0.0,0.0,0.0,0.0,0.0,0.0,0.0,0.0,0.0,0.0,0.0,0.0,0.0,0.0,0.0,0.0,0.0,0.0,0.0,0.0,0.0,0.0,0.0,0.0,0.0,0.0,0.0,0.0,0.0,0.0,0.0,0.0,0.0,0.0,0.0,0.0,0.0,0.0,0.0,0.0,0.0,0.0,0.0,0.0,0.0,0.0,0.0,0.0,0.0,0.0,0.0,0.0,0.0,0.0,0.0,0.0,0.0,0.0,0.0,0.0,0.0,0.0,0.0,0.0,0.0,0.0,0.0,0.0,0.0,0.0,0.0,0.0,0.0,0.0,0.0,0.0,0.0,0.0,0.0,0.0,0.0,0.0,0.0,0.0,0.0,0.0,0.0,0.0,0.0,0.0,0.0,0.0,0.0,0.0,0.0,0.0,-3.8419,-3.8502,-4.0196,-4.1109,-4.107,-3.947,-3.742,0.0,0.0,0.0,0.0,0.0,0.0,0.0,0.0,0.0,0.0,0.0,0.0,0.0,0.0,0.0,0.0,0.0,0.0,0.0,0.0,0.0,0.0,0.0,0.0,0.0,0.0,0.0,0.0,0.0,0.0,0.0,0.0,0.0,0.0,0.0,0.0,0.0,0.0,0.0,0.0,0.0,0.0,0.0,0.0,0.0,0.0,0.0,0.0,0.0,0.0,0.0,0.0,0.0,0.0,0.0,0.0,0.0,0.0,0.0,0.0,0.0,0.0,0.0,0.0,0.0,0.0,0.0,0.0,0.0,0.0,0.0,0.0,0.0,0.0,0.0,0.0,0.0,0.0,0.0,0.0,0.0,0.0,0.0,0.0,0.0,0.0,0.0,0.0,0.0,0.0,0.0,0.0,0.0,0.0,0.0,0.0,0.0,0.0,0.0,0.0,0.0,0.0,0.0,0.0,0.0,0.0,0.0,0.0,-3.839,-3.8435,-4.0171,-4.1109,-4.109,-3.947,-3.7693,0.0,0.0,0.0,0.0,0.0,0.0,0.0,0.0,0.0,0.0,0.0,0.0,0.0,0.0,0.0,0.0,0.0,0.0,0.0,0.0,0.0,0.0,0.0,0.0,0.0,0.0,0.0,0.0,0.0,0.0,0.0,0.0,0.0,0.0,0.0,0.0,0.0,0.0,0.0,0.0,0.0,0.0,0.0,0.0,0.0,0.0,0.0,0.0,-3.1303,0.0,0.0,0.0,0.0,0.0,0.0,0.0,0.0,0.0,0.0,0.0,0.0,0.0,0.0,0.0,0.0,0.0,0.0,0.0,0.0,0.0,0.0,0.0,0.0,0.0,0.0,0.0,0.0,0.0,0.0,0.0,0.0,0.0,0.0,0.0,0.0,0.0,0.0,0.0,0.0,0.0,0.0,0.0,0.0,0.0,0.0,0.0,0.0,0.0,0.0,0.0,0.0,0.0,0.0,0.0,0.0,0.0,0.0,0.0,-3.8346,-3.8432,-3.9733,-4.0465,-4.0444,-3.8863,-3.736,0.0,0.0,0.0,0.0,0.0,0.0,0.0,0.0,0.0,0.0,0.0,0.0,0.0,0.0,0.0,0.0,0.0,0.0,0.0,0.0,0.0,0.0,0.0,0.0,0.0,0.0,0.0,0.0,0.0,0.0,0.0,0.0,0.0,0.0,0.0,0.0,0.0,0.0,0.0,0.0,0.0,0.0,0.0,0.0,0.0,0.0,0.0,0.0,0.0,0.0,0.0,0.0,0.0,0.0,0.0,0.0,0.0,0.0,0.0,0.0,0.0,0.0,0.0,0.0,0.0,0.0,0.0,0.0,0.0,0.0,0.0,0.0,0.0,0.0,0.0,0.0,0.0,0.0,0.0,0.0,0.0,0.0,0.0,0.0,0.0,0.0,0.0,0.0,0.0,0.0,0.0,0.0,0.0,0.0,0.0,0.0,0.0,0.0,0.0,0.0,0.0,0.0,0.0,0.0,0.0,0.0,0.0,-3.632,-3.8059,-3.8198,-3.9043,-3.9538,-3.9558,-3.8099,-3.683,-3.5796,0.0,0.0,0.0,0.0,0.0,0.0,0.0,0.0,0.0,0.0,0.0,0.0,0.0,0.0,0.0,0.0,0.0,0.0,0.0,0.0,0.0,0.0,0.0,0.0,0.0,0.0,0.0,0.0,0.0,0.0,0.0,0.0,0.0,0.0,0.0,0.0,0.0,0.0,-2.8651,-3.0087,0.0,0.0,0.0,0.0,0.0,0.0,0.0,0.0,-3.361,0.0,0.0,0.0,0.0,0.0,0.0,0.0,0.0,0.0,0.0,0.0,0.0,0.0,0.0,0.0,0.0,0.0,0.0,0.0,0.0,0.0,0.0,0.0,0.0,0.0,0.0,0.0,0.0,0.0,0.0,0.0,0.0,0.0,0.0,0.0,0.0,0.0,0.0,0.0,0.0,0.0,0.0,0.0,0.0,0.0,0.0,0.0,0.0,0.0,0.0,0.0,0.0,0.0,0.0,0.0,0.0,-3.3035,-3.5729,-3.7123,-3.7166,-3.8116,-3.8625,-3.8597,-3.7767,-3.6551,-3.4911,0.0,0.0,0.0,0.0,0.0,0.0,0.0,0.0,0.0,0.0,0.0,0.0,0.0,0.0,0.0,0.0,0.0,0.0,0.0,0.0,0.0,0.0,0.0,0.0,0.0,0.0,0.0,0.0,0.0,0.0,0.0,0.0,0.0,0.0,0.0,0.0,0.0,0.0,0.0,-3.1704,-3.2144,0.0,0.0,0.0,0.0,0.0,0.0,0.0,0.0,-3.5387,0.0,0.0,0.0,0.0,0.0,0.0,0.0,0.0,0.0,0.0,0.0,0.0,0.0,0.0,0.0,0.0,0.0,0.0,0.0,0.0,0.0,0.0,0.0,0.0,0.0,0.0,0.0,0.0,0.0,0.0,0.0,0.0,0.0,0.0,0.0,0.0,0.0,0.0,0.0,0.0,0.0,0.0,0.0,0.0,0.0,0.0,0.0,0.0,0.0,0.0,0.0,0.0,0.0,0.0,0.0,-3.307,-3.5495,-3.6829,-3.6906,-3.7371,-3.765,-3.772,-3.6949,-3.5736,0.0,0.0,0.0,0.0,0.0,0.0,0.0,0.0,0.0,0.0,0.0,0.0,0.0,0.0,0.0,0.0,0.0,0.0,0.0,0.0,0.0,0.0,0.0,0.0,0.0,0.0,0.0,0.0,0.0,0.0,0.0,0.0,0.0,0.0,0.0,0.0,0.0,0.0,0.0,0.0,-3.2779,-3.3083,-3.3965,0.0,0.0,0.0,0.0,0.0,0.0,-3.5558,-3.5799,0.0,0.0,0.0,0.0,0.0,0.0,0.0,0.0,0.0,0.0,0.0,0.0,0.0,0.0,0.0,0.0,0.0,0.0,0.0,0.0,0.0,0.0,0.0,0.0,0.0,0.0,0.0,0.0,0.0,0.0,0.0,0.0,0.0,0.0,0.0,0.0,0.0,0.0,0.0,0.0,0.0,0.0,0.0,0.0,0.0,0.0,0.0,0.0,0.0,0.0,0.0,0.0,0.0,0.0,0.0,-3.3224,-3.5327,-3.6511,-3.6629,-3.6626,-3.6678,-3.678,-3.6151,-3.5039,0.0,0.0,0.0,0.0,0.0,0.0,0.0,0.0,0.0,0.0,0.0,0.0,0.0,0.0,0.0,0.0,0.0,0.0,0.0,0.0,0.0,0.0,0.0,0.0,0.0,0.0,0.0,0.0,0.0,0.0,0.0,0.0,0.0,0.0,0.0,0.0,0.0,0.0,0.0,0.0,0.0,-3.4256,-3.5097,-3.5973,0.0,0.0,0.0,0.0,-3.642,-3.6366,0.0,0.0,0.0,0.0,0.0,0.0,0.0,0.0,0.0,0.0,0.0,0.0,0.0,0.0,0.0,0.0,0.0,0.0,0.0,0.0,0.0,0.0,0.0,0.0,0.0,0.0,0.0,0.0,0.0,0.0,0.0,0.0,0.0,0.0,0.0,0.0,0.0,0.0,0.0,0.0,0.0,0.0,0.0,0.0,0.0,0.0,0.0,0.0,0.0,0.0,0.0,0.0,0.0,0.0,0.0,0.0,-3.396,-3.5063,-3.5648,-3.5649,-3.5705,-3.5739,-3.5785,-3.5784,-3.4991,0.0,0.0,0.0,0.0,0.0,0.0,0.0,0.0,0.0,0.0,0.0,0.0,0.0,0.0,0.0,0.0,0.0,0.0,0.0,0.0,0.0,0.0,0.0,0.0,0.0,0.0,0.0,0.0,0.0,0.0,0.0,0.0,0.0,0.0,0.0,0.0,0.0,0.0,0.0,0.0,0.0,-3.6016,-3.6887,-3.7761,-3.8228,0.0,0.0,-3.8207,-3.8194,-3.8132,0.0,0.0,0.0,0.0,0.0,0.0,0.0,0.0,0.0,0.0,0.0,0.0,0.0,0.0,0.0,0.0,0.0,0.0,0.0,0.0,0.0,0.0,0.0,0.0,0.0,0.0,0.0,0.0,0.0,0.0,0.0,0.0,0.0,0.0,0.0,0.0,0.0,0.0,0.0,0.0,0.0,0.0,0.0,0.0,0.0,0.0,0.0,0.0,0.0,0.0,0.0,0.0,0.0,0.0,0.0,-3.3233,-3.4087,-3.4985,-3.546,-3.55,-3.5522,-3.5552,-3.5588,-3.5178,-3.4386,0.0,0.0,0.0,0.0,0.0,0.0,0.0,0.0,0.0,0.0,0.0,0.0,0.0,0.0,0.0,0.0,0.0,0.0,0.0,0.0,0.0,0.0,0.0,0.0,0.0,0.0,0.0,0.0,0.0,0.0,0.0,0.0,0.0,0.0,0.0,0.0,0.0,0.0,0.0,0.0,0.0,0.0,-3.7812,-3.8337,0.0,0.0,0.0,-3.8517,-3.851,0.0,0.0,0.0,0.0,0.0,0.0,0.0,0.0,0.0,0.0,0.0,0.0,0.0,0.0,0.0,0.0,0.0,0.0,0.0,0.0,0.0,0.0,0.0,0.0,0.0,0.0,0.0,0.0,0.0,0.0,0.0,0.0,0.0,0.0,0.0,0.0,0.0,0.0,0.0,0.0,0.0,0.0,0.0,0.0,0.0,0.0,0.0,0.0,0.0,0.0,0.0,0.0,0.0,0.0,0.0,0.0,0.0,-3.4386,-3.5065,-3.5405,-3.5434,-3.5434,-3.5469,-3.5513,-3.4711,0.0,0.0,0.0,0.0,0.0,0.0,0.0,0.0,0.0,0.0,0.0,0.0,0.0,0.0,0.0,0.0,0.0,0.0,0.0,0.0,0.0,0.0,0.0,0.0,0.0,0.0,0.0,-2.3392,0.0,0.0,0.0,0.0,0.0,0.0,0.0,0.0,0.0,0.0,0.0,0.0,0.0,0.0,-3.7476,-3.8936,-3.9393,-3.9551,0.0,0.0,-3.9062,-3.8846,-3.8276,-3.7683,0.0,0.0,0.0,0.0,0.0,0.0,0.0,0.0,0.0,0.0,0.0,0.0,0.0,0.0,0.0,0.0,0.0,0.0,0.0,0.0,0.0,0.0,0.0,0.0,0.0,0.0,0.0,0.0,0.0,0.0,0.0,0.0,0.0,0.0,0.0,0.0,0.0,0.0,0.0,0.0,0.0,0.0,0.0,0.0,0.0,0.0,0.0,0.0,0.0,0.0,0.0,0.0,0.0,0.0,0.0,-3.5147,-3.5274,-3.5315,-3.5315,-3.5315,-3.5323,-3.5292,-3.4541,-3.3718,0.0,0.0,0.0,0.0,0.0,0.0,0.0,0.0,0.0,0.0,0.0,0.0,0.0,0.0,0.0,0.0,0.0,0.0,0.0,0.0,0.0,0.0,0.0,0.0,0.0,0.0,0.0,0.0,0.0,0.0,0.0,0.0,0.0,0.0,0.0,0.0,0.0,0.0,0.0,0.0,0.0,-3.9881,-4.0803,-4.1625,-4.2134,0.0,0.0,-4.0565,-3.9823,-3.9626,-3.8988,-3.7464,0.0,0.0,0.0,0.0,0.0,0.0,0.0,0.0,0.0,0.0,0.0,0.0,0.0,0.0,0.0,0.0,0.0,0.0,0.0,0.0,0.0,0.0,0.0,0.0,0.0,0.0,0.0,0.0,0.0,0.0,0.0,0.0,0.0,0.0,0.0,0.0,0.0,0.0,0.0,0.0,0.0,0.0,0.0,0.0,0.0,0.0,0.0,0.0,0.0,0.0,0.0,0.0,0.0,-3.3494,-3.5215,-3.5273,-3.5304,-3.5308,-3.5308,-3.5308,-3.5308,-3.4525,-3.3702,0.0,0.0,0.0,0.0,0.0,0.0,0.0,0.0,0.0,0.0,0.0,0.0,0.0,0.0,0.0,0.0,0.0,0.0,0.0,0.0,0.0,0.0,0.0,0.0,0.0,0.0,0.0,0.0,-2.8373,-2.928,-3.0383,0.0,0.0,0.0,0.0,0.0,0.0,0.0,0.0,0.0,0.0,-4.0725,-4.1046,-4.1843,0.0,0.0,-4.1287,-4.0963,-4.0657,-4.014,-3.9544,-3.8905,-3.8398,0.0,0.0,0.0,0.0,0.0,0.0,0.0,0.0,0.0,0.0,0.0,0.0,0.0,0.0,0.0,0.0,0.0,0.0,0.0,0.0,0.0,0.0,0.0,0.0,0.0,0.0,0.0,0.0,0.0,0.0,0.0,0.0,0.0,0.0,0.0,0.0,0.0,0.0,0.0,0.0,0.0,0.0,0.0,0.0,0.0,0.0,0.0,0.0,0.0,0.0,0.0,0.0,-3.3438,-3.5149,-3.5226,-3.5285,-3.5278,-3.527,-3.5278,-3.5258,-3.45,-3.3791,0.0,0.0,0.0,0.0,0.0,0.0,0.0,0.0,0.0,0.0,0.0,0.0,0.0,0.0,0.0,0.0,0.0,0.0,0.0,0.0,0.0,0.0,0.0,0.0,0.0,0.0,0.0,0.0,-2.966,-3.0649,-3.2194,0.0,0.0,0.0,0.0,0.0,0.0,0.0,0.0,0.0,0.0,-4.1462,-4.146,-4.1971,-4.2154,-4.1541,-4.1245,-4.1014,-4.0749,-4.0209,-3.9713,-3.9463,0.0,0.0,0.0,0.0,0.0,0.0,0.0,0.0,0.0,0.0,0.0,0.0,0.0,0.0,0.0,0.0,0.0,0.0,0.0,0.0,0.0,0.0,0.0,0.0,0.0,0.0,0.0,0.0,0.0,0.0,-2.6121,0.0,0.0,0.0,0.0,0.0,0.0,0.0,0.0,0.0,0.0,0.0,0.0,0.0,0.0,0.0,0.0,0.0,0.0,0.0,0.0,0.0,0.0,-3.3365,-3.5054,-3.5179,-3.5201,-3.5209,-3.519,-3.519,-3.5171,-3.4434,-3.3991,-3.3938,0.0,0.0,0.0,0.0,0.0,0.0,0.0,0.0,0.0,0.0,0.0,0.0,0.0,0.0,0.0,0.0,0.0,0.0,0.0,0.0,0.0,0.0,0.0,0.0,0.0,0.0,-2.9072,-3.0659,-3.2116,0.0,0.0,0.0,0.0,0.0,0.0,0.0,0.0,0.0,0.0,-4.1198,-4.2296,-4.2279,-4.2318,-4.2357,-4.2279,-4.1633,-4.0838,-4.0058,-3.9875,-3.9496,0.0,0.0,0.0,0.0,0.0,0.0,0.0,0.0,0.0,0.0,0.0,0.0,0.0,0.0,0.0,0.0,0.0,0.0,0.0,0.0,0.0,0.0,0.0,0.0,0.0,0.0,0.0,-2.7874,-2.728,0.0,0.0,0.0,0.0,0.0,0.0,0.0,0.0,0.0,0.0,0.0,-3.1142,-3.1177,0.0,0.0,0.0,0.0,0.0,0.0,0.0,0.0,0.0,0.0,0.0,0.0,-3.3667,-3.4917,-3.5011,-3.5063,-3.5182,-3.5182,-3.5182,-3.5182,-3.4942,-3.4549,-3.4002,0.0,0.0,0.0,0.0,0.0,0.0,0.0,0.0,0.0,0.0,0.0,0.0,0.0,0.0,0.0,0.0,0.0,0.0,0.0,0.0,0.0,0.0,0.0,0.0,0.0,-3.0132,0.0,0.0,0.0,0.0,0.0,0.0,0.0,0.0,0.0,0.0,0.0,-4.0956,-4.2132,-4.3303,-4.3821,-4.3249,-4.3653,-4.3838,0.0,0.0,0.0,0.0,0.0,0.0,0.0,0.0,0.0,0.0,0.0,0.0,0.0,0.0,-4.0465,-3.8731,-3.8179,-3.7968,-3.7959,0.0,0.0,0.0,0.0,0.0,0.0,0.0,0.0,0.0,0.0,0.0,0.0,0.0,0.0,0.0,0.0,-2.8973,0.0,0.0,0.0,0.0,0.0,0.0,0.0,0.0,-3.199,-3.2265,-3.2327,-3.2337,-3.2247,0.0,-3.2082,-3.1517,0.0,0.0,0.0,0.0,0.0,0.0,0.0,0.0,-3.373,-3.4723,-3.4753,-3.4822,-3.4954,-3.4944,-3.4954,-3.4963,-3.4963,-3.4583,-3.3785,-3.2505,-3.1477,0.0,0.0,0.0,0.0,0.0,0.0,0.0,0.0,0.0,0.0,0.0,0.0,0.0,0.0,0.0,0.0,0.0,0.0,0.0,0.0,0.0,0.0,0.0,-3.1634,0.0,0.0,0.0,0.0,0.0,0.0,0.0,0.0,0.0,-4.0835,-4.1451,-4.2243,-4.3402,-4.4335,-4.4589,-4.3728,0.0,0.0,0.0,0.0,0.0,0.0,0.0,-4.3604,-4.3613,-4.3634,-4.3671,-4.3708,-4.3696,-4.3704,-4.3672,0.0,0.0,-4.0126,-3.9264,-3.8862,-3.8853,-3.8615,-3.8387,-3.8387,-3.8654,-3.8848,0.0,0.0,0.0,0.0,0.0,0.0,0.0,0.0,-2.9916,-2.9866,0.0,-2.9764,0.0,0.0,0.0,0.0,0.0,0.0,0.0,0.0,-3.4332,-3.4923,-3.4591,-3.4594,-3.4258,-3.3528,-3.3508,-3.3154,-3.2388,-3.1759,0.0,0.0,0.0,0.0,0.0,0.0,-3.3575,-3.4458,-3.4494,-3.4497,-3.4489,-3.45,-3.4518,-3.45,-3.45,-3.4162,-3.339,-3.327,-3.2831,-3.1944,-3.0404,0.0,0.0,0.0,0.0,0.0,0.0,0.0,0.0,0.0,0.0,0.0,0.0,0.0,0.0,0.0,0.0,0.0,0.0,0.0,0.0,-3.1599,0.0,0.0,0.0,0.0,0.0,0.0,0.0,0.0,0.0,0.0,-4.1023,-4.2445,-4.3535,-4.3607,0.0,0.0,0.0,0.0,-4.3698,-4.3714,-4.3698,-4.3698,-4.3718,-4.3718,-4.3718,-4.3718,0.0,0.0,-4.3785,-4.3794,-4.3822,-4.371,-4.3699,-4.3367,-4.25,-4.097,-3.9831,-3.9732,-3.911,-3.8542,-3.8542,-3.9217,-3.9742,-3.4579,0.0,0.0,0.0,0.0,-3.2336,-3.2526,-3.2788,-3.2769,-3.2361,-3.169,-3.173,0.0,0.0,0.0,0.0,0.0,0.0,-3.404,-3.4304,-3.5039,-3.5107,-3.4609,-3.4622,-3.4202,-3.3441,-3.3452,-3.3325,-3.3107,-3.2932,-3.2352,-3.1426,0.0,0.0,0.0,0.0,-3.3858,-3.434,-3.4328,-3.436,-3.4489,-3.4489,-3.4489,-3.4489,-3.4489,-3.4384,-3.4159,-3.4001,-3.3548,-3.2784,-3.208,0.0,0.0,0.0,0.0,0.0,0.0,0.0,0.0,0.0,0.0,0.0,0.0,0.0,0.0,0.0,0.0,0.0,0.0,0.0,-3.2368,-3.3123,-3.44,0.0,0.0,0.0,0.0,0.0,0.0,0.0,0.0,0.0,-4.3441,-4.3987,-4.4594,0.0,0.0,-4.5652,-4.5419,-4.5429,-4.5457,-4.5453,0.0,0.0,0.0,-4.5455,-4.5455,-4.5455,-4.5449,-4.5459,-4.5468,-4.5493,-4.5484,-4.5451,-4.4955,-4.4433,-4.4119,-4.2699,-4.1364,-4.077,-4.0373,-4.0193,-4.0208,-4.0402,-4.0558,-3.6585,-3.5042,-3.4112,-3.3556,-3.3354,-3.3647,-3.3771,-3.3761,-3.3761,-3.34,-3.2866,-3.291,-3.248,-3.1758,-3.2301,0.0,0.0,0.0,-3.4787,-3.5037,-3.5558,-3.5545,-3.5092,-3.5205,-3.4857,-3.4083,-3.3933,-3.4045,-3.432,-3.4027,-3.3452,-3.2638,0.0,0.0,-3.3104,-3.3496,-3.3829,-3.403,-3.4023,-3.4037,-3.4177,-3.4177,-3.4165,-3.4141,-3.4141,-3.416,-3.4141,-3.403,-3.3758,-3.3309,-3.28,-3.1794,0.0,0.0,0.0,0.0,0.0,0.0,0.0,0.0,0.0,0.0,0.0,-2.7776,-2.8364,0.0,0.0,0.0,-2.9696,-3.1621,-3.396,-3.5145,0.0,0.0,0.0,0.0,0.0,0.0,0.0,-4.3437,-4.3647,-4.4042,-4.4942,-4.5131,-4.5376,-4.5883,-4.6025,-4.6075,-4.6076,0.0,-4.6181,-4.6197,-4.6208,-4.6199,-4.6199,-4.6199,-4.6199,-4.6199,-4.6199,-4.6199,-4.6199,-4.6206,-4.6206,-4.6138,-4.5779,-4.5306,-4.4956,-4.398,-4.2867,-4.1766,-4.1493,-4.1367,-4.1013,-4.0954,-4.0954,-3.8034,-3.7872,-3.6886,-3.5446,-3.3863,-3.4489,-3.4353,-3.3694,-3.3694,-3.3592,-3.3491,-3.3508,-3.3537,-3.359,-3.3656,0.0,0.0,-3.4474,-3.5014,-3.5307,-3.6015,-3.6116,-3.5722,-3.6077,-3.5847,-3.5097,-3.4783,-3.5046,-3.5713,-3.5059,-3.4682,-3.4679,-3.4014,-3.369,-3.3689,-3.3633,-3.3615,-3.3684,-3.3698,-3.3684,-3.3698,-3.3698,-3.3657,-3.3601,-3.3532,-3.3532,-3.3605,-3.3532,-3.3532,-3.3569,-3.2898,-3.216,-3.1399,0.0,0.0,0.0,0.0,0.0,0.0,0.0,0.0,0.0,0.0,0.0,0.0,0.0,0.0,0.0,-3.2843,0.0,-3.5116,-3.7441,0.0,0.0,0.0,-4.1829,-4.2701,-4.2848,-4.3273,-4.4254,0.0,0.0,0.0,0.0,-4.5893,-4.5893,-4.5956,-4.6014,-4.6085,-4.609,-4.6102,-4.6174,-4.6169,-4.6212,-4.6189,-4.6196,-4.6199,-4.6199,-4.6199,-4.6199,-4.6176,-4.6082,-4.6095,-4.6042,-4.6015,-4.5725,-4.4911,-4.4668,-4.4288,-4.2565,-4.2264,-4.2025,-4.1202,-4.0986,-4.0986,-3.8992,-3.8596,-3.8789,-3.8063,-3.6857,-3.7009,-3.6671,-3.6017,-3.6,-3.534,-3.4235,-3.4252,-3.3952,-3.3448,-3.3469,-3.3774,-3.4333,-3.5424,-3.5941,-3.6046,-3.6531,-3.6381,-3.572,-3.578,-3.5597,-3.5116,-3.5021,-3.5258,-3.5786,-3.5605,-3.5514,-3.5496,-3.5346,-3.47,-3.3603,-3.3538,-3.3549,-3.3633,-3.3633,-3.3615,-3.3633,-3.3633,-3.3601,-3.3605,-3.3003,-3.2981,-3.355,-3.3017,-3.2967,-3.355,-3.3385,-3.2893,-3.2165,-3.1211,0.0,0.0,0.0,0.0,0.0,0.0,0.0,0.0,0.0,-3.1674,-3.2377,0.0,-3.3763,0.0,-3.3893,-3.5428,-3.758,-3.8898,0.0,0.0,-4.2606,-4.324,-4.3525,-4.4176,-4.4711,-4.4948,-4.5176,-4.5382,-4.5607,-4.5757,-4.5821,-4.5821,-4.588,-4.5929,-4.5947,-4.5989,-4.603,-4.6051,-4.608,-4.613,-4.6134,-4.6162,-4.6176,-4.6199,-4.6196,-4.6199,-4.6199,-4.5634,-4.5212,-4.5156,-4.464,-4.418,-4.397,-4.395,-4.3612,-4.2625,-4.2343,-4.2046,-4.1187,-4.0992,-4.0992,-3.9796,-3.9227,-3.9562,-3.9126,-3.8184,-3.8201,-3.7603,-3.6643,-3.6626,-3.5952,-3.4841,-3.4553,-3.4209,-3.3897,-3.388,-3.4286,-3.5018,-3.5684,-3.598,-3.6002,-3.6203,-3.6087,-3.5669,-3.5856,-3.5846,-3.5638,-3.5453,-3.551,-3.5773,-3.5585,-3.5308,-3.5001,-3.518,-3.4658,-3.3524,-3.3814,-3.3844,-3.3524,-3.3534,-3.3567,-3.3549,-3.3549,-3.3534,-3.3506,-3.3088,-3.3051,-3.3488,-3.3069,-3.3051,-3.3488,-3.3481,-3.3099,-3.2346,-3.1938,-3.1159,0.0,0.0,0.0,0.0,0.0,0.0,0.0,0.0,0.0,0.0,0.0,-3.5504,0.0,-3.6476,0.0,-3.9646,-4.0896,-4.1965,-4.2886,-4.372,-4.4244,-4.4298,-4.4748,-4.5095,-4.5197,-4.5341,-4.5456,-4.5588,-4.5661,-4.5749,-4.5793,-4.5841,-4.5874,-4.5905,-4.5929,-4.5986,-4.5994,-4.6037,-4.6061,-4.6066,-4.5771,-4.5566,-4.555,-4.5269,-4.5046,-4.5027,-4.4676,-4.4306,-4.4286,-4.3926,-4.362,-4.3601,-4.3616,-4.3375,-4.2666,-4.2388,-4.2031,-4.123,-4.1054,-4.1035,-4.0521,-3.9936,-3.9835,-3.9434,-3.8848,-3.8639,-3.7786,-3.6523,-3.6547,-3.6028,-3.513,-3.455,-3.4307,-3.4327,-3.4349,-3.4715,-3.5403,-3.5419,-3.547,-3.5554,-3.5554,-3.5554,-3.5577,-3.6019,-3.6186,-3.6128,-3.5886,-3.5736,-3.5656,-3.535,-3.4832,-3.4135,-3.4431,-3.4228,-3.3551,-3.4183,-3.4163,-3.3411,-3.3448,-3.3477,-3.3477,-3.3495,-3.3448,-3.3411,-3.3302,-3.3302,-3.3393,-3.3302,-3.3302,-3.3393,-3.3393,-3.3085,-3.2397,-3.2418,-3.2083,0.0,-3.155,0.0,0.0,0.0,0.0,0.0,0.0,0.0,0.0,-3.665,-3.7573,-3.8508,-3.9635,-4.0621,-4.1389,-4.2901,-4.3853,-4.3872,-4.4478,-4.4895,-4.4895,-4.4895,-4.4967,-4.5148,-4.5181,-4.53,-4.5521,-4.5563,-4.5621,-4.573,-4.5759,-4.5787,-4.5861,-4.5873,-4.5892,-4.5969,-4.5889,-4.57,-4.5521,-4.505,-4.4645,-4.4576,-4.4153,-4.3614,-4.3692,-4.3539,-4.3445,-4.3426,-4.3289,-4.3192,-4.3289,-4.3305,-4.3122,-4.2326,-4.2283,-4.2104,-4.134,-4.1093,-4.1108,-4.13,-4.1233,-4.0552,-4.0247,-4.0127,-3.8814,-3.7919,-3.7283,-3.7283,-3.6195,-3.4426,-3.4292,-3.3896,-3.3369,-3.3386,-3.375,-3.446,-3.4477,-3.4796,-3.5344,-3.536,-3.536,-3.5344,-3.5566,-3.5516,-3.5314,-3.5894,-3.5745,-3.492,-3.5414,-3.5292,-3.4588,-3.4659,-3.4408,-3.3928,0.0,0.0,0.0,-3.3426,-3.3422,-3.3408,-3.3408,-3.3426,-3.3375,-3.2759,0.0,-3.3339,-3.2759,-3.2723,-3.3357,-3.3393,0.0,0.0,0.0,0.0,0.0,0.0,0.0,0.0,0.0,0.0,0.0,-3.7186,-3.7683,-3.7943,-3.9335,-4.036,-4.0629,-4.1754,-4.2581,-4.2816,-4.3939,-4.4668,-4.4668,-4.48,-4.4895,-4.4895,-4.4895,-4.4907,-4.4943,-4.5084,-4.5213,-4.5279,-4.539,-4.5484,-4.5613,-4.5618,-4.5685,-4.5787,-4.5827,-4.5834,-4.579,-4.5389,-4.4744,-4.4054,-4.3875,-4.3744,-4.3714,-4.3664,-4.3494,-4.3424,-4.2921,-4.2549,-4.2529,-4.2003,-4.1614,-4.1614,-4.2085,-4.2328,-4.1502,-4.1917,-4.2142,-4.1287,-4.1117,-4.1099,-4.1785,0.0,-4.1072,-4.0536,0.0,-3.9464,-3.8522,-3.727,-3.6928,-3.5769,-3.4113,-3.409,-3.3935,-3.3617,-3.3265,-3.35,-3.4209,-3.4209,-3.441,-3.4778,-3.5124,-3.5308,-3.5291,-3.5008,-3.4762,-3.4614,-3.4678,-3.4267,-3.3429,-3.3915,-3.3804,-3.3078,-3.3261,-3.3266,-3.3086,-3.3119,-3.3257,-3.3393,-3.3393,-3.3393,-3.3393,-3.3393,-3.3393,-3.3375,0.0,0.0,0.0,0.0,0.0,0.0,0.0,0.0,0.0,0.0,0.0,-3.4054,-3.4797,-3.5084,-3.4767,-3.5755,-3.6574,-3.6991,-3.8427,-3.9331,-3.9484,-4.0811,-4.1638,-4.1673,-4.2773,-4.3498,-4.3557,-4.4231,-4.4649,-4.4649,-4.4802,-4.4895,-4.4895,-4.4895,-4.4895,-4.4895,-4.4979,-4.5091,-4.5181,-4.5248,-4.5351,-4.5475,-4.5563,-4.5621,-4.5692,-4.5771,-4.5807,-4.5787,-4.5131,-4.455,-4.4083,-4.3244,-4.3008,-4.3261,-4.2777,-4.2484,-4.2836,-4.2218,-4.1671,-4.1669,-4.1361,-4.1107,-4.1127,-4.1461,-4.1578,-4.1256,-4.1454,-4.1635,-4.1171,-4.1105,-4.1115,-4.234,-4.1773,-4.1496,-4.0746,-3.9713,-3.9928,-3.8891,-3.7052,0.0,0.0,0.0,-3.4087,-3.4072,-3.3879,-3.3434,-3.3484,-3.3941,-3.4058,-3.4058,-3.3974,-3.4843,-3.5155,-3.4988,-3.4448,-3.4102,-3.3946,-3.3388,-3.2655,-3.1846,-3.2209,-3.2049,-3.1389,-3.1658,-3.186,-3.1986,-3.2162,-3.2554,-3.3117,-3.3178,-3.3211,-3.3211,-3.3211,-3.3211,-3.3211,-3.3256,-3.3358,-3.3503,-3.3581,-3.3635,-3.3701,-3.3765,-3.4087,-3.4641,-3.4759,-3.5082,-3.5716,-3.5899,-3.5955,-3.5973,-3.6612,-3.7103,-3.7373,-3.914,-4.0346,-4.0637,-4.1648,-4.2244,-4.2192,-4.3137,-4.3767,-4.3833,-4.4121,-4.4341,-4.4421,-4.4655,-4.4821,-4.4821,-4.4821,-4.4808,-4.4821,-4.4865,-4.4919,-4.508,-4.5125,-4.5194,-4.5341,-4.5438,-4.5563,-4.5605,-4.5715,-4.5729,-4.549,-4.4782,-4.433,-4.4143,-4.3118,-4.2509,-4.3174,-4.2153,-4.1451,-4.1907,-4.1559,-4.1136,-4.1441,-4.1315,-4.1354,-4.1341,-4.1575,-4.1419,-4.1166,-4.1227,-4.125,-4.1148,-4.1228,-4.1302,-4.3367,-4.3184,-4.191,-4.1293,-4.095,-3.9255,-3.798,-3.7003,-3.5661,-3.4608,-3.3862,-3.4492,-3.4061,-3.2945,-3.3437,-3.3404,-3.2962,-3.356,-3.3526,0.0,-3.4323,-3.4638,-3.4024,-3.4022,-3.3678,-3.3112,-3.3093,-3.2404,-3.1264,-3.1758,-3.1694,-3.1076,-3.1018,-3.1218,-3.1511,-3.186,-3.2092,-3.2179,-3.2368,-3.2453,-3.2453,-3.2453,-3.2453,-3.2469,-3.2732,-3.3214,-3.391,-3.422,-3.456,-3.4859,-3.5247,-3.5351,-3.5056,-3.5292,-3.5512,-3.5656,-3.6222,-3.6584,-3.6584,-3.7305,-3.833,-3.9571,-4.0038,-4.0543,-4.1395,-4.2116,-4.2528,-4.2546,-4.2959,-4.3318,-4.3539,-4.3881,-4.4199,-4.4496,-4.4542,-4.457,-4.4589,-4.4659,-4.4621,-4.4578,-4.4659,-4.4757,-4.4846,-4.4927,-4.5067,-4.52,-4.5256,-4.5321,-4.5518,-4.5708,-4.5503,-4.4852,-4.404,-4.3556,-4.3556,-4.2712,-4.2531,-4.3163,-4.2594,-4.1987,-4.2197,-4.1592,-4.1285,-4.193,-4.1937,-4.2007,-4.2032,-4.2763,-4.2374,-4.1458,-4.1555,-4.1851,-4.1347,-4.1677,-4.1925,-4.3615,-4.3482,-4.2423,-4.1744,-4.1259,-3.9123,-3.7781,-3.7069,-3.6406,-3.5678,-3.4998,-3.4949,-3.4518,-3.3928,-3.3846,-3.3624,-3.3315,-3.3232,-3.3011,-3.2768,-3.3398,-3.3547,-3.3249,-3.3261,-3.3134,-3.2802,-3.2851,-3.2523,-3.1957,-3.224,-3.2207,-3.1857,-3.1571,-3.1277,-3.1058,-3.1278,-3.1393,-3.1413,-3.1896,-3.2144,-3.2144,-3.2144,-3.2127,-3.2144,-3.2651,-3.3125,-3.3495,-3.4023,-3.4412,-3.455,-3.4765,-3.4977,-3.5201,-3.5365,-3.574,-3.6399,-3.6792,-3.7095,-3.7342,-3.8026,-3.8941,-4.0053,-4.0499,-4.1072,-4.2032,-4.2411,-4.257,-4.2566,-4.2728,-4.3064,-4.3596,-4.3978,-4.4403,-4.4984,-4.5332,-4.5346,-4.5025,-4.5479,-4.5458,-4.4726,-4.4932,-4.5237,-4.5237,-4.5291,-4.5359,-4.542,-4.5198,-4.5026,-4.5206,-4.5371,-4.5453,-4.5223,-4.4562,-4.4072,-4.3956,-4.3285,-4.315,-4.3866,-4.3305,-4.284,-4.2747,-4.2108,-4.1621,-4.1513,-4.1565,-4.1563,-4.1618,-4.1878,-4.1749,-4.1555,-4.175,-4.2023,-4.1909,-4.2091,-4.2161,-4.3615,-4.3532,-4.2804,-4.2005,-4.1044,-3.9421,-3.8278,-3.7599,-3.7433,-3.7036,-3.6423,-3.5562,-3.5148,-3.5065,-3.4369,-3.3955,-3.3779,-3.3398,-3.3033,-3.2735,-3.2884,-3.2845,-3.268,-3.2553,-3.2553,-3.2652,-3.2531,-3.2514,-3.2685,-3.2685,-3.2685,-3.2619,-3.2071,-3.1465,-3.0937,-3.0836,-3.0814,-3.0871,-3.1545,-3.1868,-3.1768,-3.175,-3.1819,-3.2025,-3.2599,-3.3121,-3.3467,-3.4042,-3.4406,-3.4503,-3.4599,-3.4896,-3.5391,-3.5523,-3.6,-3.6893,-3.6981,-3.726,-3.7899,-3.8577,-3.9362,-4.0262,-4.0812,-4.1489,-4.232,-4.2508,-4.249,-4.2483,-4.2687,-4.3126,-4.3732,-4.424,-4.476,-4.5419,-4.5899,-4.5914,-4.5568,-4.6171,-4.6326,-4.5196,-4.5521,-4.5925,-4.5906,-4.5804,-4.5604,-4.5331,-4.4971,-4.4739,-4.4846,-4.5011,-4.5235,-4.5362,-4.4997,-4.4648,-4.4694,-4.4135,-4.3936,-4.4523,-4.3846,-4.3228,-4.2936,-4.2315,-4.182,-4.132,-4.1257,-4.1359,-4.1302,-4.1349,-4.1424,-4.1493,-4.1932,-4.2422,-4.2919,-4.2529,-4.2344,-4.3615,-4.3482,-4.2804,-4.1723,-4.0531,-4.026,-3.9713,-3.9017,-3.8411,-3.8096,-3.7798,-3.6522,-3.5909,-3.5794,-3.5114,-3.4435,-3.3905,-3.4419,-3.3955,-3.2878,-3.3375,-3.3342,-3.2652,-3.2034,-3.2083,-3.2531,-3.21,-3.2194,-3.2729,-3.2768,-3.2718,-3.2619,-3.1984,-3.1636,-3.1454,-3.0895,-3.0564,-3.0547,-3.1257,-3.1441,-3.1026,-3.1012,-3.1332,-3.2004,-3.2366,-3.3211,-3.4463,-3.4982,-3.533,-3.5728,-3.6022,-3.6115,-3.5904,-3.6115,-3.6336,-3.6464,-3.6361,-3.6817,-3.7978,-3.8772,-3.9691,-4.0838,-4.1036,-4.1446,-4.2198,-4.2328,-4.2328,-4.2435,-4.2986,-4.3524,-4.3879,-4.459,-4.516,-4.5558,-4.5713,-4.5663,-4.59,-4.6007,-4.6111,-4.6325,-4.6411,-4.6617,-4.6483,-4.6035,-4.5448,-4.4908,-4.4637,-4.4508,-4.4637,-4.4714,-4.48,-4.4887,-4.4585,-4.4686,-4.5131,-4.4943,-4.4554,-4.4529,-4.3898,-4.3176,-4.2454,-4.1705,-4.1059,-4.1518,-4.1773,-4.1756,-4.1966,-4.2082,-4.2062,-4.219,-4.2459,-4.2837,-4.3964,-4.3493,-4.2659,-4.3615,-4.3515,-4.2804,-4.1939,-4.0994,-4.0591,-3.9978,-3.9282,-3.9,-3.8609,-3.8153,-3.7582,-3.6837,-3.5976,-3.523,-3.4717,-3.4452,-3.4343,-3.3962,-3.3365,-3.3226,-3.2762,-3.2116,-3.2232,-3.2216,-3.215,-3.2613,-3.3044,-3.3359,-3.3773,-3.3773,-3.3375,-3.3027,-3.268,-3.2266,-3.1951,-3.1785,-3.1802,-3.21,-3.2144,-3.1981,-3.1969,-3.2102,-3.244,-3.2954,-3.3493,-3.4175,-3.4773,-3.5138,-3.5322,-3.5464,-3.5487,-3.5316,-3.5436,-3.5644,-3.5924,-3.6535,-3.7275,-3.823,-3.8994,-3.9655,-4.0185,-4.0922,-4.1478,-4.1803,-4.2124,-4.2308,-4.2415,-4.3036,-4.3724,-4.4298,-4.5032,-4.5742,-4.6269,-4.6581,-4.6565,-4.6194,-4.6909,-4.7187,-4.6462,-4.6834,-4.7076,-4.6589,-4.5929,-4.5379,-4.4931,-4.4595,-4.4244,-4.4294,-4.4383,-4.4481,-4.4471,-4.4139,-4.4321,-4.5074,-4.5312,-4.4932,-4.4519,-4.4262,-4.3666,-4.2254,-4.1816,-4.1564,-4.1427,-4.1427,-4.1664,-4.2017,-4.2183,-4.2251,-4.2714,-4.3505,-4.4044,-4.5274,-4.4471,-4.3776,-4.3615,-4.3515,-4.3002,-4.2357,-4.1662,-4.1193,-4.0459,-3.9647,-3.9613,-3.9172,-3.851,-3.8311,-3.7649,-3.6572,-3.5644,-3.5098,-3.4849,-3.4336,-3.4087,-3.4005,-3.3326,-3.2613,-3.2017,-3.2216,-3.2133,-3.1879,-3.2862,-3.3696,-3.4087,-3.4618,-3.4618,-3.4137,-3.3912,-3.3547,-3.3027,-3.2851,-3.2685,-3.2702,-3.2862,-3.3017,-3.3033,-3.3216,-3.3216,-3.3061,-3.3491,-3.3889,-3.4104,-3.4601,-3.4899,-3.4923,-3.4899,-3.4899,-3.4899,-3.4899,-3.5131,-3.5715,-3.6678,-3.7644,-3.8477,-3.9271,-3.9787,-4.0002,-4.0833,-4.1293,-4.1401,-4.177,-4.2061,-4.2153,-4.3113,-4.4068,-4.4549,-4.5534,-4.6373,-4.6949,-4.7209,-4.7111,-4.6789,-4.7642,-4.7715,-4.6819,-4.7369,-4.7523,-4.6645,-4.5823,-4.5226,-4.4857,-4.4373,-4.4005,-4.4005,-4.4128,-4.4222,-4.4222,-4.3914,-4.4008,-4.4611,-4.4538,-4.4427,-4.3874,-4.3439,-4.2999,-4.187,-4.1593,-4.1477,-4.0863,-4.0872,-4.1168,-4.1781,-4.2047,-4.2654,-4.3511,-4.4273,-4.4912,-4.5551,-4.4975,-4.4534,-4.3615,-4.3582,-4.3565,-4.3102,-4.244,-4.2357,-4.1607,-4.0442,-4.0343,-3.9928,-3.9216,-3.8543,-3.8153,-3.7904,-3.6605,-3.5578,-3.4965,-3.4833,-3.48,-3.4767,-3.4087,-3.3381,-3.2636,-3.1979,-3.1681,-3.1763,-3.2531,-3.3557,-3.475,-3.4866,-3.4883,-3.48,-3.417,-3.3806,-3.3673,-3.3166,-3.2729,-3.2934,-3.3442,-3.374,-3.3822,-3.4419,-3.4369,-3.3822,-3.3789,-3.4154,-3.4717,-3.4866,-3.4899,-3.4899,-3.4899,-3.4899,-3.4899,-3.4899,-3.5205,-3.5983,-3.668,-3.7644,-3.8761,-3.952,-4.0109,-4.0573,-4.0709,-4.0825,-4.0832,-4.1248,-4.1534,-4.1534,-4.3288,-4.447,-4.4684,-4.5922,-4.6819,-4.6962,-4.7002,-4.7147,-4.7374,-4.7464,-4.7687,-4.7735,-4.7883,-4.7536,-4.6593,-4.5788,-4.4936,-4.4361,-4.4061,-4.4005,-4.4005,-4.402,-4.4036,-4.403,-4.3998,-4.4065,-4.3655,-4.3678,-4.2909,-4.2336,-4.2277,-4.1656,-4.091,-4.0364,-4.0372,-4.0592,-4.1078,-4.1453,-4.1707,-4.2319,-4.3225,-4.4042,-4.4789,-4.5441,-4.5549,-4.4939,-4.4569,-4.3096,-4.3598,-4.3615,-4.3433,-4.3168,-4.2704,-4.222,-4.1674,-4.0763,-4.0276,-3.9912,-3.9206,-3.8642,-3.8153,-3.7656,-3.6754,-3.5628,-3.5114,-3.5131,-3.5462,-3.4833,-3.4352,-3.4054,-3.3359,-3.2746,-3.2464,-3.3061,-3.3905,-3.4783,-3.4899,-3.4899,-3.4883,-3.4651,-3.4502,-3.4475,-3.426,-3.4087,-3.4144,-3.4402,-3.4502,-3.4485,-3.4767,-3.475,-3.4518,-3.4502,-3.4634,-3.4899,-3.4899,-3.4899,-3.4899,-3.4899,-3.4899,-3.4899,-3.4899,-3.5462,-3.6555,-3.697,-3.7692,-3.8946,-3.9389,-3.9635,-3.9825,-4.012,-4.0277,-4.0375,-4.0737,-4.1059,-4.1412,-4.2956,-4.4092,-4.4496,-4.5853,-4.6998,-4.6998,-4.6998,-4.7025,-4.7183,-4.7377,-4.7554,-4.7542,-4.7113,-4.6434,-4.6099,-4.5041,-4.42,-4.4048,-4.4005,-4.3989,-4.4005,-4.4005,-4.4005,-4.3801,-4.3193,-4.2518,-4.2375,-4.2976,-4.2959,-4.2175,-4.1688,-4.1113,-4.0444,-4.0195,-4.0166,-4.0882,-4.1418,-4.2116,-4.2508,-4.3522,-4.4308,-4.4585,-4.5332,-4.5294,-4.5362,-4.4939,-4.4787,-4.2221,-4.2787,-4.2834,-4.2849,-4.2878,-4.2374,-4.2032,-4.1738,-4.0808,-4.0254,-3.9973,-3.9532,-3.9024,-3.8558,-3.8322,-3.7715,-3.6655,-3.5727,-3.5661,-3.6257,-3.5611,-3.5131,-3.4849,-3.4386,-3.364,-3.295,-3.3448,-3.417,-3.4816,-3.4899,-3.4899,-3.4899,-3.4899,-3.4899,-3.4899,-3.4899,-3.4899,-3.4899,-3.4899,-3.4899,-3.4899,-3.4899,-3.4899,-3.4899,-3.4899,-3.4899,-3.4899,-3.4899,-3.4899,-3.4899,-3.4899,-3.4899,-3.4916,-3.5114,-3.581,-3.6936,-3.735,-3.798,-3.9083,-3.9315,-3.9299,-3.9299,-3.9582,-3.9782,-3.9791,-4.0228,-4.0514,-4.0951,-4.2389,-4.3622,-4.4014,-4.5494,-4.6801,-4.6934,-4.6998,-4.6998,-4.702,-4.7223,-4.7381,-4.7295,-4.6325,-4.5729,-4.5608,-4.4379,-4.3781,-4.3828,-4.3876,-4.3894,-4.3989,-4.4005,-4.3856,-4.3596,-4.2797,-4.2158,-4.1771,-4.2026,-4.1782,-4.1047,-4.0915,-4.0428,-4.0304,-4.0086,-4.0383,-4.1128,-4.1911,-4.2722,-4.3649,-4.4683,-4.5086,-4.5231,-4.5169,-4.5107,-4.5094,-4.509,-4.4965,-4.1049,-4.1313,-4.1213,-4.1461,-4.1592,-4.1577,-4.1099,-4.0657,-4.0435,-4.004,-3.9547,-3.9333,-3.9227,-3.9068,-3.8466,-3.813,-3.7699,-3.6503,-3.6282,-3.6878,-3.6208,-3.5489,-3.491,-3.469,-3.402,-3.291,-3.3508,-3.4203,-3.4866,-3.4982,-3.4998,-3.4916,-3.4965,-3.5024,-3.4949,-3.4925,-3.4892,-3.4941,-3.4941,-3.4875,-3.4899,-3.4875,-3.4875,-3.4875,-3.4875,-3.4875,-3.4899,-3.4899,-3.4899,-3.4899,-3.4899,-3.4899,-3.5081,-3.5611,-3.6373,-3.7135,-3.7772,-3.8493,-3.9183,-3.9315,-3.9299,-3.9199,-3.9292,-3.9302,-3.9292,-3.968,-4.0011,-4.035,-4.1757,-4.3019,-4.3327,-4.4896,-4.6339,-4.6888,-4.6911,-4.6998,-4.6934,-4.698,-4.7116,-4.7147,-4.6083,-4.5343,-4.5179,-4.4199,-4.3376,-4.3512,-4.3647,-4.373,-4.3892,-4.3974,-4.367,-4.3095,-4.2537,-4.2036,-4.1479,-4.095,-4.023,-3.9634,-3.9758,-3.9669,-3.9993,-3.9998,-4.0649,-4.1395,-4.2401,-4.3219,-4.3905,-4.4818,-4.4884,-4.4979,-4.49,-4.4924,-4.4948,-4.4972,-4.5003,-4.0932,-4.0966,-4.0999,-4.1015,-4.1098,-4.1098,-4.0941,-4.0722,-4.0364,-4.0036,-3.9817,-3.947,-3.9085,-3.8716,-3.84,-3.8085,-3.7584,-3.6657,-3.6551,-3.6799,-3.5938,-3.5286,-3.4942,-3.4177,-3.3709,-3.3787,-3.4277,-3.4651,-3.4932,-3.5379,-3.5429,-3.5041,-3.5299,-3.5506,-3.5374,-3.4947,-3.4816,-3.5276,-3.4881,-3.4618,-3.4618,-3.4618,-3.4618,-3.4635,-3.4618,-3.4667,-3.4756,-3.4851,-3.4899,-3.4899,-3.4899,-3.5131,-3.5678,-3.6357,-3.706,-3.7781,-3.8037,-3.8526,-3.9183,-3.9282,-3.9056,-3.8748,-3.8867,-3.884,-3.856,-3.899,-3.9518,-3.9999,-4.1369,-4.2434,-4.3088,-4.4289,-4.5459,-4.6094,-4.6661,-4.6819,-4.6566,-4.6637,-4.6842,-4.6932,-4.5742,-4.5012,-4.4881,-4.3859,-4.3031,-4.3268,-4.3442,-4.3612,-4.3714,-4.3844,-4.367,-4.2983,-4.2463,-4.1765,-4.1007,-4.0391,-3.9793,-3.9551,-3.96,-3.9492,-3.9743,-4.0349,-4.0974,-4.1801,-4.2822,-4.3613,-4.4301,-4.4646,-4.4738,-4.4802,-4.4821,-4.4858,-4.4883,-4.4895,-4.4926,-3.9919,-4.0004,-4.0004,-4.0074,-4.0109,-4.0143,-4.0093,-4.0097,-3.9768,-3.9619,-3.953,-3.9327,-3.8869,-3.8388,-3.8355,-3.8019,-3.7399,-3.6896,-3.6729,-3.6697,-3.6013,-3.5551,-3.5353,-3.4181,-3.3726,-3.4034,-3.4207,-3.4391,-3.4627,-3.4997,-3.5062,-3.4945,-3.5169,-3.516,-3.4994,-3.4478,-3.4361,-3.4433,-3.406,-3.3818,-3.3818,-3.3834,-3.3818,-3.386,-3.4052,-3.4348,-3.4667,-3.4988,-3.5068,-3.4991,-3.5083,-3.5547,-3.6182,-3.6907,-3.756,-3.7939,-3.8302,-3.8649,-3.9071,-3.9094,-3.8929,-3.8572,-3.8722,-3.8925,-3.8777,-3.9155,-3.9609,-4.036,-4.1347,-4.2166,-4.2649,-4.3738,-4.4616,-4.4903,-4.5835,-4.6315,-4.6211,-4.6332,-4.6495,-4.6359,-4.5386,-4.4777,-4.4428,-4.3576,-4.2725,-4.2976,-4.316,-4.3355,-4.3443,-4.358,-4.3185,-4.2657,-4.1952,-4.1194,-4.0367,-3.9833,-3.9384,-3.9524,-3.9793,-3.9649,-3.9671,-4.0598,-4.1372,-4.2343,-4.3324,-4.3807,-4.444,-4.4537,-4.4632,-4.4685,-4.4712,-4.4738,-4.4745,-4.4796,-4.484,-3.8315,-3.8478,-3.8478,-3.8686,-3.8841,-3.8855,-3.8877,-3.8804,-3.8848,-3.884,-3.8867,-3.9013,-3.8735,-3.8249,-3.8134,-3.7794,-3.7363,-3.7008,-3.662,-3.6315,-3.6021,-3.5898,-3.5519,-3.4406,-3.3928,-3.3932,-3.3514,-3.3501,-3.3942,-3.4076,-3.4149,-3.4562,-3.4568,-3.4288,-3.4056,-3.368,-3.3562,-3.3282,-3.3033,-3.3002,-3.2908,-3.2834,-3.2861,-3.2888,-3.3308,-3.384,-3.4478,-3.4843,-3.5136,-3.5101,-3.5679,-3.6229,-3.6708,-3.7353,-3.7832,-3.7859,-3.8395,-3.8636,-3.8767,-3.8827,-3.8761,-3.8614,-3.869,-3.9056,-3.9432,-3.9596,-4.012,-4.0896,-4.1589,-4.2012,-4.2315,-4.3131,-4.376,-4.381,-4.4848,-4.5606,-4.607,-4.6161,-4.6235,-4.6055,-4.517,-4.4372,-4.4417,-4.3241,-4.267,-4.2659,-4.2742,-4.2807,-4.2976,-4.2978,-4.2704,-4.2171,-4.1519,-4.0891,-4.0157,-3.9508,-3.9207,-3.99,-4.0253,-4.0434,-4.0444,-4.1337,-4.2043,-4.2977,-4.3562,-4.4031,-4.4314,-4.4397,-4.4468,-4.4496,-4.4537,-4.4565,-4.4619,-4.4672,-4.4738,-3.8225,-3.8277,-3.8277,-3.8315,-3.8352,-3.8352,-3.8389,-3.8389,-3.8553,-3.8575,-3.8627,-3.8788,-3.8513,-3.7903,-3.7454,-3.691,-3.6396,-3.5851,-3.5595,-3.5493,-3.5336,-3.4845,-3.4288,-3.3713,-3.3411,-3.3347,-3.2994,-3.2917,-3.3082,-3.3491,-3.3792,-3.3957,-3.4288,-3.4439,-3.4341,-3.4045,-3.4074,-3.3959,-3.3887,-3.3519,-3.3088,-3.3057,-3.3144,-3.3141,-3.2874,-3.3119,-3.3701,-3.3585,-3.4434,-3.6095,-3.6835,-3.7242,-3.737,-3.7992,-3.8204,-3.7975,-3.8352,-3.8559,-3.8281,-3.8515,-3.8515,-3.8117,-3.8449,-3.8737,-3.8933,-3.9471,-4.0261,-4.1162,-4.1743,-4.2036,-4.2398,-4.2782,-4.308,-4.3456,-4.4282,-4.5081,-4.5572,-4.5819,-4.5988,-4.6039,-4.5297,-4.4853,-4.4384,-4.3626,-4.2675,-4.2646,-4.2498,-4.2308,-4.2582,-4.2638,-4.2462,-4.1851,-4.1229,-4.0646,-4.0,-3.9319,-3.9305,-4.0205,-4.0884,-4.1612,-4.1924,-4.2683,-4.3221,-4.3794,-4.3769,-4.4094,-4.4162,-4.4222,-4.4266,-4.4344,-4.4416,-4.4454,-4.4496,-4.4551,-4.4619,-3.8202,-3.8202,-3.8202,-3.8202,-3.8202,-3.8202,-3.8202,-3.824,-3.8329,-3.8366,-3.8427,-3.859,-3.8282,-3.768,-3.739,-3.6748,-3.5908,-3.551,-3.5281,-3.5067,-3.4971,-3.467,-3.409,-3.3486,-3.3051,-3.296,-3.2346,-3.2188,-3.2367,-3.2764,-3.2987,-3.3196,-3.3519,-3.3534,-3.314,-3.3206,-3.3017,-3.284,-3.2961,-3.2811,-3.2239,-3.242,-3.233,-3.2268,-3.2033,-3.2422,-3.3283,-3.3454,-3.4258,-3.5482,-3.6114,-3.668,-3.7519,-3.791,-3.8106,-3.7992,-3.8205,-3.8092,-3.8105,-3.8205,-3.8132,-3.8072,-3.8365,-3.8825,-3.9332,-3.9836,-4.0586,-4.1806,-4.2048,-4.2291,-4.2504,-4.2602,-4.2711,-4.3035,-4.3693,-4.4395,-4.5064,-4.5258,-4.5485,-4.5561,-4.5291,-4.4701,-4.4474,-4.3635,-4.3156,-4.2786,-4.2538,-4.2414,-4.2395,-4.2332,-4.2072,-4.1381,-4.0723,-4.0077,-3.942,-3.8756,-3.9106,-4.0044,-4.1467,-4.2271,-4.2767,-4.3428,-4.3615,-4.3801,-4.3931,-4.4005,-4.4051,-4.4082,-4.4113,-4.4192,-4.4266,-4.4325,-4.4368,-4.4416,-4.4468,-3.826,-3.8202,-3.8202,-3.8202,-3.8202,-3.8202,-3.8202,-3.8202,-3.8202,-3.824,-3.824,-3.8404,-3.8186,-3.758,-3.7593,-3.7084,-3.609,-3.5835,-3.5335,-3.5012,-3.482,-3.4692,-3.4339,-3.3404,-3.2935,-3.2654,-3.1618,-3.1425,-3.1623,-3.1667,-3.1912,-3.2292,-3.2379,-3.209,-3.2018,-3.1796,-3.1338,-3.1305,-3.1946,-3.1977,-3.1553,-3.1743,-3.1772,-3.1526,-3.1694,-3.215,-3.3026,-3.3655,-3.428,-3.4376,-3.4485,-3.5641,-3.6998,-3.723,-3.7419,-3.7769,-3.7581,-3.7677,-3.7876,-3.7523,-3.7682,-3.8084,-3.827,-3.9007,-4.0008,-4.0413,-4.0996,-4.2327,-4.2586,-4.2538,-4.257,-4.2602,-4.2634,-4.2743,-4.305,-4.3617,-4.4299,-4.4597,-4.4835,-4.523,-4.4863,-4.4331,-4.3906,-4.3714,-4.3664,-4.294,-4.2614,-4.2323,-4.2146,-4.1956,-4.1466,-4.0726,-4.0055,-3.9437,-3.8772,-3.8115,-3.8906,-3.9859,-4.1667,-4.2718,-4.2954,-4.34,-4.3537,-4.3689,-4.3912,-4.4005,-4.4005,-4.402,-4.4005,-4.4036,-4.4147,-4.4177,-4.4207,-4.4237,-4.4296,-3.8681,-3.8202,-3.8202,-3.8202,-3.8202,-3.8202,-3.8202,-3.8202,-3.8202,-3.8202,-3.8202,-3.824,-3.819,-3.803,-3.7645,-3.7208,-3.6778,-3.6012,-3.5146,-3.4607,-3.4683,-3.4328,-3.3842,-3.3103,-3.2581,-3.2008,-3.117,-3.0821,-3.0881,-3.0999,-3.113,-3.1648,-3.1679,-3.163,-3.1539,-3.1803,-3.1942,-3.1613,-3.2353,-3.2469,-3.199,-3.2019,-3.2077,-3.192,-3.2088,-3.2035,-3.2041,-3.2559,-3.315,-3.3728,-3.4586,-3.5497,-3.6418,-3.7024,-3.6929,-3.6568,-3.6985,-3.6957,-3.6372,-3.688,-3.7431,-3.7594,-3.8088,-3.8991,-4.0302,-4.0499,-4.1179,-4.2246,-4.2602,-4.2602,-4.2602,-4.2602,-4.2602,-4.2634,-4.2743,-4.2988,-4.3515,-4.3927,-4.4344,-4.4657,-4.4729,-4.4531,-4.4181,-4.4111,-4.3806,-4.3165,-4.2722,-4.2306,-4.2031,-4.1835,-4.1168,-4.055,-3.9896,-3.9332,-3.8788,-3.8378,-3.9048,-3.9881,-4.1532,-4.2755,-4.2996,-4.3277,-4.3391,-4.3661,-4.3968,-4.3974,-4.3846,-4.391,-4.3876,-4.3942,-4.3958,-4.3942,-4.3942,-4.4005,-4.4005,-3.8812,-3.8217,-3.8202,-3.8202,-3.8202,-3.8202,-3.8202,-3.8202,-3.8202,-3.8202,-3.8202,-3.8202,-3.8202,-3.8188,-3.7868,-3.7593,-3.7041,-3.6002,-3.5058,-3.4564,-3.4471,-3.4006,-3.3155,-3.2736,-3.2305,-3.1649,-3.0947,-3.0641,-3.0612,-3.0627,-3.0788,-3.1047,-3.1076,-3.108,-3.1076,-3.1467,-3.1368,-3.125,-3.199,-3.2237,-3.1729,-3.1917,-3.1845,-3.1772,-3.1859,-3.1814,-3.1629,-3.215,-3.2806,-3.3463,-3.4168,-3.4969,-3.5738,-3.6211,-3.6134,-3.6106,-3.603,-3.6415,-3.6137,-3.6184,-3.6554,-3.6952,-3.755,-3.8626,-3.9729,-4.0284,-4.1191,-4.2185,-4.2602,-4.2602,-4.2602,-4.2602,-4.2602,-4.2602,-4.2602,-4.2728,-4.3005,-4.3383,-4.3856,-4.4214,-4.4367,-4.4211,-4.4104,-4.4179,-4.4216,-4.3699,-4.3654,-4.3256,-4.297,-4.2618,-4.1492,-4.0741,-3.9993,-3.9356,-3.8835,-3.8807,-3.9317,-4.0159,-4.1253,-4.2185,-4.2641,-4.2923,-4.3194,-4.3423,-4.356,-4.3597,-4.3531,-4.3614,-4.3664,-4.3599,-4.3565,-4.3615,-4.3649,-4.3615,-4.3599,-3.8812,-3.8202,-3.8202,-3.8202,-3.8202,-3.8202,-3.8202,-3.8202,-3.8202,-3.8202,-3.8202,-3.8202,-3.8202,-3.8188,-3.8188,-3.7854,-3.7157,-3.6359,-3.5503,-3.4748,-3.4675,-3.3997,-3.3079,-3.26,-3.2179,-3.1511,-3.0872,-3.0627,-3.0612,-3.0612,-3.0656,-3.0641,-3.0627,-3.0714,-3.0656,-3.0627,-3.083,-3.1003,-3.1613,-3.1772,-3.1322,-3.1598,-3.1526,-3.1177,-3.1555,-3.1946,-3.2106,-3.2629,-3.3198,-3.3721,-3.3794,-3.4357,-3.4982,-3.5355,-3.5446,-3.6026,-3.5659,-3.5629,-3.5711,-3.5676,-3.58,-3.6351,-3.703,-3.8072,-3.925,-4.0007,-4.0767,-4.1662,-4.2174,-4.2397,-4.2571,-4.2602,-4.2602,-4.2602,-4.2602,-4.2602,-4.2665,-4.2958,-4.3383,-4.3781,-4.3893,-4.3764,-4.3861,-4.3952,-4.4131,-4.4267,-4.4242,-4.4165,-4.3829,-4.3103,-4.1885,-4.0873,-4.0095,-3.9361,-3.879,-3.9077,-3.9608,-4.0123,-4.1077,-4.1595,-4.2101,-4.2223,-4.2446,-4.2829,-4.2996,-4.3087,-4.3214,-4.3321,-4.3303,-4.3214,-4.3269,-4.3375,-4.3358,-4.3233,-4.3232,-3.8812,-3.8202,-3.8202,-3.8202,-3.8202,-3.8202,-3.8202,-3.8202,-3.8202,-3.8202,-3.8202,-3.8202,-3.8202,-3.8202,-3.8202,-3.7854,-3.7317,-3.6809,-3.6228,-3.5392,-3.516,-3.4477,-3.3456,-3.2716,-3.2179,-3.1511,-3.0901,-3.0612,-3.0612,-3.0612,-3.0612,-3.0612,-3.0612,-3.0612,-3.0612,-3.0641,-3.0859,-3.125,-3.1816,-3.2004,-3.2092,-3.2179,-3.2092,-3.1613,-3.2179,-3.2701,-3.3209,-3.3761,-3.4399,-3.5,-3.5058,-3.518,-3.5373,-3.5436,-3.527,-3.5085,-3.5276,-3.5338,-3.5108,-3.5309,-3.5711,-3.6366,-3.7008,-3.7977,-3.9023,-3.9583,-4.015,-4.0743,-4.1459,-4.1868,-4.2539,-4.2349,-4.2492,-4.2539,-4.2492,-4.2492,-4.2523,-4.2711,-4.2943,-4.3353,-4.336,-4.3426,-4.3564,-4.372,-4.3894,-4.3997,-4.4024,-4.4133,-4.4051,-4.3108,-4.1891,-4.0985,-4.0187,-3.9451,-3.8748,-3.9306,-3.9801,-4.0019,-4.0659,-4.0989,-4.1373,-4.1373,-4.16,-4.2077,-4.2501,-4.2714,-4.2846,-4.292,-4.2939,-4.2825,-4.2994,-4.316,-4.3013,-4.2863,-4.3031,-3.9088,-3.8231,-3.8202,-3.8202,-3.8202,-3.8202,-3.8202,-3.8202,-3.8202,-3.8202,-3.8202,-3.8202,-3.8202,-3.8202,-3.8202,-3.7868,-3.7447,-3.7302,-3.6736,-3.5952,-3.5523,-3.4942,-3.3877,-3.3006,-3.2147,-3.1511,-3.0916,-3.0627,-3.0612,-3.0612,-3.0612,-3.0612,-3.0612,-3.0612,-3.0612,-3.0627,-3.0959,-3.1496,-3.1872,-3.2251,-3.2571,-3.2817,-3.2759,-3.2861,-3.3427,-3.4143,-3.4506,-3.5053,-3.5503,-3.5764,-3.5836,-3.5851,-3.5854,-3.5804,-3.5575,-3.5166,-3.5234,-3.532,-3.5083,-3.5487,-3.5898,-3.5937,-3.6767,-3.7781,-3.8659,-3.9191,-3.9614,-4.0224,-4.0554,-4.0995,-4.1229,-4.1362,-4.1262,-4.1262,-4.1542,-4.1852,-4.1997,-4.2317,-4.2601,-4.2834,-4.2911,-4.3043,-4.3287,-4.3456,-4.3647,-4.3719,-4.3766,-4.3938,-4.414,-4.3081,-4.1859,-4.13,-4.0587,-4.0128,-3.9583,-3.9899,-4.0146,-4.0284,-4.0422,-4.0774,-4.0918,-4.1041,-4.1163,-4.1423,-4.1803,-4.2221,-4.2195,-4.2172,-4.2313,-4.2436,-4.2454,-4.2494,-4.2516,-4.2575,-4.2691,-3.932,-3.8391,-3.8246,-3.8202,-3.8202,-3.8202,-3.8202,-3.8202,-3.8202,-3.8202,-3.8202,-3.8202,-3.8202,-3.8202,-3.8159,-3.7941,-3.7491,-3.7506,-3.7128,-3.6562,-3.6098,-3.543,-3.4457,-3.3499,-3.2553,-3.183,-3.1163,-3.0698,-3.0612,-3.0612,-3.0612,-3.0612,-3.0612,-3.0714,-3.0771,-3.0903,-3.1192,-3.1729,-3.2046,-3.244,-3.305,-3.3441,-3.3779,-3.3896,-3.4869,-3.5348,-3.5537,-3.588,-3.6257,-3.6431,-3.6504,-3.6519,-3.6519,-3.6504,-3.6272,-3.5886,-3.5697,-3.5595,-3.5712,-3.5944,-3.6131,-3.6152,-3.6787,-3.7585,-3.8197,-3.8775,-3.9239,-3.9929,-4.0069,-4.0124,-4.0213,-4.0109,-4.0074,-4.0109,-4.0557,-4.0964,-4.1147,-4.1461,-4.1949,-4.219,-4.2381,-4.2647,-4.2919,-4.307,-4.3221,-4.3547,-4.3602,-4.3791,-4.3833,-4.2919,-4.1952,-4.1546,-4.1086,-4.0854,-4.0625,-4.0737,-4.0778,-4.0647,-4.0705,-4.086,-4.0894,-4.0918,-4.1018,-4.1117,-4.1232,-4.1574,-4.1498,-4.1582,-4.1849,-4.1959,-4.187,-4.1874,-4.2044,-4.2107,-4.2169,-3.9218,-3.903,-3.8449,-3.8202,-3.8202,-3.8202,-3.8202,-3.8202,-3.8202,-3.8202,-3.8202,-3.8202,-3.8202,-3.8202,-3.8202,-3.8144,-3.8072,-3.797,-3.7694,-3.7201,-3.6939,-3.6315,-3.5348,-3.4559,-3.3423,-3.2527,-3.1758,-3.1105,-3.0801,-3.067,-3.0612,-3.0612,-3.0656,-3.0859,-3.1235,-3.1264,-3.2063,-3.3097,-3.3746,-3.4327,-3.4796,-3.4588,-3.4748,-3.5101,-3.5479,-3.5842,-3.6243,-3.6519,-3.6693,-3.7143,-3.7186,-3.7186,-3.7201,-3.7201,-3.7172,-3.6925,-3.6606,-3.6199,-3.6243,-3.6446,-3.6635,-3.678,-3.7222,-3.7615,-3.8017,-3.8154,-3.8472,-3.9073,-3.9052,-3.9145,-3.9454,-3.9688,-3.9758,-3.9688,-3.9723,-3.9934,-4.0109,-4.0693,-4.1196,-4.1542,-4.1754,-4.2174,-4.2522,-4.2679,-4.282,-4.3141,-4.3426,-4.3604,-4.3431,-4.249,-4.1708,-4.1218,-4.1093,-4.0917,-4.0847,-4.1074,-4.1006,-4.0855,-4.0817,-4.0823,-4.0894,-4.0894,-4.0894,-4.0989,-4.1059,-4.1129,-4.1244,-4.1363,-4.1538,-4.1582,-4.1542,-4.1587,-4.1653,-4.1692,-4.1762,-3.8289,-3.9146,-3.8478,-3.8202,-3.8202,-3.8202,-3.8202,-3.8202,-3.8202,-3.8202,-3.8202,-3.8202,-3.8202,-3.8202,-3.8202,-3.8202,-3.8202,-3.8165,-3.8086,-3.7701,-3.7425,-3.6976,-3.6257,-3.5125,-3.3978,-3.3529,-3.2585,-3.1743,-3.125,-3.0845,-3.0612,-3.0627,-3.0656,-3.0917,-3.1613,-3.1524,-3.2527,-3.3761,-3.4893,-3.559,-3.5851,-3.5996,-3.6156,-3.646,-3.6751,-3.7041,-3.723,-3.7389,-3.7476,-3.781,-3.781,-3.781,-3.781,-3.781,-3.781,-3.7781,-3.7578,-3.7244,-3.6983,-3.7186,-3.7317,-3.7301,-3.7496,-3.7731,-3.7834,-3.7801,-3.7815,-3.8173,-3.815,-3.8248,-3.8368,-3.8391,-3.8316,-3.8376,-3.8803,-3.8949,-3.9203,-3.9879,-4.0401,-4.0777,-4.1129,-4.1525,-4.1916,-4.2093,-4.2254,-4.2539,-4.2663,-4.2724,-4.2528,-4.1926,-4.1244,-4.0675,-4.0731,-4.0819,-4.0787,-4.0865,-4.0722,-4.0567,-4.0502,-4.0558,-4.0823,-4.0894,-4.0823,-4.0847,-4.0959,-4.1012,-4.1041,-4.1088,-4.1221,-4.1267,-4.1312,-4.134,-4.1408,-4.156,-4.1626,-3.7382,-3.8467,-3.8083,-3.7886,-3.7924,-3.8127,-3.8202,-3.8202,-3.8202,-3.8202,-3.8127,-3.8,-3.7962,-3.8089,-3.7962,-3.7772,-3.7848,-3.7886,-3.7886,-3.7713,-3.7506,-3.724,-3.6794,-3.5749,-3.5053,-3.4612,-3.3862,-3.305,-3.2396,-3.1888,-3.16,-3.0888,-3.0932,-3.1366,-3.1903,-3.2469,-3.3398,-3.5212,-3.6083,-3.6577,-3.6852,-3.7259,-3.7404,-3.7622,-3.7926,-3.8202,-3.8202,-3.8144,-3.8159,-3.8159,-3.8144,-3.8115,-3.813,-3.8115,-3.8092,-3.804,-3.7901,-3.7748,-3.7575,-3.767,-3.7808,-3.7705,-3.7592,-3.7706,-3.7634,-3.7586,-3.7534,-3.7596,-3.7519,-3.7419,-3.7303,-3.7327,-3.7352,-3.7529,-3.7706,-3.7881,-3.8153,-3.8855,-3.9382,-3.9703,-4.0124,-4.0724,-4.1093,-4.1392,-4.1671,-4.1916,-4.1948,-4.1949,-4.1674,-4.133,-4.0778,-4.0249,-4.0369,-4.0417,-4.0221,-4.0251,-4.021,-4.0222,-4.0121,-4.0188,-4.0353,-4.0566,-4.0631,-4.0704,-4.0793,-4.0935,-4.0989,-4.0942,-4.0894,-4.1012,-4.1105,-4.1111,-4.118,-4.134,-4.1453,-3.6675,-3.6784,-3.69,-3.6975,-3.7053,-3.7886,-3.8165,-3.8089,-3.8127,-3.8037,-3.7848,-3.7453,-3.7491,-3.772,-3.7285,-3.6961,-3.6975,-3.6975,-3.7014,-3.7,-3.693,-3.6964,-3.6762,-3.6539,-3.6115,-3.5342,-3.4577,-3.4266,-3.4105,-3.3298,-3.2605,-3.1729,-3.1751,-3.2365,-3.3166,-3.3964,-3.4965,-3.6402,-3.7099,-3.7447,-3.7738,-3.8014,-3.8043,-3.8072,-3.8159,-3.8202,-3.8202,-3.8202,-3.8165,-3.8165,-3.8165,-3.8127,-3.8089,-3.8089,-3.8028,-3.7953,-3.7915,-3.7753,-3.7686,-3.7838,-3.7956,-3.7872,-3.7711,-3.7572,-3.751,-3.7394,-3.7341,-3.7303,-3.7226,-3.7095,-3.7056,-3.7017,-3.7017,-3.7095,-3.7275,-3.7299,-3.7567,-3.7796,-3.8294,-3.8613,-3.9109,-3.9718,-4.0274,-4.0566,-4.1207,-4.1507,-4.1607,-4.1559,-4.1247,-4.0886,-4.0345,-3.9959,-4.0029,-3.9874,-3.9386,-3.9412,-3.9681,-3.9591,-3.9425,-3.9549,-3.9756,-3.9978,-4.0221,-4.0436,-4.0493,-4.0704,-4.0894,-4.0871,-4.0871,-4.0871,-4.0918,-4.0989,-4.1012,-4.1105,-4.118,-3.4458,-3.4517,-3.5112,-3.5655,-3.6094,-3.6464,-3.6922,-3.7246,-3.683,-3.6582,-3.6674,-3.6805,-3.6766,-3.6596,-3.6385,-3.6108,-3.6122,-3.6108,-3.6108,-3.6108,-3.6146,-3.6154,-3.6139,-3.5948,-3.5388,-3.5017,-3.4646,-3.4029,-3.3387,-3.3729,-3.3223,-3.2584,-3.292,-3.3767,-3.4646,-3.5334,-3.6411,-3.7034,-3.7614,-3.8014,-3.8086,-3.8202,-3.8202,-3.8202,-3.8202,-3.8202,-3.8202,-3.8202,-3.8127,-3.8028,-3.8028,-3.7953,-3.7877,-3.7863,-3.7801,-3.7739,-3.7701,-3.7663,-3.7625,-3.7725,-3.7725,-3.7572,-3.7457,-3.738,-3.7303,-3.7148,-3.7148,-3.7095,-3.7056,-3.6978,-3.6978,-3.6978,-3.6978,-3.6978,-3.6978,-3.6978,-3.7095,-3.7366,-3.7596,-3.8046,-3.8308,-3.8716,-3.9262,-3.9743,-4.0459,-4.1073,-4.116,-4.117,-4.0911,-4.0577,-4.0047,-3.9562,-3.957,-3.9292,-3.8804,-3.8954,-3.9215,-3.8982,-3.8739,-3.8876,-3.9082,-3.9365,-3.9627,-3.9901,-4.0129,-4.0279,-4.0468,-4.0728,-4.0847,-4.0871,-4.0871,-4.0894,-4.0894,-4.0894,-4.0965,-3.3124,-3.321,-3.3738,-3.4509,-3.5237,-3.5494,-3.5935,-3.632,-3.5909,-3.5628,-3.5628,-3.6002,-3.6002,-3.5588,-3.5305,-3.5224,-3.5237,-3.5237,-3.5237,-3.5237,-3.5237,-3.5386,-3.5359,-3.5329,-3.5242,-3.483,-3.4573,-3.4097,-3.3982,-3.3707,-3.3781,-3.3998,-3.432,-3.4808,-3.4831,-3.5929,-3.6702,-3.7227,-3.7485,-3.7938,-3.8014,-3.8028,-3.7734,-3.7658,-3.7567,-3.7567,-3.7529,-3.7529,-3.7696,-3.7763,-3.7815,-3.7739,-3.7663,-3.7572,-3.7572,-3.7548,-3.751,-3.7457,-3.7419,-3.7471,-3.7419,-3.738,-3.7264,-3.7134,-3.7017,-3.6978,-3.7017,-3.7017,-3.6978,-3.6978,-3.6978,-3.6978,-3.6978,-3.6978,-3.6978,-3.6978,-3.6978,-3.7173,-3.7327,-3.7582,-3.7772,-3.7924,-3.8523,-3.9096,-3.99,-4.0597,-4.1039,-4.1049,-4.0901,-4.0498,-3.9929,-3.9405,-3.9022,-3.8643,-3.8252,-3.8378,-3.8437,-3.8258,-3.8067,-3.8197,-3.8395,-3.8689,-3.8882,-3.9028,-3.9322,-3.9705,-3.991,-4.002,-4.0427,-4.0847,-4.0871,-4.0888,-4.0894,-4.0894,-4.0894,-3.3124,-3.3124,-3.3167,-3.3654,-3.4468,-3.5224,-3.5534,-3.5669,-3.5628,-3.5507,-3.5305,-3.4896,-3.4937,-3.5115,-3.4607,-3.4413,-3.4413,-3.4426,-3.4426,-3.4426,-3.4413,-3.4841,-3.5129,-3.5157,-3.4874,-3.544,-3.4996,-3.4701,-3.5036,-3.462,-3.4821,-3.4888,-3.4672,-3.4796,-3.3962,-3.4475,-3.5505,-3.6654,-3.6674,-3.7092,-3.7352,-3.7404,-3.6989,-3.661,-3.6557,-3.657,-3.6531,-3.657,-3.6766,-3.6989,-3.7289,-3.7327,-3.7303,-3.7457,-3.7419,-3.7187,-3.7187,-3.7095,-3.6964,-3.7134,-3.7187,-3.7226,-3.7134,-3.7017,-3.6978,-3.6978,-3.6978,-3.6978,-3.6978,-3.6978,-3.6978,-3.6978,-3.6978,-3.6978,-3.6978,-3.6978,-3.6978,-3.6978,-3.7173,-3.725,-3.7173,-3.7289,-3.7886,-3.8523,-3.9328,-4.0076,-4.0749,-4.0896,-4.0776,-4.0311,-3.9705,-3.9219,-3.8686,-3.8293,-3.7949,-3.7725,-3.7654,-3.748,-3.7541,-3.7787,-3.7825,-3.8008,-3.8164,-3.8214,-3.8546,-3.9011,-3.9129,-3.9219,-3.968,-4.017,-4.0752,-4.0864,-4.0888,-4.0894,-4.0894,-3.3124,-3.3124,-3.3124,-3.3283,-3.3569,-3.3797,-3.4233,-3.4841,-3.5278,-3.4992,-3.4204,-3.4147,-3.4105,-3.3924,-3.3797,-3.3624,-3.3581,-3.3526,-3.3526,-3.3581,-3.3611,-3.3641,-3.3953,-3.415,-3.4037,-3.3953,-3.3953,-3.4079,-3.3804,-3.4108,-3.4024,-3.3898,-3.4069,-3.4219,-3.4768,-3.5249,-3.5653,-3.5802,-3.5869,-3.5989,-3.6002,-3.6056,-3.5896,-3.544,-3.548,-3.548,-3.5386,-3.5467,-3.5669,-3.5923,-3.6175,-3.6466,-3.652,-3.6677,-3.6808,-3.6401,-3.6229,-3.5896,-3.5655,-3.5776,-3.652,-3.6808,-3.7017,-3.6978,-3.6978,-3.6978,-3.6978,-3.6978,-3.6978,-3.6978,-3.6978,-3.6978,-3.6978,-3.6978,-3.6978,-3.6978,-3.6978,-3.6978,-3.7056,-3.7056,-3.7017,-3.7289,-3.7734,-3.7962,-3.862,-3.9184,-3.9814,-4.0405,-4.0439,-3.9985,-3.9418,-3.8938,-3.849,-3.8041,-3.7716,-3.7795,-3.792,-3.7966,-3.7795,-3.767,-3.7668,-3.7581,-3.7526,-3.7608,-3.7969,-3.8339,-3.8446,-3.8624,-3.8935,-3.9404,-3.9995,-4.0517,-4.0631,-4.0752,-4.0894,-3.3124,-3.3124,-3.3124,-3.3124,-3.3124,-3.3124,-3.3454,-3.3979,-3.4483,-3.4066,-3.3398,-3.3738,-3.3696,-3.324,-3.3124,-3.3124,-3.3124,-3.3124,-3.3111,-3.3124,-3.3124,-3.324,-3.321,-3.3124,-3.3326,-3.3124,-3.3124,-3.3167,-3.3283,-3.3167,-3.3154,-3.3056,-3.2797,-3.3352,-3.4059,-3.4238,-3.4459,-3.4581,-3.4774,-3.4856,-3.4938,-3.4925,-3.4761,-3.4444,-3.4374,-3.4387,-3.4374,-3.4361,-3.4444,-3.4637,-3.4966,-3.5346,-3.548,-3.5602,-3.5776,-3.5359,-3.5142,-3.4897,-3.4761,-3.4815,-3.5602,-3.6362,-3.673,-3.6978,-3.6978,-3.6978,-3.6978,-3.6978,-3.6978,-3.6978,-3.6978,-3.6978,-3.6978,-3.6978,-3.6978,-3.6978,-3.6978,-3.6978,-3.6978,-3.6978,-3.7017,-3.7327,-3.7505,-3.762,-3.7886,-3.8375,-3.8855,-3.9451,-3.9975,-3.9535,-3.9183,-3.89,-3.8552,-3.8234,-3.8112,-3.8222,-3.8328,-3.8446,-3.8203,-3.7836,-3.7435,-3.7312,-3.7155,-3.7043,-3.7298,-3.7549,-3.7825,-3.8067,-3.8334,-3.8707,-3.9262,-3.9749,-4.0229,-4.0377,-4.0427,-3.3124,-3.3124,-3.3124,-3.3124,-3.3124,-3.3124,-3.3124,-3.3124,-3.3154,-3.3154,-3.3124,-3.3154,-3.3154,-3.3167,-3.3124,-3.3124,-3.3124,-3.3124,-3.3124,-3.3124,-3.3124,-3.3124,-3.3124,-3.3124,-3.3124,-3.3124,-3.3124,-3.3124,-3.3124,-3.3038,-3.2896,-3.2723,-3.2593,-3.2754,-3.2785,-3.2859,-3.3147,-3.3462,-3.3645,-3.3759,-3.3901,-3.4056,-3.3649,-3.3335,-3.322,-3.322,-3.3177,-3.322,-3.3547,-3.3872,-3.4223,-3.4264,-3.4306,-3.4306,-3.4306,-3.4264,-3.4264,-3.4014,-3.3972,-3.4027,-3.4568,-3.5318,-3.6189,-3.6652,-3.6978,-3.6978,-3.6978,-3.6978,-3.6978,-3.6978,-3.6978,-3.6978,-3.6978,-3.6978,-3.6978,-3.6978,-3.6978,-3.6978,-3.6978,-3.6978,-3.6978,-3.7134,-3.7134,-3.725,-3.7429,-3.7658,-3.8113,-3.856,-3.8977,-3.8943,-3.8745,-3.9069,-3.8739,-3.8501,-3.8504,-3.8675,-3.897,-3.9185,-3.8508,-3.8063,-3.7602,-3.7155,-3.7002,-3.6878,-3.6616,-3.6785,-3.7178,-3.746,-3.7666,-3.8039,-3.8318,-3.8897,-3.9342,-3.9463,-3.9542,-3.3124,-3.3124,-3.3124,-3.3124,-3.3124,-3.3124,-3.3124,-3.3124,-3.3124,-3.3124,-3.3124,-3.3124,-3.3124,-3.3124,-3.3124,-3.3124,-3.3124,-3.3124,-3.3124,-3.3124,-3.3124,-3.3124,-3.3124,-3.3124,-3.3124,-3.3124,-3.3124,-3.3081,-3.3038,-3.2939,-3.2736,-3.2519,-3.2332,-3.2201,-3.2113,-3.1981,-3.2264,-3.2469,-3.2667,-3.2772,-3.2747,-3.2834,-3.2457,-3.2339,-3.2295,-3.2251,-3.2264,-3.2264,-3.25,-3.2544,-3.3109,-3.3365,-3.3407,-3.3888,-3.4139,-3.3352,-3.2907,-3.2457,-3.2575,-3.3023,-3.3564,-3.4027,-3.4692,-3.5896,-3.648,-3.6861,-3.6822,-3.6691,-3.673,-3.673,-3.6652,-3.6652,-3.6691,-3.6783,-3.6822,-3.6978,-3.6978,-3.6978,-3.6978,-3.6978,-3.6978,-3.6978,-3.6978,-3.7017,-3.7211,-3.725,-3.7429,-3.7848,-3.8146,-3.82,-3.848,-3.8847,-3.8808,-3.8557,-3.8987,-3.9226,-3.9582,-3.9736,-3.9077,-3.8462,-3.8061,-3.7647,-3.7092,-3.6738,-3.6553,-3.6523,-3.6662,-3.6922,-3.7148,-3.6952,-3.7163,-3.7851,-3.8374,-3.853,-3.875,-3.2939,-3.2939,-3.3081,-3.3124,-3.3124,-3.3124,-3.3124,-3.3124,-3.3124,-3.3124,-3.3124,-3.3124,-3.3124,-3.3124,-3.3124,-3.3124,-3.3124,-3.3124,-3.3124,-3.3124,-3.3124,-3.3124,-3.3124,-3.3124,-3.3124,-3.3068,-3.2982,-3.2896,-3.2853,-3.2692,-3.2475,-3.2257,-3.2025,-3.1994,-3.1906,-3.1793,-3.1805,-3.1937,-3.2025,-3.1937,-3.1893,-3.1805,-3.1761,-3.1705,-3.1705,-3.1705,-3.1705,-3.1705,-3.1705,-3.1705,-3.2326,-3.2457,-3.25,-3.2938,-3.3152,-3.2444,-3.2164,-3.1925,-3.1957,-3.2208,-3.2618,-3.3036,-3.3479,-3.443,-3.544,-3.603,-3.5936,-3.5843,-3.6149,-3.6362,-3.6282,-3.6243,-3.6322,-3.6455,-3.6691,-3.6978,-3.6978,-3.6978,-3.6978,-3.6978,-3.6978,-3.6978,-3.6978,-3.6978,-3.6978,-3.7056,-3.7134,-3.7289,-3.7668,-3.7843,-3.8253,-3.8737,-3.8686,-3.8552,-3.9057,-3.9478,-3.9711,-3.9826,-3.9582,-3.9062,-3.8598,-3.7938,-3.7215,-3.6799,-3.6522,-3.6523,-3.6538,-3.6554,-3.6631,-3.6492,-3.6492,-3.7028,-3.7517,-3.7679,-3.794,-3.268,-3.2711,-3.2952,-3.3038,-3.3068,-3.3081,-3.3081,-3.3068,-3.3081,-3.3124,-3.3124,-3.3124,-3.3124,-3.3124,-3.3124,-3.3124,-3.3124,-3.3124,-3.3124,-3.3124,-3.3124,-3.3124,-3.3081,-3.3081,-3.2982,-3.2939,-3.2853,-3.2636,-3.2593,-3.2419,-3.2201,-3.1981,-3.1981,-3.1893,-3.1761,-3.1705,-3.1717,-3.1761,-3.1805,-3.1761,-3.1761,-3.1717,-3.1705,-3.1705,-3.1705,-3.1705,-3.1705,-3.1705,-3.1705,-3.1705,-3.1705,-3.1793,-3.1825,-3.1869,-3.1869,-3.1825,-3.1793,-3.1749,-3.1705,-3.1881,-3.2208,-3.2575,-3.2938,-3.3352,-3.4069,-3.5102,-3.5183,-3.5102,-3.5346,-3.5346,-3.5278,-3.54,-3.5534,-3.579,-3.607,-3.6362,-3.6533,-3.6691,-3.6978,-3.6978,-3.6978,-3.6978,-3.6978,-3.6978,-3.6978,-3.6978,-3.7017,-3.7056,-3.7183,-3.7496,-3.7922,-3.8473,-3.8193,-3.8212,-3.8925,-3.932,-3.9602,-3.9701,-3.96,-3.929,-3.8635,-3.7958,-3.7277,-3.6861,-3.6492,-3.6492,-3.6523,-3.6492,-3.6492,-3.6492,-3.6492,-3.6492,-3.6708,-3.7014,-3.7254,-3.2475,-3.2475,-3.2723,-3.281,-3.281,-3.3025,-3.2982,-3.281,-3.3025,-3.3081,-3.3124,-3.3124,-3.3124,-3.3124,-3.3124,-3.3124,-3.3081,-3.3038,-3.3124,-3.3081,-3.3038,-3.2995,-3.3038,-3.2865,-3.281,-3.2723,-3.2593,-3.2388,-3.2201,-3.2113,-3.1981,-3.1805,-3.1805,-3.1761,-3.1705,-3.1705,-3.1705,-3.1705,-3.1705,-3.1705,-3.1705,-3.1705,-3.1705,-3.1705,-3.1705,-3.1705,-3.1705,-3.1705,-3.1705,-3.1705,-3.1705,-3.1705,-3.1705,-3.1705,-3.1705,-3.1705,-3.1705,-3.1705,-3.1705,-3.1705,-3.1925,-3.1969,-3.212,-3.2164,-3.2704,-3.3888,-3.4472,-3.4389,-3.4347,-3.4347,-3.4347,-3.4485,-3.4692,-3.5033,-3.5454,-3.5749,-3.603,-3.6455,-3.69,-3.6978,-3.6978,-3.6978,-3.6978,-3.6978,-3.6978,-3.6978,-3.6978,-3.7017,-3.7017,-3.7208,-3.7462,-3.7803,-3.7445,-3.763,-3.8472,-3.8941,-3.9086,-3.9218,-3.9146,-3.8888,-3.8564,-3.7871,-3.7121,-3.6782,-3.6492,-3.6521,-3.652,-3.6492,-3.6492,-3.6492,-3.6492,-3.6492,-3.6538,-3.677,-3.6893,-3.2213,-3.2213,-3.2332,-3.2475,-3.2593,-3.2723,-3.2692,-3.2636,-3.281,-3.2952,-3.2939,-3.3025,-3.3124,-3.3124,-3.3124,-3.2995,-3.2939,-3.2939,-3.2822,-3.2822,-3.2822,-3.2766,-3.2692,-3.2649,-3.2605,-3.2506,-3.2332,-3.2125,-3.1893,-3.1849,-3.1793,-3.1705,-3.1705,-3.1705,-3.1705,-3.1705,-3.1705,-3.1705,-3.1705,-3.1705,-3.1705,-3.1705,-3.1705,-3.1705,-3.1705,-3.1705,-3.1705,-3.1705,-3.1705,-3.1705,-3.1705,-3.1705,-3.1705,-3.1705,-3.1705,-3.1705,-3.1705,-3.1705,-3.1705,-3.1705,-3.1705,-3.1705,-3.1705,-3.1913,-3.1913,-3.295,-3.298,-3.295,-3.3534,-3.3619,-3.3237,-3.3237,-3.3606,-3.3943,-3.4609,-3.5115,-3.5575,-3.603,-3.6573,-3.6978,-3.6978,-3.6978,-3.6978,-3.6978,-3.6978,-3.6978,-3.6978,-3.6978,-3.6978,-3.6978,-3.7236,-3.7319,-3.7101,-3.727,-3.8051,-3.8332,-3.8407,-3.8517,-3.862,-3.847,-3.8176,-3.7563,-3.6969,-3.6723,-3.655,-3.654,-3.6542,-3.65,-3.6475,-3.6492,-3.6492,-3.6492,-3.6599,-3.6768,-3.7048,-3.1937,-3.1937,-3.1994,-3.2113,-3.2356,-3.2388,-3.2388,-3.2388,-3.255,-3.2636,-3.2636,-3.2865,-3.2995,-3.3038,-3.3038,-3.2853,-3.2723,-3.268,-3.2562,-3.2487,-3.2487,-3.2531,-3.2475,-3.2388,-3.23,-3.2213,-3.2081,-3.1893,-3.1761,-3.1749,-3.1749,-3.1705,-3.1705,-3.1705,-3.1705,-3.1705,-3.1705,-3.1705,-3.1705,-3.1705,-3.1705,-3.1705,-3.1705,-3.1705,-3.1705,-3.1705,-3.1705,-3.1705,-3.1705,-3.1705,-3.1705,-3.1705,-3.1705,-3.1705,-3.1705,-3.1705,-3.1705,-3.1705,-3.1705,-3.1705,-3.1705,-3.1705,-3.1705,-3.1705,-3.1749,-3.1749,-3.1825,-3.2077,-3.2661,-3.2747,-3.237,-3.2283,-3.2649,-3.298,-3.3733,-3.4472,-3.5033,-3.5575,-3.6163,-3.673,-3.6861,-3.6861,-3.69,-3.694,-3.694,-3.694,-3.6978,-3.6978,-3.6978,-3.6978,-3.7095,-3.7173,-3.7042,-3.7391,-3.7758,-3.7829,-3.7855,-3.7898,-3.8017,-3.8003,-3.787,-3.7484,-3.7114,-3.6759,-3.6629,-3.6585,-3.6511,-3.6459,-3.6461,-3.6471,-3.6792,-3.6911,-3.7038,-3.7221,-3.7505,-3.1749,-3.1749,-3.195,-3.2038,-3.2125,-3.23,-3.23,-3.2169,-3.2344,-3.2344,-3.2257,-3.2431,-3.2605,-3.2766,-3.2766,-3.2636,-3.2475,-3.2431,-3.2475,-3.24,-3.2313,-3.2356,-3.2313,-3.2125,-3.1994,-3.1906,-3.1849,-3.1761,-3.1705,-3.1705,-3.1705,-3.1705,-3.1705,-3.1705,-3.1705,-3.1705,-3.1705,-3.1705,-3.1705,-3.1705,-3.1705,-3.1705,-3.1705,-3.1705,-3.1705,-3.1705,-3.1705,-3.1705,-3.1705,-3.1705,-3.1705,-3.1705,-3.1705,-3.1705,-3.1705,-3.1705,-3.1705,-3.1705,-3.1705,-3.1705,-3.1705,-3.1705,-3.1705,-3.1705,-3.1705,-3.1705,-3.1749,-3.1749,-3.2133,-3.2133,-3.1869,-3.1869,-3.212,-3.2326,-3.2821,-3.3649,-3.4319,-3.4951,-3.5615,-3.607,-3.6362,-3.648,-3.6638,-3.6652,-3.6691,-3.673,-3.6769,-3.6808,-3.6978,-3.6978,-3.6978,-3.6978,-3.6978,-3.6978,-3.7173,-3.7275,-3.7309,-3.7376,-3.741,-3.7471,-3.7533,-3.7652,-3.7307,-3.6902,-3.6649,-3.6547,-3.6497,-3.6514,-3.6354,-3.6432,-3.7086,-3.7446,-3.7485,-3.7582,-3.7785]},{"header":{"parameterUnit":"m.s-1","parameterCategory":1,"la1":31.0,"la2":29.5877,"lo1":-88.7671,"lo2":-86.6584,"dy":0.0162,"dx":0.0185,"nx":115,"ny":88,"refTime":"2024-08-26T12:00:00:Z","depth":0,"parameterNumber":3,"parameterNumberName":"V-component_of_WINDS"},"data":[0.0,0.0,0.0,0.0,0.0,0.0,0.0,0.0,0.0,0.0,0.0,0.0,0.0,0.0,0.0,0.0,0.0,0.0,0.0,0.0,0.0,0.0,0.0,0.0,0.0,0.0,0.0,0.0,0.0,0.0,0.0,0.0,0.0,0.0,0.0,0.0,0.0,0.0,0.0,0.0,0.0,0.0,0.0,0.0,0.0,0.0,0.0,0.0,0.0,0.0,0.0,0.0,0.0,0.0,0.0,0.0,0.0,0.0,0.0,0.0,0.0,0.0,0.0,0.0,0.0,0.0,0.0,0.0,0.0,0.0,0.0,0.0,0.0,0.0,0.0,0.0,0.0,0.0,0.0,0.0,0.0,0.0,0.0,0.0,0.0,0.0,0.0,0.0,0.0,0.0,0.0,0.0,0.0,0.0,0.0,0.0,0.0,0.0,0.0,0.0,0.0,0.0,0.0,0.0,0.0,0.0,0.0,0.0,0.0,0.0,0.0,0.0,0.0,0.0,0.0,0.0,0.0,0.0,0.0,0.0,0.0,0.0,0.0,0.0,0.0,0.0,0.0,0.0,0.0,0.0,0.0,0.0,0.0,0.0,0.0,0.0,0.0,0.0,0.0,0.0,0.0,0.0,0.0,0.0,0.0,0.0,0.0,0.0,0.0,0.0,0.0,0.0,0.0,0.0,0.0,0.0,0.0,0.0,0.0,0.0,0.0,0.0,0.0,0.0,0.0,0.0,0.0,0.0,0.0,0.0,0.0,0.0,0.0,0.0,0.0,0.0,0.0,0.0,0.0,0.0,0.0,0.0,0.0,0.0,0.0,0.0,0.0,0.0,0.0,0.0,0.0,0.0,0.0,0.0,0.0,0.0,0.0,0.0,0.0,0.0,0.0,0.0,0.0,0.0,0.0,0.0,0.0,0.0,0.0,0.0,0.0,0.0,0.0,0.0,0.0,0.0,0.0,0.0,0.0,0.0,0.0,0.0,0.0,0.0,0.0,0.0,0.0,0.0,0.0,0.0,0.0,0.0,0.0,0.0,0.0,0.0,0.0,0.0,0.0,0.0,0.0,0.0,0.0,0.0,0.0,0.0,0.0,0.0,0.0,0.0,0.0,0.0,0.0,0.0,0.0,0.0,0.0,0.0,0.0,0.0,0.0,0.0,0.0,0.0,0.0,0.0,0.0,0.0,0.0,0.0,0.0,0.0,0.0,0.0,0.0,0.0,0.0,0.0,0.0,0.0,0.0,0.0,0.0,0.0,0.0,0.0,0.0,0.0,0.0,0.0,0.0,0.0,0.0,0.0,0.0,0.0,0.0,0.0,0.0,0.0,0.0,0.0,0.0,0.0,0.0,0.0,0.0,0.0,0.0,0.0,0.0,0.0,0.0,0.0,0.0,0.0,0.0,0.0,0.0,0.0,0.0,0.0,0.0,0.0,0.0,0.0,0.0,0.0,0.0,0.0,0.0,0.0,0.0,0.0,0.0,0.0,0.0,0.0,0.0,0.0,0.0,0.0,0.0,0.0,0.0,0.0,0.0,0.0,0.0,0.0,0.0,0.0,0.0,0.0,0.0,0.0,0.0,0.0,0.0,0.0,0.0,0.0,0.0,0.0,0.0,0.0,0.0,0.0,0.0,0.0,0.0,0.0,0.0,0.0,0.0,0.0,0.0,0.0,0.0,0.0,0.0,0.0,0.0,0.0,0.0,0.0,0.0,0.0,0.0,0.0,0.0,0.0,0.0,0.0,0.0,0.0,0.0,0.0,0.0,0.0,0.0,0.0,0.0,0.0,0.0,0.0,0.0,0.0,0.0,0.0,0.0,0.0,0.0,0.0,0.0,0.0,0.0,0.0,0.0,0.0,0.0,0.0,0.0,0.0,0.0,0.0,0.0,0.0,0.0,0.0,0.0,0.0,0.0,0.0,0.0,0.0,0.0,0.0,0.0,0.0,0.0,0.0,0.0,0.0,0.0,0.0,0.0,0.0,0.0,0.0,0.0,0.0,0.0,0.0,0.0,0.0,0.0,0.0,0.0,0.0,0.0,0.0,0.0,0.0,0.0,0.0,0.0,0.0,0.0,0.0,0.0,0.0,0.0,0.0,0.0,0.0,0.0,0.0,0.0,0.0,0.0,0.0,0.0,0.0,0.0,0.0,0.0,0.0,0.0,0.0,0.0,0.0,0.0,0.0,0.0,0.0,0.0,0.0,0.0,0.0,0.0,0.0,0.0,0.0,0.0,0.0,0.0,0.0,0.0,0.0,0.0,0.0,0.0,0.0,0.0,0.0,0.0,0.0,0.0,0.0,0.0,0.0,0.0,0.0,0.0,0.0,0.0,0.0,0.0,0.0,0.0,0.0,0.0,0.0,0.0,0.0,0.0,0.0,0.0,0.0,0.0,0.0,0.0,0.0,0.0,0.0,0.0,0.0,0.0,0.0,0.0,0.0,0.0,0.0,0.0,0.0,0.0,0.0,0.0,0.0,0.0,0.0,0.0,0.0,0.0,0.0,0.0,0.0,0.0,0.0,0.0,0.0,0.0,0.0,0.0,0.0,0.0,0.0,0.0,0.0,0.0,0.0,0.0,0.0,0.0,0.0,0.0,0.0,0.0,0.0,0.0,0.0,0.0,0.0,0.0,0.0,0.0,0.0,0.0,0.0,0.0,0.0,0.0,0.0,0.0,0.0,0.0,0.0,0.0,0.0,0.0,0.0,0.0,0.0,0.0,0.0,0.0,0.0,0.0,0.0,0.0,0.0,0.0,0.0,0.0,0.0,0.0,0.0,0.0,0.0,0.0,0.0,0.0,0.0,0.0,0.0,0.0,0.0,0.0,0.0,0.0,0.0,0.0,0.0,0.0,0.0,0.0,0.0,0.0,0.0,0.0,0.0,0.0,0.0,0.0,0.0,0.0,0.0,0.0,0.0,0.0,0.0,0.0,0.0,0.0,0.0,0.0,0.0,0.0,0.0,0.0,0.0,0.0,0.0,0.0,0.0,0.0,0.0,0.0,0.0,0.0,0.0,0.0,0.0,0.0,0.0,0.0,0.0,0.0,0.0,0.0,0.0,0.0,0.0,0.0,0.0,0.0,0.0,0.0,0.0,0.0,0.0,0.0,0.0,0.0,0.0,0.0,0.0,0.0,0.0,0.0,0.0,0.0,0.0,0.0,0.0,0.0,0.0,0.0,0.0,0.0,0.0,0.0,0.0,0.0,0.0,0.0,0.0,0.0,0.0,0.0,0.0,0.0,0.0,0.0,0.0,0.0,0.0,0.0,0.0,0.0,0.0,0.0,0.0,0.0,0.0,0.0,0.0,0.0,0.0,0.0,0.0,0.0,0.0,0.0,0.0,0.0,0.0,0.0,0.0,0.0,0.0,0.0,0.0,0.0,0.0,0.0,0.0,0.0,0.0,0.0,0.0,0.0,0.0,0.0,0.0,0.0,0.0,0.0,0.0,0.0,0.0,0.0,0.0,0.0,0.0,0.0,0.0,0.0,0.0,0.0,0.0,0.0,0.0,0.0,0.0,0.0,0.0,0.0,0.0,0.0,0.0,0.0,0.0,0.0,0.0,0.0,0.0,0.0,0.0,0.0,0.0,0.0,0.0,0.0,0.0,0.0,0.0,0.0,0.0,0.0,0.0,0.0,0.0,0.0,0.0,0.0,0.0,0.0,0.0,0.0,0.0,0.0,0.0,0.0,0.0,0.0,0.0,0.0,0.0,0.0,0.0,0.0,0.0,0.0,0.0,0.0,0.0,0.0,0.0,0.0,0.0,0.0,0.0,0.0,0.0,0.0,0.0,0.0,0.0,0.0,0.0,0.0,0.0,0.0,0.0,0.0,0.0,0.0,0.0,0.0,0.0,0.0,0.0,0.0,0.0,0.0,0.0,0.0,0.0,0.0,0.0,0.0,0.0,0.0,0.0,0.0,0.0,0.0,0.0,0.0,0.0,0.0,0.0,0.0,0.0,0.0,0.0,0.0,0.0,0.0,0.0,0.0,0.0,0.0,0.0,0.0,0.0,0.0,0.0,0.0,0.0,0.0,0.0,0.0,0.0,0.0,0.0,0.0,0.0,0.0,0.0,0.0,0.0,0.0,0.0,0.0,0.0,0.0,0.0,0.0,0.0,0.0,0.0,0.0,0.0,0.0,0.0,0.0,0.0,0.0,0.0,0.0,0.0,0.0,0.0,0.0,0.0,0.0,0.0,0.0,0.0,0.0,0.0,0.0,0.0,0.0,0.0,0.0,0.0,0.0,0.0,0.0,0.0,0.0,0.0,0.2207,0.0,0.0,0.0,0.0,0.0,0.0,0.0,0.0,0.0,0.0,0.0,0.0,0.0,0.0,0.0,0.0,0.0,0.0,0.0,0.0,0.0,0.0,0.0,0.0,0.0,0.0,0.0,0.0,0.0,0.0,0.0,0.0,0.0,0.0,0.0,0.0,0.0,0.0,0.0,0.0,0.0,0.0,0.0,0.0,0.0,0.0,0.0,0.0,0.0,0.0,0.0,0.0,0.0,0.0,0.0,0.0,0.0,0.0,0.0,0.0,0.0,0.0,0.0,0.0,0.0,0.0,0.0,0.0,0.0,0.0,0.0,0.0,0.0,0.0,0.0,0.0,0.0,0.0,0.0,0.0,0.0,0.0,0.0,0.0,0.0,0.0,0.0,0.0,0.0,0.0,0.0,0.0,0.0,0.0,0.0,0.0,0.0,0.0,0.0,0.0,0.0,0.0,0.0,0.0,0.0,0.0,0.0,0.0,0.0,0.0,0.3159,0.3056,0.2649,0.2256,0.1943,0.0,0.0,0.0,0.0,0.0,0.0,0.0,0.0,0.0,0.0,0.0,0.0,0.0,0.0,0.0,0.0,0.0,0.0,0.0,0.0,0.0,0.0,0.0,0.0,0.0,0.0,0.0,0.0,0.0,0.0,0.0,0.0,0.0,0.0,0.0,0.0,0.0,0.0,0.0,0.0,0.0,0.0,0.0,0.0,0.0,0.0,0.0,0.0,0.0,0.0,0.0,0.0,0.0,0.0,0.0,0.0,0.0,0.0,0.0,0.0,0.0,0.0,0.0,0.0,0.0,0.0,0.0,0.0,0.0,0.0,0.0,0.0,0.0,0.0,0.0,0.0,0.0,0.0,0.0,0.0,0.0,0.0,0.0,0.0,0.0,0.0,0.0,0.0,0.0,0.0,0.0,0.0,0.0,0.0,0.0,0.0,0.0,0.0,0.0,0.0,0.0,0.0,0.0,0.0,0.0,0.0,0.0,0.0,0.0,0.0,0.0,0.0,0.2205,0.192,0.1665,0.0,0.0,0.0,0.0,0.0,0.0,0.0,0.0,0.0,0.0,0.0,0.0,0.0,0.0,0.0,0.0,0.0,0.0,0.0,0.0,0.0,0.0,0.0,0.0,0.0,0.0,0.0,0.0,0.0,0.0,0.0,0.0,0.0,0.0,0.0,0.0,0.0,0.0,0.0,0.0,0.0,0.0,0.0,0.0,0.0,0.0,0.0,0.0,0.0,0.0,0.0,0.0,0.0,0.0,0.0,0.0,0.0,0.0,0.0,0.0,0.0,0.0,0.0,0.0,0.0,0.0,0.0,0.0,0.0,0.0,0.0,0.0,0.0,0.0,0.0,0.0,0.0,0.0,0.0,0.0,0.0,0.0,0.0,0.0,0.0,0.0,0.0,0.0,0.0,0.0,0.0,0.0,0.0,0.0,0.0,0.0,0.0,0.0,0.0,0.0,0.0,0.0,0.0,0.0,0.0,0.0,0.0,0.0,0.0,0.0,0.2255,0.2253,0.1844,0.0,0.133,0.0,0.0,0.0,0.0,0.0,0.0,0.0,0.0,0.0,0.0,0.0,0.0,0.0,0.0,0.0,0.0,0.0,0.0,0.0,0.0,0.0,0.0,0.0,0.0,0.0,0.0,0.0,0.0,0.0,0.0,0.0,0.0,0.0,0.0,0.0,0.0,0.0,0.0,0.0,0.0,0.0,0.0,0.0,0.0,0.0,0.0,0.0,0.0,0.0,0.0,0.0,0.0,0.0,0.0,0.0,0.0,0.0,0.0,0.0,0.0,0.0,0.0,0.0,0.0,0.0,0.0,0.0,0.0,0.0,0.0,0.0,0.0,0.0,0.0,0.0,0.0,0.0,0.0,0.0,0.0,0.0,0.0,0.0,0.0,0.0,0.0,0.0,0.0,0.0,0.0,0.0,0.0,0.0,0.0,0.0,0.0,0.0,0.0,0.0,0.0,0.0,0.0,0.0,0.0,0.0,0.0,0.0,0.0,0.0,0.0,0.0,0.1849,0.1564,0.1329,0.0,0.0,0.0,0.0,0.0,0.0,0.0,0.0,0.0,0.0,0.0,0.0,0.0,0.0,0.0,0.0,0.0,0.0,0.0,0.0,0.0,0.0,0.0,0.0,0.0,0.0,0.0,0.0,0.0,0.0,0.0,0.0,0.0,0.0,0.0,0.0,0.0,0.0,0.0,0.0,0.0,0.0,0.0,0.0,0.0,0.0,0.0,0.0,0.0,0.0,0.0,0.0,0.0,0.0,0.0,0.0,0.0,0.0,0.0,0.0,0.0,0.0,0.0,0.0,0.0,0.0,0.0,0.0,0.0,0.0,0.0,0.0,0.0,0.0,0.0,0.0,0.0,0.0,0.0,0.0,0.0,0.0,0.0,0.0,0.0,0.0,0.0,0.0,0.0,0.0,0.0,0.0,0.0,0.0,0.0,0.0,0.0,0.0,0.0,0.0,0.0,0.0,0.0,0.0,0.0,0.0,0.0,0.0,0.0,0.0,0.1849,0.0,0.1476,0.1305,0.1143,0.1019,0.0,0.0,0.0,0.0,0.0,0.0,0.0,0.0,0.0,0.0,0.0,0.0,0.0,0.0,0.0,0.0,0.0,0.0,0.0,0.0,0.0,0.0,0.0,0.0,0.0,0.0,0.0,0.0,0.0,0.0,0.0,0.0,0.0,0.0,0.0,0.0,0.0,0.0,0.0,0.0,0.0,0.0,0.0,0.0,0.0,0.0,0.0,0.0,0.0,0.0,0.0,0.0,0.0,0.0,0.0,0.0,0.0,0.0,0.0,0.0,0.0,0.0,0.0,0.0,0.0,0.0,0.0,0.0,0.0,0.0,0.0,0.0,0.0,0.0,0.0,0.0,0.0,0.0,0.0,0.0,0.0,0.0,0.0,0.0,0.0,0.0,0.0,0.0,0.0,0.0,0.0,0.0,0.0,0.0,0.0,0.0,0.0,0.0,0.0,0.0,0.0,0.0,0.0,0.0,0.0,0.0,0.0,0.0,0.0,0.1547,0.1244,0.1142,0.1051,0.1019,0.0,0.0,0.0,0.0,0.0,0.0,0.0,0.0,0.0,0.0,0.0,0.0,0.0,0.0,0.0,0.0,0.0,0.0,0.0,0.0,0.0,0.0,0.0,0.0,0.0,0.0,0.0,0.0,0.0,0.0,0.0,0.0,0.0,0.0,0.0,0.0,0.0,0.0,0.0,0.0,0.0,0.0,0.0,0.0,0.0,0.0,0.0,0.0,0.0,0.0,0.0,0.0,0.0,0.0,0.0,0.0,0.0,0.0,0.0,0.0,0.0,0.0,0.0,0.0,0.0,0.0,0.0,0.0,0.0,0.0,0.0,0.0,0.0,0.0,0.0,0.0,0.0,0.0,0.0,0.0,0.0,0.0,0.0,0.0,0.0,0.0,0.0,0.0,0.0,0.0,0.0,0.0,0.0,0.0,0.0,0.0,0.0,0.0,0.0,0.0,0.0,0.0,0.0,0.0,0.0,0.0,0.0,0.0,0.0,0.1712,0.1344,0.1143,0.1108,0.1051,0.1019,0.0,0.0,0.0,0.0,0.0,0.0,0.0,0.0,0.0,0.0,0.0,0.0,0.0,0.0,0.0,0.0,0.0,0.0,0.0,0.0,0.0,0.0,0.0,0.0,0.0,0.0,0.0,0.0,0.0,0.0,0.0,0.0,0.0,0.0,0.0,0.0,0.0,0.0,0.0,0.0,0.0,0.0,0.0,0.0,0.0,0.0,0.0,0.0,0.0,0.0,0.0,0.0,0.0,0.0,0.0,0.0,0.0,0.0,0.0,0.0,0.0,0.0,0.0,0.0,0.0,0.0,0.0,0.0,0.0,0.0,0.0,0.0,0.0,0.0,0.0,0.0,0.0,0.0,0.0,0.0,0.0,0.0,0.0,0.0,0.0,0.0,0.0,0.0,0.0,0.0,0.0,0.0,0.0,0.0,0.0,0.0,0.0,0.0,0.0,0.0,0.0,0.0,0.0,0.0,0.0,0.0,0.0,0.0,0.0,0.1532,0.0,0.1135,0.0,0.1075,0.1039,0.0,0.0,0.0,0.0,0.0,0.0,0.0,0.0,0.0,0.0,0.0,0.0,0.0,0.0,0.0,0.0,0.0,0.0,0.0,0.0,0.0,0.0,0.0,0.0,0.0,0.0,0.0,0.0,0.0,0.0,0.0,0.0,0.0,0.0,0.0,0.0,0.0,0.0,0.0,0.0,0.0,0.0,0.0,0.0,0.0,0.0,0.0,0.0,0.0,0.0,0.0,0.0,0.0,0.0,0.0,0.0,0.0,0.0,0.0,0.0,0.0,0.0,0.0,0.0,0.0,0.0,0.0,0.0,0.0,0.0,0.0,0.0,0.0,0.0,0.0,0.0,0.0,0.0,0.0,0.0,0.0,0.0,0.0,0.0,0.0,0.0,0.0,0.0,0.0,0.0,0.0,0.0,0.0,0.0,0.0,0.0,0.0,0.0,0.0,0.0,0.0,0.0,0.0,0.0,0.0,0.0,0.0,0.0,0.1948,0.1436,0.1293,0.1149,0.1122,0.109,0.108,0.0,0.0,0.0,0.0,0.0,0.0,0.0,0.0,0.0,0.0,0.0,0.0,0.0,0.0,0.0,0.0,0.0,0.0,0.0,0.0,0.0,0.0,0.0,0.0,0.0,0.0,0.0,0.0,0.0,0.0,0.0,0.0,0.0,0.0,0.0,0.0,0.0,0.0,0.0,0.0,0.0,0.0,0.0,0.0,0.0,0.0,0.0,0.0,0.0,0.0,0.0,0.0,0.0,0.0,0.0,0.0,0.0,0.0,0.0,0.0,0.0,0.0,0.0,0.0,0.0,0.0,0.0,0.0,0.0,0.0,0.0,0.0,0.0,0.0,0.0,0.0,0.0,0.0,0.0,0.0,0.0,0.0,0.0,0.0,0.0,0.0,0.0,0.0,0.0,0.0,0.0,0.0,0.0,0.0,0.0,0.0,0.0,0.0,0.0,0.0,0.0,0.0,0.0,0.0,0.0,0.0,0.0,0.0,0.0,0.1622,0.1343,0.1198,0.1151,0.1137,0.11,0.0,0.0,0.0,0.0,0.0,0.0,0.0,0.0,0.0,0.0,0.0,0.0,0.0,0.0,0.0,0.0,0.0,0.0,0.0,0.0,0.0,0.0,0.0,0.0,0.0,0.0,0.0,0.0,0.0,0.0,0.0,0.0,0.0,0.0,0.0,0.0,0.0,0.0,0.0,0.0,0.0,0.0,0.0,0.0,0.0,0.0,0.0,0.0,0.0,0.0,0.0,0.0,0.0,0.0,0.0,0.0,0.0,0.0,0.0,0.0,0.0,0.0,0.0,0.0,0.0,0.0,0.0,0.0,0.0,0.0,0.0,0.0,0.0,0.0,0.0,0.0,0.0,0.0,0.0,0.0,0.0,0.0,0.0,0.0,0.0,0.0,0.0,0.0,0.0,0.0,0.0,0.0,0.0,0.0,0.0,0.0,0.0,0.0,0.0,0.0,0.0,0.0,0.0,0.0,0.0,0.0,0.0,0.0,0.0,0.175,0.1419,0.1224,0.1239,0.1199,0.1157,0.111,0.0,0.0,0.0,0.0,0.0,0.0,0.0,0.0,0.0,0.0,0.0,0.0,0.0,0.0,0.0,0.0,0.0,0.0,0.0,0.0,0.0,0.0,0.0,0.0,0.0,0.0,0.0,0.0,0.0,0.0,0.0,0.0,0.0,0.0,0.0,0.0,0.0,0.0,0.0,0.0,0.0,0.0,0.0,0.0,0.0,0.0,0.0,0.0,0.0,0.0,0.0,0.0,0.0,0.0,0.0,0.0,0.0,0.0,0.0,0.0,0.0,0.0,0.0,0.0,0.0,0.0,0.0,0.0,0.0,0.0,0.0,0.0,0.0,0.0,0.0,0.0,0.0,0.0,0.0,0.0,0.0,0.0,0.0,0.0,0.0,0.0,0.0,0.0,0.0,0.0,0.0,0.0,0.0,0.0,0.0,0.0,0.0,0.0,0.0,0.0,0.0,0.0,0.0,0.0,0.0,0.0,0.0,0.0,0.1912,0.1502,0.1323,0.1304,0.1297,0.124,0.0,0.0,0.0,0.0,0.0,0.0,0.0,0.0,0.0,0.0,0.0,0.0,0.0,0.0,0.0,0.0,0.0,0.0,0.0,0.0,0.0,0.0,0.0,0.0,0.0,0.0,0.0,0.0,0.0,0.0,0.0,0.0,0.0,0.0,0.0,0.0,0.0,0.0,0.0,0.0,0.0,0.0,0.0,0.0,0.0,0.0,0.0,0.0,0.0,0.0,0.0,0.0,0.0,0.0,0.0,0.0,0.0,0.0,0.0,0.0,0.0,0.0,0.0,0.0,0.0,0.0,0.0,0.0,0.0,0.0,0.0,0.0,0.0,0.0,0.0,0.0,0.0,0.0,0.0,0.0,0.0,0.0,0.0,0.0,0.0,0.0,0.0,0.0,0.0,0.0,0.0,0.0,0.0,0.0,0.0,0.0,0.0,0.0,0.0,0.0,0.0,0.0,0.0,0.0,0.0,0.0,0.0,0.0,0.0,0.1959,0.1601,0.1341,0.1326,0.1321,0.127,0.0,0.0,0.0,0.0,0.0,0.0,0.0,0.0,0.0,0.0,0.0,0.0,0.0,0.0,0.0,0.0,0.0,0.0,0.0,0.0,0.0,0.0,0.0,0.0,0.0,0.0,0.0,0.0,0.0,0.0,0.0,0.0,0.0,0.0,0.0,0.0,0.0,0.0,0.0,0.0,0.0,0.0,0.0,0.0,0.0,0.0,0.0,0.0,0.0,0.0,0.0,0.0,0.0,0.0,0.0,0.0,0.0,0.0,0.0,0.0,0.0,0.0,0.0,0.0,0.0,0.0,0.0,0.0,0.0,0.0,0.0,0.0,0.0,0.0,0.0,0.0,0.0,0.0,0.0,0.0,0.0,0.0,0.0,0.0,0.0,0.0,0.0,0.0,0.0,0.0,0.0,0.0,0.0,0.0,0.0,0.0,0.0,0.0,0.0,0.0,0.0,0.0,0.0,0.0,0.0,0.0,0.0,0.0,0.2364,0.2145,0.1667,0.1374,0.1342,0.1327,0.1269,0.0,0.0,0.0,0.0,0.0,0.0,0.0,0.0,0.0,0.0,0.0,0.0,0.0,0.0,0.0,0.0,0.0,0.0,0.0,0.0,0.0,0.0,0.0,0.0,0.0,0.0,0.0,0.0,0.0,0.0,0.0,0.0,0.0,0.0,0.0,0.0,0.0,0.0,0.0,0.0,0.0,0.0,0.0,0.0,0.0,0.0,0.0,0.0,0.0,0.0,0.0,0.0,0.0,0.0,0.0,0.0,0.0,0.0,0.0,0.0,0.0,0.0,0.0,0.0,0.0,0.0,0.0,0.0,0.0,0.0,0.0,0.0,0.0,0.0,0.0,0.0,0.0,0.0,0.0,0.0,0.0,0.0,0.0,0.0,0.0,0.0,0.0,0.0,0.0,0.0,0.0,0.0,0.0,0.0,0.0,0.0,0.0,0.0,0.0,0.0,0.0,0.0,0.0,0.0,0.0,0.0,0.0,0.0,0.2729,0.2355,0.1755,0.1391,0.1389,0.1335,0.1266,0.0,0.0,0.0,0.0,0.0,0.0,0.0,0.0,0.0,0.0,0.0,0.0,0.0,0.0,0.0,0.0,0.0,0.0,0.0,0.0,0.0,0.0,0.0,0.0,0.0,0.0,0.0,0.0,0.0,0.0,0.0,0.0,0.0,0.0,0.0,0.0,0.0,0.0,0.0,0.0,0.0,0.0,0.0,0.0,0.0,0.0,0.0,0.0,0.0,0.0,0.0,0.0,0.0,0.0,0.0,0.0,0.0,0.0,0.0,0.0,0.0,0.0,0.0,0.0,0.0,0.0,0.0,0.0,0.0,0.0,0.0,0.0,0.0,0.0,0.0,0.0,0.0,0.0,0.0,0.0,0.0,0.0,0.0,0.0,0.0,0.0,0.0,0.0,0.0,0.0,0.0,0.0,0.0,0.0,0.0,0.0,0.0,0.0,0.0,0.0,0.0,0.0,0.0,0.0,0.0,0.0,0.0,0.0,0.2853,0.2772,0.1886,0.1391,0.139,0.1335,0.1275,0.0,0.0,0.0,0.0,0.0,0.0,0.0,0.0,0.0,0.0,0.0,0.0,0.0,0.0,0.0,0.0,0.0,0.0,0.0,0.0,0.0,0.0,0.0,0.0,0.0,0.0,0.0,0.0,0.0,0.0,0.0,0.0,0.0,0.0,0.0,0.0,0.0,0.0,0.0,0.0,0.0,0.0,0.0,0.0,0.0,0.0,0.0,0.0,-0.2773,0.0,0.0,0.0,0.0,0.0,0.0,0.0,0.0,0.0,0.0,0.0,0.0,0.0,0.0,0.0,0.0,0.0,0.0,0.0,0.0,0.0,0.0,0.0,0.0,0.0,0.0,0.0,0.0,0.0,0.0,0.0,0.0,0.0,0.0,0.0,0.0,0.0,0.0,0.0,0.0,0.0,0.0,0.0,0.0,0.0,0.0,0.0,0.0,0.0,0.0,0.0,0.0,0.0,0.0,0.0,0.0,0.0,0.0,0.0,0.3608,0.3067,0.2387,0.1855,0.1412,0.1357,0.1305,0.0,0.0,0.0,0.0,0.0,0.0,0.0,0.0,0.0,0.0,0.0,0.0,0.0,0.0,0.0,0.0,0.0,0.0,0.0,0.0,0.0,0.0,0.0,0.0,0.0,0.0,0.0,0.0,0.0,0.0,0.0,0.0,0.0,0.0,0.0,0.0,0.0,0.0,0.0,0.0,0.0,0.0,0.0,0.0,0.0,0.0,0.0,0.0,0.0,0.0,0.0,0.0,0.0,0.0,0.0,0.0,0.0,0.0,0.0,0.0,0.0,0.0,0.0,0.0,0.0,0.0,0.0,0.0,0.0,0.0,0.0,0.0,0.0,0.0,0.0,0.0,0.0,0.0,0.0,0.0,0.0,0.0,0.0,0.0,0.0,0.0,0.0,0.0,0.0,0.0,0.0,0.0,0.0,0.0,0.0,0.0,0.0,0.0,0.0,0.0,0.0,0.0,0.0,0.0,0.0,0.0,0.0,0.4983,0.4463,0.351,0.303,0.2375,0.1597,0.1414,0.1367,0.1328,0.0,0.0,0.0,0.0,0.0,0.0,0.0,0.0,0.0,0.0,0.0,0.0,0.0,0.0,0.0,0.0,0.0,0.0,0.0,0.0,0.0,0.0,0.0,0.0,0.0,0.0,0.0,0.0,0.0,0.0,0.0,0.0,0.0,0.0,0.0,0.0,0.0,0.0,0.1847,0.1347,0.0,0.0,0.0,0.0,0.0,0.0,0.0,0.0,-0.3273,0.0,0.0,0.0,0.0,0.0,0.0,0.0,0.0,0.0,0.0,0.0,0.0,0.0,0.0,0.0,0.0,0.0,0.0,0.0,0.0,0.0,0.0,0.0,0.0,0.0,0.0,0.0,0.0,0.0,0.0,0.0,0.0,0.0,0.0,0.0,0.0,0.0,0.0,0.0,0.0,0.0,0.0,0.0,0.0,0.0,0.0,0.0,0.0,0.0,0.0,0.0,0.0,0.0,0.0,0.0,0.0,0.5417,0.4982,0.4723,0.4687,0.3335,0.2574,0.2403,0.1855,0.1516,0.1448,0.0,0.0,0.0,0.0,0.0,0.0,0.0,0.0,0.0,0.0,0.0,0.0,0.0,0.0,0.0,0.0,0.0,0.0,0.0,0.0,0.0,0.0,0.0,0.0,0.0,0.0,0.0,0.0,0.0,0.0,0.0,0.0,0.0,0.0,0.0,0.0,0.0,0.0,0.0,0.0969,0.0526,0.0,0.0,0.0,0.0,0.0,0.0,0.0,0.0,-0.3758,0.0,0.0,0.0,0.0,0.0,0.0,0.0,0.0,0.0,0.0,0.0,0.0,0.0,0.0,0.0,0.0,0.0,0.0,0.0,0.0,0.0,0.0,0.0,0.0,0.0,0.0,0.0,0.0,0.0,0.0,0.0,0.0,0.0,0.0,0.0,0.0,0.0,0.0,0.0,0.0,0.0,0.0,0.0,0.0,0.0,0.0,0.0,0.0,0.0,0.0,0.0,0.0,0.0,0.0,0.0,0.5682,0.5622,0.5422,0.5023,0.4299,0.3501,0.2638,0.2462,0.2147,0.0,0.0,0.0,0.0,0.0,0.0,0.0,0.0,0.0,0.0,0.0,0.0,0.0,0.0,0.0,0.0,0.0,0.0,0.0,0.0,0.0,0.0,0.0,0.0,0.0,0.0,0.0,0.0,0.0,0.0,0.0,0.0,0.0,0.0,0.0,0.0,0.0,0.0,0.0,0.0,0.0966,0.0433,-0.0074,0.0,0.0,0.0,0.0,0.0,0.0,-0.3424,-0.3763,0.0,0.0,0.0,0.0,0.0,0.0,0.0,0.0,0.0,0.0,0.0,0.0,0.0,0.0,0.0,0.0,0.0,0.0,0.0,0.0,0.0,0.0,0.0,0.0,0.0,0.0,0.0,0.0,0.0,0.0,0.0,0.0,0.0,0.0,0.0,0.0,0.0,0.0,0.0,0.0,0.0,0.0,0.0,0.0,0.0,0.0,0.0,0.0,0.0,0.0,0.0,0.0,0.0,0.0,0.0,0.5933,0.6269,0.6069,0.5311,0.5188,0.4503,0.3137,0.3163,0.2873,0.0,0.0,0.0,0.0,0.0,0.0,0.0,0.0,0.0,0.0,0.0,0.0,0.0,0.0,0.0,0.0,0.0,0.0,0.0,0.0,0.0,0.0,0.0,0.0,0.0,0.0,0.0,0.0,0.0,0.0,0.0,0.0,0.0,0.0,0.0,0.0,0.0,0.0,0.0,0.0,0.0,0.0336,0.0077,-0.051,0.0,0.0,0.0,0.0,-0.2746,-0.3382,0.0,0.0,0.0,0.0,0.0,0.0,0.0,0.0,0.0,0.0,0.0,0.0,0.0,0.0,0.0,0.0,0.0,0.0,0.0,0.0,0.0,0.0,0.0,0.0,0.0,0.0,0.0,0.0,0.0,0.0,0.0,0.0,0.0,0.0,0.0,0.0,0.0,0.0,0.0,0.0,0.0,0.0,0.0,0.0,0.0,0.0,0.0,0.0,0.0,0.0,0.0,0.0,0.0,0.0,0.0,0.0,0.6256,0.6301,0.6246,0.6126,0.5416,0.4904,0.4711,0.4077,0.3601,0.0,0.0,0.0,0.0,0.0,0.0,0.0,0.0,0.0,0.0,0.0,0.0,0.0,0.0,0.0,0.0,0.0,0.0,0.0,0.0,0.0,0.0,0.0,0.0,0.0,0.0,0.0,0.0,0.0,0.0,0.0,0.0,0.0,0.0,0.0,0.0,0.0,0.0,0.0,0.0,0.0,-0.0039,-0.0765,-0.0948,-0.1043,0.0,0.0,-0.2379,-0.2587,-0.3378,0.0,0.0,0.0,0.0,0.0,0.0,0.0,0.0,0.0,0.0,0.0,0.0,0.0,0.0,0.0,0.0,0.0,0.0,0.0,0.0,0.0,0.0,0.0,0.0,0.0,0.0,0.0,0.0,0.0,0.0,0.0,0.0,0.0,0.0,0.0,0.0,0.0,0.0,0.0,0.0,0.0,0.0,0.0,0.0,0.0,0.0,0.0,0.0,0.0,0.0,0.0,0.0,0.0,0.0,0.0,0.6422,0.6318,0.6405,0.6412,0.63,0.5944,0.5512,0.5002,0.4827,0.4413,0.0,0.0,0.0,0.0,0.0,0.0,0.0,0.0,0.0,0.0,0.0,0.0,0.0,0.0,0.0,0.0,0.0,0.0,0.0,0.0,0.0,0.0,0.0,0.0,0.0,0.0,0.0,0.0,0.0,0.0,0.0,0.0,0.0,0.0,0.0,0.0,0.0,0.0,0.0,0.0,0.0,0.0,0.0041,-0.0418,0.0,0.0,0.0,-0.1177,-0.1387,0.0,0.0,0.0,0.0,0.0,0.0,0.0,0.0,0.0,0.0,0.0,0.0,0.0,0.0,0.0,0.0,0.0,0.0,0.0,0.0,0.0,0.0,0.0,0.0,0.0,0.0,0.0,0.0,0.0,0.0,0.0,0.0,0.0,0.0,0.0,0.0,0.0,0.0,0.0,0.0,0.0,0.0,0.0,0.0,0.0,0.0,0.0,0.0,0.0,0.0,0.0,0.0,0.0,0.0,0.0,0.0,0.0,0.6528,0.6618,0.6602,0.6447,0.6447,0.6135,0.5506,0.5575,0.0,0.0,0.0,0.0,0.0,0.0,0.0,0.0,0.0,0.0,0.0,0.0,0.0,0.0,0.0,0.0,0.0,0.0,0.0,0.0,0.0,0.0,0.0,0.0,0.0,0.0,0.0,0.2924,0.0,0.0,0.0,0.0,0.0,0.0,0.0,0.0,0.0,0.0,0.0,0.0,0.0,0.0,0.0572,0.085,0.0301,0.0043,0.0,0.0,-0.0085,-0.0297,-0.0626,-0.0946,0.0,0.0,0.0,0.0,0.0,0.0,0.0,0.0,0.0,0.0,0.0,0.0,0.0,0.0,0.0,0.0,0.0,0.0,0.0,0.0,0.0,0.0,0.0,0.0,0.0,0.0,0.0,0.0,0.0,0.0,0.0,0.0,0.0,0.0,0.0,0.0,0.0,0.0,0.0,0.0,0.0,0.0,0.0,0.0,0.0,0.0,0.0,0.0,0.0,0.0,0.0,0.0,0.0,0.0,0.0,0.7111,0.6976,0.6865,0.6865,0.6865,0.6826,0.678,0.6441,0.6059,0.0,0.0,0.0,0.0,0.0,0.0,0.0,0.0,0.0,0.0,0.0,0.0,0.0,0.0,0.0,0.0,0.0,0.0,0.0,0.0,0.0,0.0,0.0,0.0,0.0,0.0,0.0,0.0,0.0,0.0,0.0,0.0,0.0,0.0,0.0,0.0,0.0,0.0,0.0,0.0,0.0,0.1306,0.1202,0.1135,0.1103,0.0,0.0,0.0354,0.0261,-0.0476,-0.1106,-0.1104,0.0,0.0,0.0,0.0,0.0,0.0,0.0,0.0,0.0,0.0,0.0,0.0,0.0,0.0,0.0,0.0,0.0,0.0,0.0,0.0,0.0,0.0,0.0,0.0,0.0,0.0,0.0,0.0,0.0,0.0,0.0,0.0,0.0,0.0,0.0,0.0,0.0,0.0,0.0,0.0,0.0,0.0,0.0,0.0,0.0,0.0,0.0,0.0,0.0,0.0,0.0,0.0,0.0,0.7196,0.7365,0.7176,0.7022,0.6903,0.6903,0.6903,0.6903,0.6633,0.636,0.0,0.0,0.0,0.0,0.0,0.0,0.0,0.0,0.0,0.0,0.0,0.0,0.0,0.0,0.0,0.0,0.0,0.0,0.0,0.0,0.0,0.0,0.0,0.0,0.0,0.0,0.0,0.0,0.3988,0.353,0.316,0.0,0.0,0.0,0.0,0.0,0.0,0.0,0.0,0.0,0.0,0.1734,0.1972,0.1644,0.0,0.0,0.1848,0.1654,0.1464,0.1139,0.0733,0.034,-0.0126,0.0,0.0,0.0,0.0,0.0,0.0,0.0,0.0,0.0,0.0,0.0,0.0,0.0,0.0,0.0,0.0,0.0,0.0,0.0,0.0,0.0,0.0,0.0,0.0,0.0,0.0,0.0,0.0,0.0,0.0,0.0,0.0,0.0,0.0,0.0,0.0,0.0,0.0,0.0,0.0,0.0,0.0,0.0,0.0,0.0,0.0,0.0,0.0,0.0,0.0,0.0,0.0,0.7451,0.7672,0.7407,0.7219,0.7057,0.7096,0.7057,0.7053,0.6862,0.6721,0.0,0.0,0.0,0.0,0.0,0.0,0.0,0.0,0.0,0.0,0.0,0.0,0.0,0.0,0.0,0.0,0.0,0.0,0.0,0.0,0.0,0.0,0.0,0.0,0.0,0.0,0.0,0.0,0.4631,0.4069,0.3668,0.0,0.0,0.0,0.0,0.0,0.0,0.0,0.0,0.0,0.0,0.2264,0.2627,0.2246,0.2117,0.2586,0.2613,0.2553,0.2403,0.2283,0.2038,0.1507,0.0,0.0,0.0,0.0,0.0,0.0,0.0,0.0,0.0,0.0,0.0,0.0,0.0,0.0,0.0,0.0,0.0,0.0,0.0,0.0,0.0,0.0,0.0,0.0,0.0,0.0,0.0,0.0,0.0,0.0,1.0686,0.0,0.0,0.0,0.0,0.0,0.0,0.0,0.0,0.0,0.0,0.0,0.0,0.0,0.0,0.0,0.0,0.0,0.0,0.0,0.0,0.0,0.0,0.7856,0.8093,0.7718,0.7522,0.7484,0.748,0.748,0.7476,0.728,0.7109,0.6982,0.0,0.0,0.0,0.0,0.0,0.0,0.0,0.0,0.0,0.0,0.0,0.0,0.0,0.0,0.0,0.0,0.0,0.0,0.0,0.0,0.0,0.0,0.0,0.0,0.0,0.0,0.5915,0.5062,0.4442,0.0,0.0,0.0,0.0,0.0,0.0,0.0,0.0,0.0,0.0,0.3016,0.3004,0.2956,0.2959,0.2962,0.2956,0.2957,0.2856,0.2801,0.2614,0.2416,0.0,0.0,0.0,0.0,0.0,0.0,0.0,0.0,0.0,0.0,0.0,0.0,0.0,0.0,0.0,0.0,0.0,0.0,0.0,0.0,0.0,0.0,0.0,0.0,0.0,0.0,0.0,1.2447,1.2576,0.0,0.0,0.0,0.0,0.0,0.0,0.0,0.0,0.0,0.0,0.0,1.2228,1.2085,0.0,0.0,0.0,0.0,0.0,0.0,0.0,0.0,0.0,0.0,0.0,0.0,0.8825,0.8504,0.8365,0.8055,0.7518,0.7518,0.7518,0.7518,0.7427,0.7304,0.715,0.0,0.0,0.0,0.0,0.0,0.0,0.0,0.0,0.0,0.0,0.0,0.0,0.0,0.0,0.0,0.0,0.0,0.0,0.0,0.0,0.0,0.0,0.0,0.0,0.0,0.6749,0.0,0.0,0.0,0.0,0.0,0.0,0.0,0.0,0.0,0.0,0.0,0.3808,0.3593,0.3408,0.3305,0.3356,0.3196,0.3065,0.0,0.0,0.0,0.0,0.0,0.0,0.0,0.0,0.0,0.0,0.0,0.0,0.0,0.0,-0.2253,-0.3006,-0.3508,-0.3865,-0.3948,0.0,0.0,0.0,0.0,0.0,0.0,0.0,0.0,0.0,0.0,0.0,0.0,0.0,0.0,0.0,0.0,1.4288,0.0,0.0,0.0,0.0,0.0,0.0,0.0,0.0,1.3909,1.3613,1.2897,1.2819,1.2621,0.0,1.2235,1.1627,0.0,0.0,0.0,0.0,0.0,0.0,0.0,0.0,0.9632,0.9263,0.915,0.8884,0.8351,0.8309,0.8351,0.8313,0.8313,0.8223,0.8033,0.8406,0.8397,0.0,0.0,0.0,0.0,0.0,0.0,0.0,0.0,0.0,0.0,0.0,0.0,0.0,0.0,0.0,0.0,0.0,0.0,0.0,0.0,0.0,0.0,0.0,0.7194,0.0,0.0,0.0,0.0,0.0,0.0,0.0,0.0,0.0,0.4427,0.4357,0.43,0.4084,0.3733,0.3509,0.3489,0.0,0.0,0.0,0.0,0.0,0.0,0.0,0.2762,0.262,0.2239,0.1859,0.1383,0.1144,0.0763,-0.0048,0.0,0.0,-0.2674,-0.3435,-0.3956,-0.4041,-0.4059,-0.3992,-0.3992,-0.4063,-0.4083,0.0,0.0,0.0,0.0,0.0,0.0,0.0,0.0,1.5325,1.5423,0.0,1.5577,0.0,0.0,0.0,0.0,0.0,0.0,0.0,0.0,1.5421,1.5049,1.402,1.3802,1.3538,1.3207,1.2989,1.2768,1.2473,1.1874,0.0,0.0,0.0,0.0,0.0,0.0,1.0225,1.0207,1.0013,0.9933,0.989,0.9852,0.9857,0.9852,0.9852,0.9755,0.9614,0.9815,0.992,0.9881,0.9441,0.0,0.0,0.0,0.0,0.0,0.0,0.0,0.0,0.0,0.0,0.0,0.0,0.0,0.0,0.0,0.0,0.0,0.0,0.0,0.0,0.7513,0.0,0.0,0.0,0.0,0.0,0.0,0.0,0.0,0.0,0.0,0.5173,0.4789,0.4528,0.4583,0.0,0.0,0.0,0.0,0.3104,0.3153,0.3104,0.3104,0.3105,0.3105,0.3105,0.3105,0.0,0.0,0.1433,0.1721,0.1482,-0.0334,-0.1001,-0.1657,-0.2227,-0.3179,-0.3879,-0.4088,-0.4024,-0.4008,-0.4008,-0.4122,-0.4177,1.7619,0.0,0.0,0.0,0.0,1.6078,1.6528,1.7296,1.7332,1.7433,1.7521,1.7408,0.0,0.0,0.0,0.0,0.0,0.0,1.6373,1.586,1.5418,1.4767,1.4027,1.3944,1.3732,1.3426,1.3346,1.3295,1.3208,1.3014,1.2459,1.1594,0.0,0.0,0.0,0.0,1.1329,1.0663,1.07,1.0464,0.989,0.989,0.989,0.989,0.989,0.99,0.9835,1.0436,1.0578,1.014,1.0734,0.0,0.0,0.0,0.0,0.0,0.0,0.0,0.0,0.0,0.0,0.0,0.0,0.0,0.0,0.0,0.0,0.0,0.0,0.0,0.807,0.8029,0.8061,0.0,0.0,0.0,0.0,0.0,0.0,0.0,0.0,0.0,0.596,0.5547,0.5081,0.0,0.0,0.4145,0.4123,0.3775,0.3428,0.3477,0.0,0.0,0.0,0.3179,0.3179,0.3179,0.2979,0.283,0.2681,0.2583,0.2384,0.1835,0.0736,-0.0145,-0.0433,-0.2518,-0.3846,-0.3477,-0.3754,-0.418,-0.4226,-0.4246,-0.4263,1.9968,1.8632,1.7757,1.7514,1.7688,1.7844,1.8193,1.8618,1.8618,1.8705,1.8737,1.862,1.819,1.7559,1.7584,0.0,0.0,0.0,1.7725,1.7183,1.6865,1.6246,1.5395,1.5034,1.4706,1.438,1.3926,1.3755,1.391,1.3748,1.3346,1.2692,0.0,0.0,1.2008,1.2357,1.2187,1.1552,1.1632,1.1471,1.0981,1.0981,1.1019,1.1093,1.1093,1.1099,1.1093,1.1552,1.1624,1.1307,1.1817,1.1611,0.0,0.0,0.0,0.0,0.0,0.0,0.0,0.0,0.0,0.0,0.0,0.7345,0.7335,0.0,0.0,0.0,0.7404,0.7921,0.8467,0.8559,0.0,0.0,0.0,0.0,0.0,0.0,0.0,0.7513,0.6962,0.6582,0.6366,0.5992,0.5622,0.5329,0.4939,0.464,0.4437,0.0,0.3685,0.3484,0.3332,0.318,0.318,0.318,0.318,0.318,0.318,0.318,0.318,0.3079,0.2775,0.2216,0.1399,0.0741,0.0638,-0.144,-0.2951,-0.2417,-0.272,-0.3119,-0.3138,-0.3133,-0.3133,2.2014,2.1865,2.0394,1.9648,1.9551,1.9912,1.9834,1.9453,1.9453,1.9394,1.9336,1.9346,1.9216,1.9004,1.8848,0.0,0.0,1.9505,1.9259,1.8674,1.9049,1.8601,1.7471,1.6679,1.6101,1.5672,1.463,1.4249,1.4474,1.4165,1.4056,1.4011,1.357,1.3059,1.268,1.2826,1.282,1.2636,1.2599,1.2636,1.2599,1.2599,1.2709,1.2856,1.2872,1.2872,1.29,1.2872,1.2872,1.2886,1.267,1.2305,1.1778,0.0,0.0,0.0,0.0,0.0,0.0,0.0,0.0,0.0,0.0,0.0,0.0,0.0,0.0,0.0,0.8265,0.0,0.8755,0.9118,0.0,0.0,0.0,0.9657,0.9613,0.9401,0.8902,0.8052,0.0,0.0,0.0,0.0,0.6042,0.6042,0.5541,0.5039,0.4539,0.4286,0.3932,0.3533,0.333,0.3282,0.3331,0.323,0.318,0.318,0.318,0.318,0.3229,0.3172,0.2668,0.1708,0.1356,0.1247,0.098,0.0,-0.087,-0.1068,-0.1337,-0.1468,-0.1529,-0.1566,-0.1566,2.3083,2.2678,2.2735,2.2197,2.1279,2.1367,2.1172,2.0742,2.0732,2.0352,1.9766,1.9775,1.9553,1.9214,1.9178,1.9352,1.9673,1.9485,1.9312,1.9115,1.8563,1.799,1.7519,1.7307,1.6646,1.5726,1.541,1.5011,1.4504,1.443,1.4394,1.4386,1.4236,1.38,1.3068,1.3127,1.3046,1.2826,1.2826,1.282,1.2826,1.2826,1.2856,1.29,1.2669,1.2619,1.2879,1.2633,1.2655,1.2879,1.2983,1.2791,1.2347,1.1942,0.0,0.0,0.0,0.0,0.0,0.0,0.0,0.0,0.0,0.9495,0.9667,0.0,0.9443,0.0,0.8963,0.9039,0.937,0.9653,0.0,0.0,1.0524,1.0481,1.0299,0.9996,0.9657,0.9196,0.822,0.7493,0.7325,0.6736,0.6287,0.6287,0.5837,0.5436,0.5286,0.5087,0.4889,0.4688,0.4183,0.3833,0.3783,0.343,0.3229,0.318,0.323,0.318,0.318,0.3141,0.3013,0.2663,0.2437,0.2267,0.216,0.1727,0.1332,0.0977,-0.0231,-0.1422,-0.1393,-0.1387,-0.1387,2.3794,2.3338,2.3654,2.3278,2.2492,2.2502,2.2094,2.153,2.152,2.1125,2.0472,2.0151,1.985,1.957,1.9561,1.9795,2.0167,1.9984,1.9893,1.9854,1.9402,1.9037,1.8866,1.8467,1.797,1.7286,1.6768,1.6276,1.5787,1.5289,1.4942,1.4767,1.4437,1.3959,1.3375,1.3491,1.3417,1.3163,1.3083,1.3053,1.3046,1.3046,1.3083,1.3156,1.2992,1.2978,1.3149,1.2985,1.2978,1.3149,1.3273,1.3122,1.2742,1.25,1.2078,0.0,0.0,0.0,0.0,0.0,0.0,0.0,0.0,0.0,0.0,0.0,1.0728,0.0,0.9816,0.0,0.9885,1.0197,1.0512,1.0693,1.0901,1.098,1.084,1.064,1.0359,0.9813,0.9122,0.8425,0.768,0.7232,0.6786,0.6487,0.6137,0.5887,0.5636,0.5436,0.529,0.5037,0.4636,0.4384,0.4334,0.3904,0.3536,0.3485,0.3314,0.315,0.3149,0.3124,0.3098,0.3097,0.2927,0.2811,0.281,0.2572,0.2321,0.2049,0.111,0.0229,-0.009,-0.0134,-0.0134,2.4408,2.4055,2.3995,2.3753,2.34,2.3331,2.2817,2.1999,2.1959,2.1648,2.1056,2.0504,2.0108,1.9919,1.9881,2.0144,2.0594,2.0604,2.0634,2.0683,2.0683,2.0683,2.0644,1.9863,1.9392,1.921,1.8236,1.7575,1.7294,1.639,1.5691,1.5287,1.4659,1.4134,1.3726,1.3985,1.3933,1.3499,1.3302,1.3229,1.3229,1.3236,1.3302,1.3499,1.3455,1.3455,1.3492,1.3455,1.3455,1.3492,1.3492,1.3367,1.3089,1.2933,1.2719,0.0,1.215,0.0,0.0,0.0,0.0,0.0,0.0,0.0,0.0,1.2218,1.2163,1.1727,1.0852,1.0411,1.056,1.0796,1.0934,1.0938,1.109,1.1194,1.1194,1.1194,1.09,1.0216,1.0068,0.9422,0.818,0.7829,0.7481,0.6783,0.6584,0.6384,0.5834,0.5734,0.5584,0.5085,0.4924,0.4854,0.4684,0.4288,0.4004,0.39,0.3572,0.3193,0.3199,0.314,0.3086,0.3084,0.3075,0.3068,0.3075,0.2838,0.2637,0.2542,0.2262,0.193,0.1489,0.13,0.1436,2.5495,2.5268,2.5033,2.4784,2.453,2.4019,2.3237,2.2402,2.2402,2.1748,2.0634,2.0554,2.0266,1.9853,1.9862,2.0129,2.0502,2.0512,2.0701,2.1079,2.1089,2.1089,2.1079,2.0741,2.0043,1.9075,1.8985,1.8213,1.6843,1.6987,1.6834,1.6405,1.6254,1.5726,1.484,0.0,0.0,0.0,1.3463,1.3419,1.3455,1.3455,1.3463,1.3484,1.3236,0.0,1.347,1.3236,1.3221,1.3477,1.3492,0.0,0.0,0.0,0.0,0.0,0.0,0.0,0.0,0.0,0.0,0.0,1.4089,1.4042,1.3904,1.4074,1.4045,1.3742,1.2865,1.221,1.2025,1.1466,1.1137,1.1137,1.117,1.1194,1.1194,1.1194,1.1145,1.0998,1.0408,0.992,0.9521,0.8977,0.8276,0.7531,0.7378,0.7083,0.6384,0.6237,0.6187,0.6079,0.5674,0.5147,0.463,0.4466,0.4405,0.4305,0.4012,0.371,0.3608,0.3284,0.3022,0.3021,0.2983,0.2956,0.2956,0.2943,0.2821,0.2584,0.2518,0.2347,0.1848,0.1705,0.166,2.6047,0.0,2.5602,2.5207,0.0,2.46,2.3896,2.2839,2.2574,2.1812,2.07,2.0737,2.0542,2.0199,1.9988,2.0129,2.0504,2.0504,2.0624,2.0845,2.1104,2.1215,2.1205,2.0879,2.0374,1.9733,1.962,1.8995,1.7962,1.7796,1.7503,1.7036,1.6674,1.618,1.556,1.5444,1.4764,1.3492,1.3492,1.3492,1.3492,1.3492,1.3492,1.3484,0.0,0.0,0.0,0.0,0.0,0.0,0.0,0.0,0.0,0.0,0.0,1.3629,1.3927,1.3997,1.3739,1.4265,1.4638,1.4805,1.5526,1.5791,1.5404,1.5157,1.5001,1.4962,1.4105,1.3507,1.3317,1.2475,1.1912,1.1912,1.1482,1.1194,1.1194,1.1194,1.1194,1.1194,1.085,1.0462,1.0068,0.9669,0.9072,0.8326,0.7829,0.7481,0.7033,0.6637,0.6387,0.6384,0.6142,0.5766,0.5413,0.5023,0.4853,0.4881,0.4449,0.4044,0.3842,0.3508,0.3234,0.3005,0.2938,0.292,0.2921,0.2899,0.2907,0.2749,0.2717,0.2638,0.2203,0.1974,0.175,2.6521,2.6103,2.5993,2.5461,2.4755,2.489,2.4302,2.3153,0.0,0.0,0.0,2.1042,2.0879,2.0558,2.0238,2.0269,2.0495,2.0565,2.0565,2.0515,2.104,2.128,2.1179,2.075,2.0491,2.0447,2.0012,1.9524,1.9088,1.8549,1.804,1.7579,1.6966,1.6541,1.6254,1.5948,1.5223,1.4057,1.3912,1.3884,1.3884,1.3884,1.3884,1.3884,1.3775,1.3732,1.3792,1.3653,1.3675,1.3873,1.3771,1.3859,1.426,1.4176,1.4263,1.4521,1.4641,1.471,1.4717,1.5165,1.5511,1.5624,1.6513,1.6919,1.6573,1.6091,1.5899,1.6091,1.5276,1.4644,1.4507,1.3542,1.2872,1.2737,1.1965,1.1487,1.1487,1.1487,1.1536,1.1487,1.1394,1.1096,1.0511,1.0314,0.9916,0.9122,0.8524,0.7829,0.758,0.6883,0.6376,0.6393,0.6244,0.623,0.6155,0.5724,0.5408,0.5445,0.4942,0.4357,0.4127,0.3864,0.3554,0.3171,0.3025,0.3028,0.2936,0.2953,0.2942,0.2924,0.2883,0.2839,0.2607,0.2251,0.1939,2.7164,2.705,2.6252,2.5802,2.565,2.4529,2.3732,2.3122,2.2283,2.1573,2.1108,2.1501,2.1232,2.0437,2.0793,2.0772,2.0447,2.0818,2.0797,0.0,2.1292,2.1487,2.1106,2.0849,2.0588,2.0241,1.9933,1.9374,1.8692,1.8894,1.8809,1.8397,1.8226,1.7842,1.7198,1.6541,1.6132,1.5913,1.5569,1.5392,1.5392,1.5392,1.5392,1.5357,1.4788,1.4571,1.4832,1.4306,1.4404,1.5293,1.4735,1.4688,1.5379,1.4981,1.4709,1.4769,1.5189,1.5435,1.5435,1.5787,1.6221,1.6797,1.6995,1.7105,1.7093,1.7445,1.7725,1.7732,1.6814,1.5981,1.5311,1.4364,1.3619,1.2969,1.2667,1.257,1.2575,1.2542,1.2532,1.2467,1.2175,1.1888,1.1702,1.1306,1.082,1.0072,0.9723,0.9221,0.7975,0.6933,0.6446,0.6304,0.6189,0.6121,0.6121,0.5955,0.5835,0.597,0.5513,0.5016,0.4901,0.4509,0.4066,0.3668,0.3577,0.3444,0.3124,0.3037,0.301,0.2944,0.2951,0.2926,0.2846,0.2595,0.2381,2.732,2.7237,2.6573,2.6148,2.5782,2.4447,2.3608,2.3163,2.2749,2.2294,2.1869,2.1838,2.1569,2.1149,2.1098,2.101,2.0767,2.0715,2.0627,2.0426,2.0819,2.0912,2.0726,2.0633,2.0504,2.0298,2.0181,1.993,1.9583,1.9757,1.9737,1.9522,1.9205,1.8747,1.8158,1.7696,1.7491,1.7457,1.6515,1.6026,1.6026,1.6026,1.6018,1.6026,1.5925,1.5978,1.6111,1.6046,1.623,1.6711,1.6396,1.645,1.6979,1.6726,1.6477,1.6206,1.6381,1.6322,1.5899,1.6288,1.673,1.7208,1.7557,1.7805,1.7896,1.8003,1.8179,1.8288,1.7753,1.7344,1.7118,1.6224,1.5561,1.5434,1.4511,1.381,1.3658,1.3364,1.3089,1.2878,1.2725,1.2652,1.2652,1.2454,1.2207,1.1746,1.1269,1.0395,0.93,0.8563,0.7657,0.6607,0.6263,0.6243,0.6226,0.6083,0.6064,0.6165,0.5942,0.5592,0.5391,0.4984,0.4604,0.4134,0.4002,0.3819,0.3412,0.3342,0.324,0.2951,0.2965,0.2985,0.2931,0.2851,0.2671,2.732,2.7268,2.6812,2.6248,2.5647,2.4633,2.3919,2.3494,2.3391,2.3143,2.276,2.2221,2.1963,2.1911,2.1476,2.1217,2.1056,2.0819,2.0591,2.0405,2.0498,2.0524,2.042,2.0292,2.0292,2.0354,2.0327,2.0317,2.0374,2.0374,2.0374,2.0333,1.9846,1.9377,1.9005,1.8758,1.8607,1.8549,1.7621,1.6989,1.6802,1.6793,1.683,1.6983,1.7151,1.7334,1.7515,1.7721,1.7911,1.8105,1.7963,1.8069,1.8472,1.8345,1.8097,1.7696,1.7738,1.7424,1.6775,1.7125,1.7474,1.7611,1.8011,1.8364,1.8511,1.8373,1.8365,1.8527,1.845,1.8417,1.8339,1.7874,1.7519,1.7549,1.631,1.5307,1.4861,1.4447,1.3943,1.3495,1.343,1.344,1.3435,1.3297,1.3077,1.2892,1.2366,1.157,1.0818,1.0288,0.9255,0.7845,0.6926,0.6623,0.658,0.635,0.6224,0.6257,0.6162,0.5931,0.5605,0.5383,0.5089,0.4662,0.4518,0.4301,0.3886,0.3799,0.3624,0.3266,0.3162,0.3152,0.3048,0.3021,0.2868,2.732,2.7237,2.6812,2.6072,2.5326,2.5096,2.4755,2.4321,2.4002,2.3805,2.3619,2.2822,2.2439,2.2366,2.1942,2.1518,2.1186,2.1507,2.1217,2.0545,2.0855,2.0834,2.0354,2.0017,2.0048,2.0327,2.0058,2.0166,2.0452,2.0426,2.0395,2.0333,1.9986,1.9768,1.9655,1.9259,1.9052,1.9042,1.9342,1.9079,1.8367,1.8313,1.8502,1.8899,1.8312,1.8362,1.9005,1.8454,1.8588,1.95,1.8952,1.89,1.9545,1.9152,1.8815,1.878,1.8979,1.8861,1.837,1.8701,1.8772,1.8289,1.8324,1.8507,1.8788,1.8735,1.8735,1.8783,1.9082,1.8925,1.8344,1.8413,1.8361,1.7946,1.7491,1.7073,1.6367,1.6179,1.5821,1.4996,1.4466,1.4197,1.41,1.3691,1.3193,1.309,1.2905,1.25,1.1804,1.1512,1.117,0.9951,0.8616,0.7628,0.7451,0.6767,0.646,0.6357,0.6218,0.602,0.5825,0.5676,0.5497,0.5144,0.499,0.4804,0.4503,0.433,0.4143,0.383,0.3668,0.3607,0.3219,0.3232,0.3123,2.732,2.7258,2.6812,2.6206,2.5616,2.5303,2.4921,2.4487,2.4311,2.4126,2.3898,2.3484,2.3018,2.248,2.2014,2.1694,2.1528,2.1408,2.117,2.0798,2.0762,2.0472,2.0069,2.0141,2.0131,2.0089,2.0379,2.0648,2.0845,2.1104,2.1104,2.0855,2.0638,2.042,2.0162,1.9965,1.9862,1.9872,2.0058,1.9988,1.9694,1.9639,1.9721,1.9879,1.9899,2.0025,2.0332,2.0279,2.0543,2.0962,2.0682,2.0644,2.1011,2.0769,2.0372,1.9913,1.9734,1.9715,1.9743,2.0137,2.026,2.0035,1.9684,1.9562,1.9604,1.9142,1.8781,1.8829,1.9161,1.9296,1.9204,1.9522,1.9652,1.9462,1.9116,1.8637,1.8196,1.7364,1.6594,1.5942,1.5387,1.4956,1.4745,1.4371,1.4036,1.3898,1.3794,1.3474,1.3173,1.2937,1.2597,1.2124,1.075,0.9522,0.8864,0.7786,0.7217,0.6952,0.6566,0.6185,0.5985,0.5877,0.5703,0.5546,0.5546,0.5393,0.4927,0.4853,0.4767,0.4489,0.4621,0.4726,0.4609,0.4772,0.4843,2.732,2.7258,2.6936,2.6532,2.6096,2.574,2.522,2.4714,2.4693,2.4478,2.4064,2.3939,2.3525,2.2853,2.2273,2.1932,2.1776,2.1455,2.13,2.1248,2.0824,2.0379,2.0006,2.0131,2.0079,1.9969,2.0534,2.1005,2.13,2.1631,2.1631,2.1331,2.1139,2.0912,2.0638,2.0478,2.0374,2.0385,2.0534,2.0581,2.0591,2.0705,2.0705,2.0659,2.0928,2.1176,2.1311,2.1621,2.1807,2.1769,2.1807,2.1807,2.1807,2.1807,2.1581,2.1143,2.0963,2.092,2.1109,2.1489,2.1603,2.1326,2.0918,2.0701,2.0529,1.9812,1.9279,1.9266,1.9421,1.9678,1.9893,2.0273,2.0647,2.0842,2.0344,1.9876,1.9381,1.8407,1.7662,1.7041,1.6426,1.5728,1.5212,1.4834,1.4586,1.4521,1.4364,1.4298,1.4298,1.3913,1.3678,1.3678,1.2592,1.1432,1.0197,0.8859,0.8084,0.7736,0.7269,0.681,0.6444,0.6448,0.643,0.6563,0.6382,0.6382,0.6384,0.619,0.5947,0.5728,0.5779,0.6012,0.5946,0.6271,0.6457,2.732,2.7299,2.7289,2.6998,2.6584,2.6532,2.5999,2.521,2.5148,2.489,2.4445,2.4084,2.3898,2.3743,2.2873,2.2232,2.1849,2.1766,2.1745,2.1725,2.13,2.0808,2.0343,2.0031,1.9844,1.9896,2.0327,2.0969,2.1714,2.1787,2.1797,2.1745,2.1352,2.1124,2.1041,2.0674,2.0452,2.0529,2.0897,2.1083,2.1135,2.1507,2.1476,2.1135,2.1114,2.1342,2.1694,2.1787,2.1807,2.1807,2.1807,2.1807,2.1807,2.1807,2.1945,2.2321,2.2754,2.2787,2.2435,2.276,2.2635,2.1915,2.1702,2.165,2.1596,2.0791,2.0257,2.0257,2.0071,1.9974,2.007,2.0506,2.0845,2.0909,2.0865,2.0439,1.9805,1.9539,1.9146,1.8383,1.7487,1.6542,1.5308,1.4877,1.4655,1.4467,1.4316,1.4298,1.4298,1.425,1.4202,1.4094,1.3609,1.2844,1.1392,0.9984,0.9023,0.871,0.8409,0.7815,0.7767,0.7709,0.7665,0.7661,0.7613,0.773,0.7965,0.7987,0.7816,0.7568,0.7244,0.7248,0.7316,0.6917,0.7259,2.7987,2.7309,2.732,2.7206,2.704,2.675,2.6382,2.6041,2.5471,2.5106,2.4879,2.4498,2.4146,2.3898,2.3587,2.2967,2.2263,2.1942,2.1952,2.2159,2.1766,2.1466,2.128,2.0845,2.0462,2.0286,2.0659,2.1186,2.1735,2.1807,2.1807,2.1797,2.1652,2.1559,2.149,2.1356,2.13,2.1284,2.1497,2.1559,2.1549,2.1725,2.1714,2.1569,2.1559,2.1642,2.1807,2.1807,2.1807,2.1807,2.1807,2.1807,2.1807,2.1807,2.2159,2.2842,2.3101,2.3382,2.3691,2.3902,2.3874,2.3517,2.2931,2.2614,2.2438,2.1774,2.1204,2.1157,2.0951,2.0795,2.0808,2.0897,2.0925,2.0925,2.0925,2.0814,2.0454,2.005,1.9576,1.9088,1.8203,1.7015,1.6155,1.5509,1.495,1.4418,1.4298,1.4346,1.4298,1.4298,1.4298,1.4232,1.3826,1.3304,1.2905,1.1365,1.0314,0.9979,0.9576,0.8833,0.8504,0.8452,0.84,0.841,0.8521,0.8712,0.8842,0.8855,0.8813,0.8717,0.8453,0.8651,0.8715,0.8532,0.8909,2.9154,2.8387,2.8351,2.8294,2.8179,2.7914,2.7688,2.7495,2.6883,2.6517,2.627,2.555,2.5041,2.4682,2.4179,2.3567,2.2904,2.2325,2.2283,2.2656,2.2252,2.1952,2.1776,2.1487,2.1021,2.054,2.085,2.1352,2.1756,2.1807,2.1807,2.1807,2.1807,2.1807,2.1807,2.1807,2.1807,2.1807,2.1807,2.1807,2.1807,2.1807,2.1807,2.1807,2.1807,2.1807,2.1807,2.1807,2.1807,2.1807,2.1807,2.1807,2.1818,2.1942,2.2377,2.308,2.3339,2.3732,2.4363,2.4507,2.4497,2.4497,2.396,2.3551,2.3497,2.2702,2.2227,2.2119,2.1949,2.1808,2.1765,2.1578,2.1267,2.1019,2.0925,2.0925,2.0873,2.0411,1.999,1.959,1.8658,1.7668,1.6882,1.6207,1.5504,1.4771,1.4627,1.4634,1.4346,1.4298,1.425,1.4165,1.3906,1.3597,1.3271,1.2299,1.144,1.1094,1.0677,0.9893,0.949,0.9393,0.9323,0.9306,0.9387,0.952,0.9577,0.96,0.9583,0.9562,0.9756,0.9948,1.01,1.0203,1.0226,3.0652,3.0361,3.0496,3.0192,3.0011,2.9931,2.986,2.9404,2.9311,2.8891,2.8339,2.7286,2.6646,2.629,2.504,2.4117,2.3959,2.3255,2.2947,2.31,2.2735,2.2338,2.1973,2.1993,2.1517,2.0715,2.0938,2.1373,2.1787,2.1859,2.1869,2.1818,2.1849,2.1939,2.1838,2.1877,2.1856,2.1887,2.1887,2.1845,2.1807,2.1845,2.1845,2.1845,2.1845,2.1845,2.1807,2.1807,2.1807,2.1807,2.1807,2.1807,2.1921,2.2252,2.2729,2.3205,2.366,2.4053,2.4425,2.4507,2.4497,2.4435,2.4433,2.438,2.4137,2.3607,2.3159,2.3237,2.3087,2.2934,2.2977,2.2752,2.2165,2.1121,2.107,2.0925,2.1019,2.0917,2.0609,1.9892,1.9147,1.8377,1.7626,1.6966,1.6272,1.5676,1.5296,1.5057,1.458,1.4394,1.4189,1.4002,1.3821,1.3658,1.3477,1.3207,1.2636,1.2117,1.1635,1.1094,1.095,1.0858,1.0844,1.085,1.1015,1.1127,1.1048,1.1019,1.0828,1.085,1.1091,1.0993,1.0895,1.0797,1.0752,3.0775,3.073,3.0685,3.0697,3.0619,3.0619,3.0503,3.0339,2.9936,2.9625,2.9329,2.8545,2.7944,2.7552,2.6951,2.6482,2.6073,2.5489,2.4538,2.3444,2.3339,2.33,2.3183,2.3271,2.2952,2.2204,2.1732,2.1652,2.1828,2.2108,2.2139,2.1949,2.2272,2.2457,2.2482,2.2317,2.2341,2.2636,2.2383,2.2214,2.2214,2.2214,2.2214,2.2225,2.2214,2.2138,2.2035,2.1883,2.1807,2.1807,2.1807,2.1952,2.2294,2.2718,2.3214,2.3608,2.3826,2.4074,2.4425,2.4487,2.4405,2.4272,2.4523,2.4566,2.4388,2.4364,2.4514,2.4813,2.4551,2.4314,2.4627,2.4361,2.3665,2.2669,2.1573,2.1275,2.1776,2.1623,2.1224,2.059,1.9948,1.9223,1.8476,1.7776,1.7059,1.6339,1.5812,1.5337,1.5105,1.4723,1.4189,1.3966,1.3797,1.3671,1.3473,1.3221,1.2786,1.2518,1.2296,1.198,1.1961,1.2048,1.2137,1.2233,1.2431,1.2506,1.2442,1.2224,1.1883,1.1639,1.1487,1.134,1.1243,1.1194,1.1149,3.211,3.2035,3.2035,3.1948,3.1904,3.186,3.1892,3.1824,3.1421,3.1233,3.1093,3.0176,2.9423,2.8862,2.8317,2.7686,2.711,2.6806,2.5898,2.4636,2.4635,2.472,2.4697,2.4494,2.4223,2.372,2.3018,2.2494,2.2273,2.2565,2.2499,2.2102,2.2405,2.2779,2.2998,2.2929,2.3068,2.3555,2.3408,2.3243,2.3243,2.3254,2.3243,2.3217,2.2968,2.2842,2.2891,2.2505,2.2126,2.1918,2.2029,2.2428,2.2995,2.3456,2.3813,2.4054,2.4284,2.4503,2.4712,2.4786,2.4681,2.4514,2.4788,2.4978,2.4883,2.5125,2.5539,2.596,2.5899,2.5839,2.6135,2.5763,2.5178,2.4826,2.3103,2.2215,2.2476,2.2224,2.1928,2.1433,2.0744,2.0053,1.9491,1.8609,1.7861,1.7091,1.6567,1.6048,1.5866,1.5486,1.5081,1.4636,1.4343,1.4084,1.3605,1.3231,1.2844,1.2794,1.2786,1.2596,1.2461,1.2703,1.2846,1.2945,1.3142,1.3028,1.2953,1.2613,1.2273,1.2078,1.198,1.1883,1.178,1.1585,1.1492,3.4272,3.4118,3.4118,3.3852,3.3615,3.3628,3.3573,3.3658,3.3547,3.3467,3.3195,3.2017,3.1088,3.0288,2.9261,2.8351,2.7458,2.751,2.7345,2.6872,2.6776,2.6745,2.6403,2.5576,2.5106,2.4937,2.4349,2.3731,2.3165,2.342,2.3034,2.266,2.2934,2.3073,2.3791,2.3748,2.4217,2.4796,2.4836,2.4812,2.4742,2.4743,2.4707,2.4671,2.4034,2.386,2.4142,2.3612,2.2817,2.2147,2.2621,2.3248,2.3839,2.4315,2.451,2.4469,2.4934,2.503,2.5115,2.5094,2.5052,2.4956,2.5126,2.5424,2.5669,2.5775,2.6116,2.6749,2.7009,2.7218,2.7218,2.6951,2.6751,2.6781,2.4924,2.3552,2.2719,2.2577,2.2426,2.2214,2.1485,2.075,2.0653,1.9706,1.8831,1.8218,1.7923,1.7458,1.7037,1.6713,1.65,1.5925,1.5214,1.448,1.3974,1.3459,1.3071,1.2964,1.3079,1.3089,1.2995,1.3282,1.3509,1.3602,1.3631,1.3567,1.3443,1.3098,1.2856,1.2759,1.2613,1.2516,1.2322,1.2127,1.1883,3.4343,3.4314,3.4314,3.4272,3.423,3.423,3.4189,3.4189,3.4034,3.3979,3.3801,3.3348,3.2676,3.2158,3.1358,3.0698,3.0002,2.9619,2.9408,2.9193,2.9323,2.866,2.7642,2.6577,2.6045,2.5937,2.5146,2.4469,2.4312,2.4613,2.4664,2.4671,2.4912,2.5367,2.5761,2.583,2.6146,2.6294,2.6356,2.6129,2.5793,2.5769,2.5721,2.566,2.5111,2.5014,2.528,2.4682,2.3999,2.3384,2.375,2.4128,2.4326,2.4731,2.487,2.472,2.4965,2.5041,2.486,2.5072,2.5072,2.4753,2.5209,2.5518,2.5647,2.6002,2.6648,2.7374,2.7629,2.7823,2.8196,2.8183,2.7977,2.7352,2.5954,2.4541,2.366,2.322,2.2929,2.2517,2.2032,2.1695,2.1408,2.0867,2.0184,1.983,1.9311,1.8781,1.835,1.7716,1.7426,1.6697,1.593,1.5096,1.4361,1.3827,1.339,1.3161,1.3284,1.3571,1.3622,1.3817,1.3991,1.4124,1.4011,1.3956,1.3871,1.3678,1.3534,1.3346,1.3104,1.2905,1.2759,1.2565,1.2322,3.4397,3.4397,3.4397,3.4397,3.4397,3.4397,3.4397,3.4356,3.4285,3.4243,3.4147,3.3992,3.3572,3.3044,3.2575,3.1944,3.1214,3.0868,3.0535,3.0216,3.0266,2.9808,2.8923,2.7912,2.7366,2.7231,2.6193,2.5546,2.5288,2.5541,2.5541,2.53,2.5778,2.6141,2.642,2.6651,2.6916,2.7131,2.7413,2.7288,2.6754,2.6964,2.6889,2.6659,2.6114,2.5848,2.5828,2.567,2.5119,2.4443,2.4417,2.4625,2.4775,2.5033,2.5162,2.5087,2.5648,2.5815,2.5341,2.5648,2.5721,2.5319,2.5514,2.5881,2.6281,2.6617,2.7183,2.8132,2.8228,2.8392,2.8669,2.8803,2.8606,2.8081,2.6972,2.5761,2.4531,2.4254,2.3868,2.334,2.2705,2.2226,2.2113,2.1518,2.1165,2.081,2.0289,2.0004,1.9769,1.9014,1.8348,1.7779,1.7181,1.6447,1.5727,1.512,1.4865,1.4526,1.443,1.4555,1.431,1.4426,1.4171,1.4232,1.4274,1.4298,1.4154,1.4058,1.3962,1.3775,1.3534,1.334,1.3195,1.3104,1.2856,3.445,3.4397,3.4397,3.4397,3.4397,3.4397,3.4397,3.4397,3.4397,3.4356,3.4356,3.4202,3.3859,3.3394,3.3114,3.245,3.1511,3.1357,3.092,3.0637,3.047,3.029,2.9982,2.8974,2.8441,2.8199,2.7485,2.6721,2.6242,2.622,2.6015,2.5917,2.5871,2.6044,2.6806,2.6858,2.7062,2.7635,2.8326,2.8291,2.7915,2.8084,2.811,2.7709,2.7249,2.6739,2.6625,2.6651,2.6423,2.509,2.494,2.5305,2.5547,2.5588,2.5658,2.608,2.6621,2.6689,2.6337,2.6703,2.6816,2.6174,2.5935,2.631,2.6922,2.7195,2.7587,2.8617,2.8792,2.876,2.8781,2.8803,2.8757,2.856,2.8023,2.7057,2.5964,2.5489,2.5109,2.443,2.3541,2.2955,2.2371,2.1974,2.1592,2.1643,2.1247,2.1044,2.0784,2.0237,1.9723,1.9371,1.8731,1.7973,1.7262,1.6573,1.6464,1.6256,1.6151,1.6025,1.5264,1.4997,1.4409,1.4195,1.4268,1.4298,1.4298,1.425,1.4298,1.4202,1.3919,1.3823,1.3727,1.363,1.3437,3.4829,3.4397,3.4397,3.4397,3.4397,3.4397,3.4397,3.4397,3.4397,3.4397,3.4397,3.4356,3.4236,3.4092,3.3673,3.3283,3.2826,3.2071,3.1369,3.0888,3.0685,3.0438,3.0073,2.9287,2.8699,2.8256,2.7699,2.7268,2.7142,2.7066,2.7361,2.7511,2.7296,2.7739,2.7842,2.8075,2.8447,2.8464,2.9131,2.9235,2.8804,2.883,2.8882,2.8678,2.8577,2.8342,2.8099,2.8428,2.825,2.7557,2.7143,2.7115,2.7256,2.6961,2.6892,2.7121,2.718,2.7284,2.7284,2.729,2.7133,2.694,2.6546,2.6299,2.7184,2.7381,2.7841,2.8563,2.8803,2.8803,2.8803,2.8803,2.8803,2.8757,2.856,2.8117,2.7258,2.659,2.5926,2.5266,2.4857,2.4367,2.3368,2.3208,2.2865,2.253,2.224,2.2023,2.1705,2.1316,2.0863,2.0439,1.9783,1.9024,1.8397,1.7845,1.7744,1.7652,1.7576,1.7274,1.6504,1.5752,1.5259,1.4715,1.4286,1.4394,1.4777,1.4586,1.4627,1.449,1.4442,1.449,1.449,1.4298,1.4298,3.4946,3.441,3.4397,3.4397,3.4397,3.4397,3.4397,3.4397,3.4397,3.4397,3.4397,3.4397,3.4397,3.4384,3.4097,3.3849,3.3352,3.2346,3.1497,3.1053,3.0835,3.0418,2.9787,2.9347,2.8833,2.8248,2.7743,2.7529,2.7503,2.7516,2.76,2.7954,2.7981,2.7801,2.7981,2.8333,2.8182,2.8137,2.8804,2.9026,2.8569,2.8739,2.8673,2.8608,2.8686,2.8708,2.8417,2.8948,2.9152,2.9025,2.8862,2.8508,2.811,2.7723,2.7664,2.7956,2.834,2.8132,2.8107,2.8206,2.8239,2.7782,2.7533,2.7679,2.7948,2.8142,2.8376,2.8723,2.8803,2.8803,2.8803,2.8803,2.8803,2.8803,2.8803,2.8617,2.8128,2.7505,2.6744,2.6109,2.5809,2.5141,2.4573,2.4237,2.3758,2.3235,2.3028,2.2819,2.2608,2.2186,2.1599,2.1096,2.0543,1.9945,1.9415,1.9032,1.8965,1.8833,1.8746,1.8233,1.7554,1.6854,1.6203,1.5751,1.5425,1.5439,1.5683,1.5391,1.5248,1.5493,1.5588,1.5445,1.535,1.5445,1.5493,3.4946,3.4397,3.4397,3.4397,3.4397,3.4397,3.4397,3.4397,3.4397,3.4397,3.4397,3.4397,3.4397,3.4384,3.4384,3.4084,3.3456,3.2738,3.1967,3.1287,3.1222,3.0544,2.9784,2.9353,2.8974,2.8373,2.7798,2.7516,2.7503,2.7503,2.7542,2.7529,2.7516,2.7594,2.7542,2.7516,2.7699,2.7915,2.8464,2.8608,2.8203,2.8451,2.8386,2.8072,2.8412,2.8765,2.8908,2.9379,2.9826,3.0296,3.0361,2.9604,2.8709,2.806,2.8258,2.8785,2.933,2.9305,2.9112,2.9279,2.925,2.8721,2.8931,2.9148,2.911,2.9334,2.9551,2.9375,2.9325,2.9071,2.885,2.8803,2.8803,2.8803,2.8803,2.8803,2.871,2.8164,2.7505,2.6829,2.657,2.6102,2.5515,2.5121,2.4525,2.4035,2.3834,2.3607,2.3365,2.2858,2.2154,2.1561,2.0983,2.049,1.9978,2.0018,1.9964,1.9896,1.9813,1.9451,1.891,1.8634,1.8072,1.7196,1.6882,1.6756,1.648,1.6197,1.6244,1.6588,1.6447,1.6109,1.6211,1.6541,1.6487,3.4946,3.4397,3.4397,3.4397,3.4397,3.4397,3.4397,3.4397,3.4397,3.4397,3.4397,3.4397,3.4397,3.4397,3.4397,3.4084,3.36,3.3143,3.262,3.1797,3.1588,3.0975,3.0124,2.9457,2.8974,2.8373,2.7824,2.7503,2.7503,2.7503,2.7503,2.7503,2.7503,2.7503,2.7503,2.7529,2.7725,2.8137,2.8647,2.8817,2.8895,2.8974,2.8895,2.8464,2.8974,2.9444,2.9902,3.0398,3.0973,3.1445,3.1497,3.1331,3.0817,2.9933,2.9858,3.0165,3.0062,3.0049,3.0318,3.0023,3.0031,2.9978,2.9901,2.9939,3.0283,3.058,3.0739,3.0702,3.026,2.9726,2.8896,2.9106,2.8932,2.8896,2.8932,2.8932,2.8885,2.8606,2.8222,2.7552,2.7358,2.707,2.6435,2.5946,2.5534,2.5083,2.4718,2.4401,2.4105,2.3345,2.2391,2.1849,2.1312,2.0866,2.044,2.068,2.0829,2.0833,2.0829,2.0998,2.0628,2.0628,2.0121,1.901,1.8041,1.7584,1.7311,1.7178,1.7185,1.7466,1.7099,1.673,1.7052,1.7372,1.7005,3.5195,3.4424,3.4397,3.4397,3.4397,3.4397,3.4397,3.4397,3.4397,3.4397,3.4397,3.4397,3.4397,3.4397,3.4397,3.4097,3.3718,3.3587,3.3077,3.2372,3.1915,3.1393,3.0503,2.9719,2.9009,2.8373,2.7837,2.7516,2.7503,2.7503,2.7503,2.7503,2.7503,2.7503,2.7503,2.7516,2.7876,2.836,2.876,2.9039,2.9327,2.9549,2.9497,2.9588,3.0098,3.0675,3.1001,3.1561,3.1967,3.2202,3.2267,3.228,3.2072,3.1746,3.1268,3.1318,3.1035,3.0907,3.1381,3.119,3.1344,3.124,3.1263,3.1422,3.1586,3.1736,3.1865,3.1568,3.14,3.0822,3.0508,3.0328,3.0463,3.0463,3.0113,2.9715,2.9543,2.9152,2.8735,2.8351,2.82,2.7819,2.718,2.6761,2.6486,2.6139,2.5716,2.5304,2.491,2.4003,2.3024,2.2541,2.2094,2.1505,2.1158,2.1271,2.1346,2.142,2.1493,2.1623,2.1642,2.1365,2.1087,2.0484,1.9604,1.8688,1.8842,1.8942,1.8673,1.8342,1.835,1.8257,1.8156,1.8017,1.7792,3.5404,3.4567,3.4437,3.4397,3.4397,3.4397,3.4397,3.4397,3.4397,3.4397,3.4397,3.4397,3.4397,3.4397,3.4358,3.4162,3.3757,3.377,3.343,3.2921,3.2502,3.1901,3.1026,3.0163,2.9375,2.866,2.8059,2.7641,2.7503,2.7503,2.7503,2.7503,2.7503,2.7594,2.7706,2.7764,2.8085,2.8569,2.8917,2.9209,2.9758,3.0111,3.0348,3.0453,3.1327,3.1758,3.1928,3.2306,3.2646,3.2803,3.2868,3.2881,3.2881,3.2868,3.2659,3.2241,3.2071,3.198,3.2084,3.2293,3.2319,3.2267,3.305,3.3034,3.2986,3.2971,3.2998,3.219,3.2016,3.1916,3.1772,3.1904,3.1948,3.1904,3.1332,3.0798,3.0586,3.0192,2.9578,2.9268,2.9059,2.8563,2.7938,2.7704,2.7468,2.6948,2.6523,2.6247,2.5755,2.4842,2.3977,2.3505,2.3009,2.2298,2.1943,2.1774,2.1739,2.1612,2.1586,2.1668,2.1687,2.1642,2.141,2.1177,2.0952,2.0221,2.0464,2.0337,1.9737,1.9455,1.9691,1.9637,1.9271,1.9134,1.8996,3.5312,3.5142,3.462,3.4397,3.4397,3.4397,3.4397,3.4397,3.4397,3.4397,3.4397,3.4397,3.4397,3.4397,3.4397,3.4345,3.428,3.4188,3.394,3.3496,3.326,3.2698,3.1758,3.1117,3.016,2.9287,2.8595,2.8007,2.7673,2.7555,2.7503,2.7503,2.7542,2.7725,2.8124,2.815,2.8869,2.9735,3.0385,3.0908,3.1262,3.1143,3.1287,3.1536,3.1876,3.2202,3.2633,3.2881,3.3038,3.3443,3.3483,3.3483,3.3496,3.3496,3.347,3.3247,3.296,3.2594,3.2633,3.2816,3.2986,3.3117,3.3589,3.3794,3.3931,3.4129,3.4037,3.3224,3.328,3.3139,3.2741,3.2426,3.2339,3.2426,3.2383,3.2122,3.1904,3.1155,3.0553,3.0113,2.9852,2.9325,2.8749,2.8585,2.8409,2.7882,2.74,2.7115,2.6615,2.572,2.4629,2.4037,2.3785,2.315,2.2875,2.2709,2.2264,2.201,2.1874,2.182,2.1687,2.1687,2.1687,2.1508,2.1374,2.1239,2.1015,2.0736,2.0428,2.0337,2.0374,2.0283,2.0147,2.011,1.992,3.6176,3.5247,3.4646,3.4397,3.4397,3.4397,3.4397,3.4397,3.4397,3.4397,3.4397,3.4397,3.4397,3.4397,3.4397,3.4397,3.4397,3.4439,3.4293,3.402,3.3772,3.3366,3.2646,3.1627,3.0594,3.0189,2.934,2.8582,2.8137,2.7712,2.7503,2.7516,2.7542,2.7777,2.8464,2.8446,2.9287,3.0398,3.1418,3.2045,3.228,3.2411,3.2555,3.2829,3.3091,3.3352,3.3522,3.3666,3.3744,3.4045,3.4045,3.4045,3.4045,3.4045,3.4045,3.4018,3.3835,3.3535,3.33,3.3483,3.36,3.3734,3.3984,3.4423,3.4744,3.4867,3.488,3.4371,3.4426,3.4288,3.4095,3.404,3.4124,3.4027,3.3509,3.3339,3.3041,3.2221,3.1565,3.1078,3.0643,3.017,2.9692,2.9474,2.9244,2.8828,2.8574,2.8412,2.775,2.6774,2.5585,2.438,2.4172,2.3984,2.3846,2.3712,2.3098,2.2777,2.2451,2.2309,2.182,2.1687,2.182,2.1776,2.1607,2.1463,2.1365,2.1275,2.106,2.097,2.088,2.0781,2.0645,2.0382,2.0246,3.7057,3.5871,3.505,3.4716,3.4675,3.4481,3.4397,3.4397,3.4397,3.4397,3.4481,3.4592,3.4634,3.4522,3.4634,3.484,3.4758,3.4716,3.4716,3.4558,3.4293,3.3975,3.3275,3.2189,3.1561,3.1233,3.049,2.9758,2.917,2.8712,2.839,2.7751,2.779,2.8242,2.8726,2.9235,3.0072,3.1705,3.2489,3.2934,3.3182,3.3548,3.3679,3.3875,3.4149,3.4397,3.4397,3.4345,3.4358,3.4358,3.4345,3.4319,3.4332,3.4319,3.4374,3.4402,3.4352,3.4288,3.413,3.4142,3.4192,3.4249,3.4372,3.4855,3.5018,3.5127,3.5154,3.5059,3.5141,3.5277,3.5399,3.5345,3.5291,3.5073,3.4855,3.4635,3.4277,3.3479,3.2827,3.2438,3.1916,3.1178,3.0756,3.0419,3.0068,2.976,2.9646,2.9578,2.8709,2.7616,2.6608,2.5334,2.492,2.4768,2.4527,2.4365,2.3863,2.3574,2.3281,2.2969,2.2599,2.2255,2.2176,2.2043,2.1919,2.1651,2.1508,2.1597,2.1687,2.1463,2.1284,2.123,2.1096,2.0781,2.0555,3.773,3.7514,3.6182,3.5629,3.5548,3.4716,3.4439,3.4522,3.4481,3.4551,3.4758,3.5155,3.5114,3.4868,3.5305,3.5615,3.5629,3.5629,3.5588,3.5575,3.5507,3.4848,3.4206,3.3555,3.2949,3.2173,3.1823,3.1468,3.0979,3.0847,2.9812,2.8569,2.8777,2.9205,2.9862,3.0581,3.1483,3.2777,3.3404,3.3718,3.3979,3.4228,3.4254,3.428,3.4358,3.4397,3.4397,3.4397,3.4439,3.4439,3.4439,3.4481,3.4522,3.4522,3.4618,3.4701,3.4743,3.4746,3.4761,3.4596,3.4553,3.4703,3.4936,3.5113,3.5208,3.5331,3.5358,3.5399,3.548,3.5588,3.5629,3.5669,3.5669,3.5588,3.5372,3.5318,3.5032,3.4786,3.4178,3.3788,3.3182,3.2451,3.1821,3.148,3.0701,3.0295,3.0091,3.0056,2.915,2.8166,2.747,2.6574,2.5933,2.5525,2.5091,2.4867,2.4916,2.4619,2.4219,2.394,2.3594,2.3256,2.2872,2.253,2.2388,2.2043,2.1687,2.1731,2.1731,2.1731,2.1642,2.1508,2.1463,2.1284,2.1096,3.8777,3.8672,3.7653,3.6922,3.6411,3.6068,3.5655,3.5345,3.5722,3.5949,3.5883,3.5776,3.5816,3.5963,3.6148,3.6425,3.6439,3.6425,3.6425,3.6425,3.6304,3.6075,3.5591,3.5172,3.4851,3.4336,3.4046,3.3586,3.3097,3.3001,3.2791,3.1881,3.0766,3.0537,3.1196,3.2095,3.3001,3.3418,3.3942,3.4228,3.4293,3.4397,3.4397,3.4397,3.4397,3.4397,3.4397,3.4397,3.4481,3.4618,3.4618,3.4701,3.4784,3.4771,3.4867,3.4962,3.5003,3.5044,3.5086,3.4949,3.4949,3.5113,3.5236,3.5318,3.5399,3.5562,3.5562,3.5588,3.5629,3.571,3.571,3.571,3.571,3.571,3.571,3.571,3.5588,3.5304,3.5059,3.4483,3.4191,3.3729,3.3091,3.2544,3.1681,3.088,3.0666,3.0325,2.952,2.8744,2.8106,2.7573,2.6942,2.669,2.6297,2.6213,2.6141,2.5679,2.5158,2.4946,2.4659,2.4241,2.381,2.3387,2.2994,2.2731,2.2432,2.1998,2.1776,2.1731,2.1731,2.1687,2.1687,2.1687,2.1553,3.9388,3.9316,3.8811,3.8075,3.7295,3.6996,3.6568,3.6241,3.6621,3.6894,3.6894,3.6557,3.6557,3.6933,3.7204,3.7281,3.7295,3.7295,3.7295,3.7295,3.7295,3.7127,3.6856,3.6504,3.6098,3.6226,3.5958,3.5386,3.5036,3.5057,3.4904,3.4446,3.3653,3.3176,3.2981,3.3725,3.43,3.4337,3.4575,3.4688,3.4605,3.4618,3.4881,3.4964,3.5032,3.5032,3.5073,3.5073,3.4922,3.4908,3.488,3.4962,3.5044,3.5113,3.5113,3.5168,3.5208,3.5236,3.5277,3.5249,3.5277,3.5318,3.544,3.5548,3.5669,3.571,3.5669,3.5669,3.571,3.571,3.571,3.571,3.571,3.571,3.571,3.571,3.571,3.5507,3.5345,3.5046,3.484,3.4675,3.4008,3.3318,3.2382,3.1504,3.0925,3.0652,3.0196,2.9424,2.8745,2.8302,2.7898,2.7755,2.7664,2.7186,2.6727,2.654,2.6163,2.6008,2.5715,2.5306,2.5009,2.4744,2.4274,2.3681,2.3333,2.3105,2.2467,2.1776,2.1731,2.1741,2.1687,2.1687,2.1687,3.9388,3.9388,3.9352,3.8885,3.8113,3.7281,3.6958,3.6855,3.6894,3.7011,3.7204,3.7668,3.763,3.741,3.7933,3.8136,3.8136,3.815,3.815,3.815,3.8136,3.7691,3.7343,3.7129,3.7234,3.694,3.6959,3.6968,3.684,3.6803,3.6855,3.6845,3.6377,3.5797,3.5245,3.57,3.5895,3.5707,3.5883,3.5507,3.5291,3.5263,3.5642,3.5976,3.6002,3.6016,3.6056,3.6016,3.5816,3.5642,3.5386,3.5345,3.5399,3.5236,3.5277,3.5521,3.5521,3.5588,3.5696,3.5548,3.5521,3.548,3.5548,3.5669,3.571,3.571,3.571,3.571,3.571,3.571,3.571,3.571,3.571,3.571,3.571,3.571,3.571,3.571,3.5507,3.5426,3.5507,3.5386,3.4716,3.4008,3.3074,3.2164,3.1339,3.0888,3.0657,3.0171,2.9514,2.9087,2.8757,2.84,2.8209,2.7724,2.7357,2.7231,2.7213,2.714,2.6918,2.649,2.6229,2.6019,2.5453,2.4734,2.451,2.4329,2.3607,2.2843,2.1954,2.1785,2.1741,2.1687,2.1687,3.9388,3.9388,3.9388,3.9228,3.8958,3.8708,3.8271,3.7691,3.7256,3.7525,3.8323,3.8427,3.8464,3.8598,3.8708,3.8936,3.8973,3.8995,3.8995,3.8973,3.8922,3.887,3.8546,3.8345,3.8472,3.8546,3.8546,3.8435,3.8546,3.8383,3.8457,3.8568,3.8339,3.7837,3.6798,3.6581,3.6598,3.6671,3.666,3.6543,3.6557,3.6531,3.6688,3.7102,3.7063,3.7063,3.7127,3.7049,3.6855,3.6635,3.6413,3.6149,3.6123,3.5964,3.5857,3.6243,3.6387,3.6688,3.6922,3.6805,3.6123,3.5857,3.5669,3.571,3.571,3.571,3.571,3.571,3.571,3.571,3.571,3.571,3.571,3.571,3.571,3.571,3.571,3.571,3.5629,3.5629,3.5669,3.5386,3.4881,3.4634,3.3869,3.3245,3.2457,3.1781,3.1452,3.089,3.0315,2.9945,2.9534,2.9124,2.8745,2.8545,2.8574,2.8675,2.8545,2.8451,2.8128,2.7556,2.7201,2.6887,2.634,2.5799,2.5568,2.5263,2.4745,2.4029,2.3149,2.2344,2.2176,2.1954,2.1687,3.9388,3.9388,3.9388,3.9388,3.9388,3.9388,3.9083,3.8575,3.8046,3.842,3.9104,3.8811,3.8848,3.9265,3.9388,3.9388,3.9388,3.9388,3.9373,3.9388,3.9388,3.9265,3.9316,3.9388,3.9192,3.9388,3.9388,3.9352,3.9228,3.9352,3.9337,3.9394,3.961,3.8964,3.8243,3.8109,3.7936,3.7904,3.7701,3.7625,3.7548,3.7534,3.7686,3.8003,3.8092,3.8107,3.8092,3.8078,3.8003,3.78,3.7496,3.7165,3.7063,3.6947,3.6805,3.7179,3.7357,3.7587,3.7686,3.7663,3.6947,3.6282,3.5937,3.571,3.571,3.571,3.571,3.571,3.571,3.571,3.571,3.571,3.571,3.571,3.571,3.571,3.571,3.571,3.571,3.571,3.5669,3.5345,3.5127,3.5005,3.4716,3.4176,3.3628,3.2957,3.2227,3.1589,3.1028,3.0598,3.0188,2.9738,2.9576,2.9594,2.9744,3.0037,2.9714,2.9295,2.8855,2.8244,2.7998,2.7725,2.7348,2.6969,2.6547,2.6163,2.5735,2.5136,2.4296,2.3531,2.2818,2.2555,2.2467,3.9388,3.9388,3.9388,3.9388,3.9388,3.9388,3.9388,3.9388,3.9337,3.9337,3.9388,3.9337,3.9337,3.9352,3.9388,3.9388,3.9388,3.9388,3.9388,3.9388,3.9388,3.9388,3.9388,3.9388,3.9388,3.9388,3.9388,3.9388,3.9388,3.946,3.9553,3.9696,3.9803,3.9646,3.9595,3.9508,3.9241,3.8921,3.8789,3.8664,3.8487,3.8324,3.8708,3.903,3.9154,3.9154,3.919,3.9154,3.8848,3.8539,3.8175,3.8138,3.8101,3.8101,3.8101,3.8138,3.8138,3.8361,3.8399,3.8376,3.789,3.7218,3.6427,3.6017,3.571,3.571,3.571,3.571,3.571,3.571,3.571,3.571,3.571,3.571,3.571,3.571,3.571,3.571,3.571,3.571,3.571,3.5548,3.5548,3.5426,3.5209,3.4964,3.4468,3.3966,3.3216,3.2317,3.1727,3.1077,3.0676,3.0284,3.0218,3.0284,3.0446,3.0615,3.0086,2.9671,2.9246,2.8898,2.8521,2.8298,2.8415,2.8099,2.751,2.7092,2.6805,2.6205,2.5724,2.484,2.4168,2.4006,2.3877,3.9388,3.9388,3.9388,3.9388,3.9388,3.9388,3.9388,3.9388,3.9388,3.9388,3.9388,3.9388,3.9388,3.9388,3.9388,3.9388,3.9388,3.9388,3.9388,3.9388,3.9388,3.9388,3.9388,3.9388,3.9388,3.9388,3.9388,3.9424,3.946,3.9517,3.9711,3.9889,4.0016,4.0121,4.0191,4.0296,4.0021,3.9829,3.9717,3.958,3.955,3.9478,3.9814,3.9935,3.997,4.0005,4.0021,4.0021,3.9778,3.9743,3.9196,3.8979,3.8942,3.8473,3.825,3.8964,3.9391,3.9814,3.9692,3.9269,3.8782,3.8376,3.7776,3.6688,3.6163,3.5831,3.5871,3.5977,3.5937,3.5937,3.6017,3.6017,3.5977,3.5911,3.5871,3.571,3.571,3.571,3.571,3.571,3.571,3.571,3.571,3.5669,3.5467,3.5426,3.5209,3.4758,3.4197,3.328,3.2504,3.1881,3.1496,3.1153,3.0804,3.0784,3.0995,3.1115,3.053,3.005,2.9737,2.9347,2.8979,2.8703,2.8558,2.8471,2.8259,2.7886,2.7551,2.7846,2.7499,2.6442,2.5641,2.5442,2.5105,3.9517,3.9517,3.9424,3.9388,3.9388,3.9388,3.9388,3.9388,3.9388,3.9388,3.9388,3.9388,3.9388,3.9388,3.9388,3.9388,3.9388,3.9388,3.9388,3.9388,3.9388,3.9388,3.9388,3.9388,3.9388,3.9409,3.9481,3.9553,3.9589,3.9747,3.9925,4.0101,4.0261,4.0312,4.0381,4.042,4.0436,4.0331,4.0261,4.0331,4.0366,4.0436,4.047,4.0489,4.0489,4.0489,4.0489,4.0489,4.0489,4.0489,3.992,3.9814,3.9778,3.9341,3.916,3.9799,4.0076,4.0316,4.0266,4.0041,3.9657,3.9284,3.8855,3.7988,3.7102,3.6584,3.6649,3.6713,3.6466,3.6282,3.6362,3.6401,3.6322,3.6217,3.5977,3.571,3.571,3.571,3.571,3.571,3.571,3.571,3.571,3.571,3.571,3.5629,3.5548,3.5386,3.4896,3.4299,3.3547,3.2866,3.2533,3.2206,3.184,3.1473,3.1588,3.1537,3.0995,3.0518,3.0224,2.9641,2.9076,2.8751,2.8534,2.8471,2.8419,2.8431,2.8299,2.851,2.851,2.7713,2.6946,2.6753,2.6381,3.9732,3.9681,3.9532,3.946,3.9409,3.9424,3.9424,3.9409,3.9424,3.9388,3.9388,3.9388,3.9388,3.9388,3.9388,3.9388,3.9388,3.9388,3.9388,3.9388,3.9388,3.9388,3.9424,3.9424,3.9481,3.9517,3.9589,3.9768,3.9803,3.9945,4.0121,4.0296,4.0296,4.0366,4.047,4.0489,4.0505,4.047,4.0436,4.047,4.047,4.0505,4.0489,4.0489,4.0489,4.0489,4.0489,4.0489,4.0489,4.0489,4.0489,4.042,4.037,4.0335,4.0335,4.037,4.042,4.0455,4.0489,4.0351,4.0041,3.9692,3.9341,3.8964,3.8339,3.7396,3.7319,3.7396,3.7165,3.7165,3.7256,3.7141,3.7039,3.6819,3.6545,3.6282,3.6137,3.5977,3.571,3.571,3.571,3.571,3.571,3.571,3.571,3.571,3.5669,3.5629,3.544,3.4966,3.4446,3.374,3.3348,3.2998,3.2734,3.2413,3.2284,3.2006,3.157,3.1113,3.087,3.0058,2.9124,2.8799,2.851,2.851,2.8471,2.851,2.851,2.851,2.851,2.851,2.8231,2.7829,2.7441,3.9925,3.9925,3.9696,3.9625,3.9625,3.9445,3.9481,3.9625,3.9445,3.9424,3.9388,3.9388,3.9388,3.9388,3.9388,3.9388,3.9424,3.946,3.9388,3.9424,3.946,3.9496,3.946,3.9604,3.9625,3.9696,3.9803,3.9996,4.0121,4.0191,4.0296,4.0436,4.0436,4.047,4.0489,4.0489,4.0489,4.0489,4.0489,4.0489,4.0489,4.0489,4.0489,4.0489,4.0489,4.0489,4.0489,4.0489,4.0489,4.0489,4.0489,4.0489,4.0489,4.0489,4.0489,4.0489,4.0489,4.0489,4.0489,4.0489,4.0316,4.0281,4.0111,4.0076,3.9585,3.8473,3.7951,3.8026,3.8063,3.8063,3.8063,3.7965,3.7776,3.7486,3.7116,3.6858,3.6584,3.6217,3.579,3.571,3.571,3.571,3.571,3.571,3.571,3.571,3.571,3.5669,3.5669,3.5386,3.5087,3.4489,3.4012,3.366,3.3444,3.3259,3.3089,3.3054,3.2775,3.2199,3.1578,3.0667,2.9792,2.8931,2.851,2.8726,2.879,2.851,2.851,2.851,2.851,2.851,2.8546,2.8279,2.8054,4.0137,4.0137,4.0016,3.9925,3.9803,3.9696,3.9747,3.9768,3.9625,3.9532,3.9517,3.9445,3.9388,3.9388,3.9388,3.9496,3.9517,3.9517,3.964,3.964,3.964,3.9661,3.9747,3.9783,3.9818,3.9874,4.0016,4.0207,4.0366,4.0401,4.042,4.0489,4.0489,4.0489,4.0489,4.0489,4.0489,4.0489,4.0489,4.0489,4.0489,4.0489,4.0489,4.0489,4.0489,4.0489,4.0489,4.0489,4.0489,4.0489,4.0489,4.0489,4.0489,4.0489,4.0489,4.0489,4.0489,4.0489,4.0489,4.0489,4.0489,4.0489,4.0489,4.0301,4.0301,3.9356,3.9305,3.9356,3.8833,3.876,3.9088,3.9088,3.8745,3.845,3.7852,3.741,3.7,3.6584,3.6097,3.571,3.571,3.571,3.571,3.571,3.571,3.571,3.571,3.571,3.571,3.571,3.5413,3.5183,3.4673,3.4377,3.4186,3.3988,3.3756,3.3779,3.3869,3.3148,3.2319,3.1379,3.0475,3.0004,2.9598,2.9392,2.9328,2.9099,2.8626,2.851,2.851,2.851,2.8595,2.8791,2.8686,4.0331,4.0331,4.0312,4.0191,4.0046,3.9996,3.9996,3.9996,3.9839,3.9768,3.9768,3.9604,3.9496,3.946,3.946,3.9589,3.9696,3.9732,3.9854,3.994,3.994,3.9905,3.9925,3.9996,4.0066,4.0137,4.0242,4.0366,4.047,4.0455,4.0455,4.0489,4.0489,4.0489,4.0489,4.0489,4.0489,4.0489,4.0489,4.0489,4.0489,4.0489,4.0489,4.0489,4.0489,4.0489,4.0489,4.0489,4.0489,4.0489,4.0489,4.0489,4.0489,4.0489,4.0489,4.0489,4.0489,4.0489,4.0489,4.0489,4.0489,4.0489,4.0489,4.0489,4.0455,4.0455,4.037,4.0146,3.9621,3.955,3.9884,3.9955,3.9606,3.9305,3.8635,3.7951,3.7486,3.7,3.648,3.5937,3.5831,3.5831,3.579,3.575,3.575,3.575,3.571,3.571,3.571,3.571,3.5588,3.5507,3.5305,3.5021,3.4827,3.4664,3.4461,3.45,3.4457,3.377,3.3065,3.2227,3.1699,3.1603,3.1215,3.0631,3.0231,2.9988,2.946,2.901,2.9265,2.9492,2.9395,2.9541,2.9434,4.0455,4.0455,4.0347,4.0277,4.0207,4.0066,4.0066,4.0172,4.0031,4.0031,4.0101,3.996,3.9818,3.9661,3.9661,3.9768,3.9925,3.996,3.9925,4.0011,4.0081,4.0046,4.0081,4.0207,4.0312,4.0381,4.0401,4.047,4.0489,4.0489,4.0489,4.0489,4.0489,4.0489,4.0489,4.0489,4.0489,4.0489,4.0489,4.0489,4.0489,4.0489,4.0489,4.0489,4.0489,4.0489,4.0489,4.0489,4.0489,4.0489,4.0489,4.0489,4.0489,4.0489,4.0489,4.0489,4.0489,4.0489,4.0489,4.0489,4.0489,4.0489,4.0489,4.0489,4.0489,4.0489,4.0455,4.0455,4.0126,4.0126,4.0335,4.0335,4.0111,3.992,3.9463,3.8708,3.8115,3.7563,3.6961,3.6545,3.6282,3.6163,3.6004,3.6017,3.5977,3.5937,3.5897,3.5857,3.571,3.571,3.571,3.571,3.571,3.571,3.5507,3.5372,3.5251,3.5237,3.5115,3.4562,3.3944,3.3165,3.2789,3.2864,3.2353,3.1699,3.1309,3.1048,3.0844,3.057,3.0639,3.0663,3.0491,3.0433,3.0462]}]]